[[{"header":{"parameterUnit":"m.s-1","parameterCategory":1,"la1":30.6,"la2":29.2853,"lo1":-89.7004,"lo2":-87.6739,"dy":0.0162,"dx":0.0183,"nx":112,"ny":82,"refTime":"2026-04-20T12:00:00:Z","depth":0,"parameterNumber":2,"parameterNumberName":"U-component_of_WINDS"},"data":[0.0,0.0,0.0,0.0,0.0,0.0,0.0,0.0,0.0,0.0,0.0,0.0,0.0,0.0,0.0,0.0,0.0,0.0,0.0,0.0,0.0,0.0,0.0,0.0,0.0,0.0,0.0,0.0,0.0,0.0,0.0,0.0,0.0,0.0,0.0,0.0,0.0,0.0,0.0,0.0,0.0,0.0,0.0,0.0,0.0,0.0,0.0,0.0,0.0,0.0,0.0,0.0,0.0,0.0,0.0,0.0,0.0,0.0,0.0,0.0,0.0,0.0,0.0,0.0,0.0,0.0,0.0,0.0,0.0,0.0,0.0,0.0,0.0,0.0,0.0,0.0,0.0,0.0,0.0,0.0,0.0,0.0,0.0,0.0,0.0,0.0,0.0,0.0,0.0,0.0,0.0,2.7924,2.9383,3.0273,3.0195,2.9082,2.7812,2.6465,0.0,0.0,0.0,0.0,0.0,0.0,0.0,0.0,0.0,0.0,0.0,0.0,0.0,0.0,0.0,0.0,0.0,0.0,0.0,0.0,0.0,0.0,0.0,0.0,0.0,0.0,0.0,0.0,0.0,0.0,0.0,0.0,0.0,0.0,0.0,0.0,0.0,0.0,0.0,0.0,0.0,0.0,0.0,0.0,0.0,0.0,0.0,0.0,0.0,0.0,0.0,0.0,0.0,0.0,0.0,0.0,0.0,0.0,0.0,0.0,0.0,0.0,0.0,0.0,0.0,0.0,0.0,0.0,0.0,0.0,0.0,0.0,0.0,0.0,0.0,0.0,0.0,0.0,0.0,0.0,0.0,0.0,0.0,0.0,0.0,0.0,0.0,0.0,0.0,0.0,0.0,0.0,0.0,0.0,0.0,0.0,0.0,0.0,0.0,0.0,0.0,0.0,0.0,0.0,2.6409,2.9039,3.0204,3.0625,3.0234,2.9355,2.8125,2.6484,0.0,0.0,0.0,0.0,0.0,0.0,0.0,0.0,0.0,0.0,0.0,0.0,0.0,0.0,0.0,0.0,0.0,0.0,0.0,0.0,0.0,0.0,0.0,0.0,0.0,0.0,0.0,0.0,0.0,0.0,0.0,0.0,0.0,0.0,0.0,0.0,0.0,0.0,0.0,0.0,0.0,0.0,0.0,0.0,0.0,0.0,0.0,0.0,0.0,0.0,0.0,0.0,0.0,0.0,0.0,0.0,0.0,0.0,0.0,0.0,0.0,0.0,0.0,0.0,0.0,0.0,0.0,0.0,0.0,0.0,0.0,0.0,0.0,0.0,0.0,0.0,0.0,0.0,0.0,0.0,0.0,0.0,0.0,0.0,0.0,0.0,0.0,0.0,0.0,0.0,0.0,0.0,0.0,0.0,0.0,0.0,0.0,0.0,0.0,0.0,0.0,0.0,0.0,2.6138,2.7389,2.9696,3.0508,3.0801,3.0586,2.9551,2.8301,2.6816,2.4883,0.0,0.0,0.0,0.0,0.0,0.0,0.0,0.0,0.0,0.0,0.0,0.0,0.0,0.0,0.0,0.0,0.0,0.0,0.0,0.0,0.0,0.0,0.0,0.0,0.0,0.0,0.0,0.0,0.0,0.0,0.0,0.0,0.0,0.0,0.0,0.0,0.0,0.0,0.0,0.0,0.0,0.0,0.0,0.0,0.0,0.0,0.0,0.0,0.0,0.0,0.0,0.0,0.0,0.0,0.0,0.0,0.0,0.0,0.0,0.0,0.0,0.0,0.0,0.0,0.0,0.0,0.0,0.0,0.0,0.0,0.0,0.0,0.0,0.0,0.0,0.0,0.0,0.0,0.0,0.0,0.0,0.0,0.0,0.0,0.0,0.0,0.0,0.0,0.0,0.0,0.0,0.0,0.0,0.0,0.0,0.0,0.0,0.0,0.0,0.0,0.0,0.0,2.7976,2.8836,3.0215,3.0684,3.0898,3.0898,2.959,2.8262,2.7064,2.4883,0.0,0.0,0.0,0.0,0.0,0.0,0.0,0.0,0.0,0.0,0.0,0.0,0.0,0.0,0.0,0.0,0.0,0.0,0.0,0.0,0.0,0.0,0.0,0.0,0.0,0.0,0.0,0.0,0.0,0.0,0.0,0.0,0.0,0.0,0.0,0.0,0.0,0.0,0.0,0.0,0.0,0.0,0.0,0.0,0.0,0.0,0.0,0.0,0.0,0.0,0.0,0.0,0.0,0.0,0.0,0.0,0.0,0.0,0.0,0.0,0.0,0.0,0.0,0.0,0.0,0.0,0.0,0.0,0.0,0.0,0.0,0.0,0.0,0.0,0.0,0.0,0.0,0.0,0.0,0.0,0.0,0.0,0.0,0.0,0.0,0.0,0.0,0.0,0.0,0.0,0.0,0.0,0.0,0.0,0.0,0.0,0.0,0.0,0.0,0.0,0.0,0.0,2.8789,3.0234,3.0781,3.0879,3.0898,3.0898,2.9316,2.7969,2.7045,2.4652,0.0,0.0,0.0,0.0,0.0,0.0,0.0,0.0,0.0,0.0,0.0,0.0,0.0,0.0,0.0,0.0,0.0,0.0,0.0,0.0,0.0,0.0,0.0,0.0,0.0,0.0,0.0,0.0,0.0,0.0,0.0,0.0,0.0,0.0,0.0,0.0,0.0,0.0,0.0,0.0,0.0,0.0,0.0,0.0,0.0,0.0,0.0,0.0,0.0,0.0,0.0,0.0,0.0,0.0,0.0,0.0,0.0,0.0,0.0,0.0,0.0,0.0,0.0,0.0,0.0,0.0,0.0,0.0,0.0,0.0,0.0,0.0,0.0,0.0,0.0,0.0,0.0,0.0,0.0,0.0,0.0,0.0,0.0,0.0,0.0,0.0,0.0,0.0,0.0,0.0,0.0,0.0,0.0,0.0,0.0,0.0,0.0,0.0,0.0,0.0,0.0,0.0,2.8418,2.9785,0.0,3.0898,3.0898,3.0898,2.9813,2.8496,2.7109,0.0,0.0,0.0,0.0,0.0,0.0,0.0,0.0,0.0,0.0,0.0,0.0,0.0,0.0,0.0,0.0,0.0,0.0,0.0,0.0,0.0,0.0,0.0,0.0,0.0,0.0,0.0,0.0,0.0,0.0,0.0,0.0,0.0,0.0,0.0,0.0,0.0,0.0,0.0,0.0,0.0,0.0,0.0,0.0,0.0,0.0,0.0,0.0,0.0,0.0,0.0,0.0,0.0,0.0,0.0,0.0,0.0,0.0,0.0,0.0,0.0,0.0,0.0,0.0,0.0,0.0,0.0,0.0,0.0,0.0,0.0,0.0,0.0,0.0,0.0,0.0,0.0,0.0,0.0,0.0,0.0,0.0,0.0,0.0,0.0,0.0,0.0,0.0,0.0,0.0,0.0,0.0,0.0,0.0,0.0,0.0,0.0,0.0,0.0,0.0,0.0,0.0,2.6947,2.8664,3.0137,0.0,3.1289,3.123,3.1094,3.0039,2.8691,2.7084,0.0,0.0,0.0,0.0,0.0,0.0,0.0,0.0,0.0,0.0,0.0,0.0,0.0,0.0,0.0,0.0,0.0,0.0,0.0,0.0,0.0,0.0,0.0,0.0,0.0,0.0,0.0,0.0,0.0,0.0,0.0,0.0,0.0,0.0,0.0,0.0,0.0,0.0,0.0,0.0,0.0,0.0,0.0,0.0,0.0,0.0,0.0,0.0,0.0,0.0,0.0,0.0,0.0,0.0,0.0,0.0,0.0,0.0,0.0,0.0,0.0,0.0,0.0,0.0,0.0,0.0,0.0,0.0,0.0,0.0,0.0,0.0,0.0,0.0,0.0,0.0,0.0,0.0,0.0,0.0,0.0,0.0,0.0,0.0,0.0,0.0,0.0,0.0,0.0,0.0,0.0,0.0,0.0,0.0,0.0,0.0,0.0,0.0,0.0,0.0,0.0,0.0,2.7428,2.9894,3.1699,3.2159,3.2218,3.2042,3.1533,2.9913,2.8352,0.0,0.0,0.0,0.0,0.0,0.0,0.0,0.0,0.0,0.0,0.0,0.0,0.0,0.0,0.0,0.0,0.0,0.0,0.0,0.0,0.0,0.0,0.0,0.0,0.0,0.0,0.0,0.0,0.0,0.0,0.0,0.0,0.0,0.0,0.0,0.0,0.0,0.0,0.0,0.0,0.0,0.0,0.0,0.0,0.0,0.0,0.0,0.0,0.0,0.0,0.0,0.0,0.0,0.0,0.0,0.0,0.0,0.0,0.0,0.0,0.0,0.0,0.0,0.0,0.0,0.0,0.0,0.0,0.0,0.0,0.0,0.0,0.0,0.0,0.0,0.0,0.0,0.0,0.0,0.0,0.0,0.0,0.0,0.0,0.0,0.0,0.0,0.0,0.0,0.0,0.0,0.0,0.0,0.0,0.0,0.0,0.0,0.0,0.0,0.0,0.0,0.0,0.0,2.793,3.0625,3.2578,3.3008,3.2793,3.2559,3.2422,3.082,2.9141,2.7604,0.0,0.0,0.0,0.0,0.0,0.0,0.0,0.0,0.0,0.0,0.0,0.0,0.0,0.0,0.0,0.0,0.0,0.0,0.0,0.0,0.0,0.0,0.0,0.0,0.0,0.0,0.0,0.0,0.0,0.0,0.0,0.0,0.0,0.0,0.0,0.0,0.0,0.0,0.0,0.0,0.0,0.0,0.0,0.0,0.0,0.0,0.0,0.0,0.0,0.0,0.0,0.0,0.0,0.0,0.0,0.0,0.0,0.0,0.0,0.0,0.0,0.0,0.0,0.0,0.0,0.0,0.0,0.0,0.0,0.0,0.0,0.0,0.0,0.0,0.0,0.0,0.0,0.0,0.0,0.0,0.0,0.0,0.0,0.0,0.0,0.0,0.0,0.0,0.0,0.0,0.0,0.0,0.0,0.0,0.0,0.0,0.0,0.0,0.0,0.0,0.0,0.0,2.8613,3.1289,3.334,3.4121,3.3809,3.3418,3.3066,3.1777,3.0098,2.8073,0.0,0.0,0.0,0.0,0.0,0.0,0.0,0.0,0.0,0.0,0.0,0.0,0.0,0.0,0.0,0.0,0.0,0.0,0.0,0.0,0.0,0.0,0.0,0.0,0.0,0.0,0.0,0.0,0.0,0.0,0.0,0.0,0.0,0.0,0.0,0.0,0.0,0.0,0.0,0.0,0.0,0.0,0.0,0.0,0.0,0.0,0.0,0.0,0.0,0.0,0.0,0.0,0.0,0.0,0.0,0.0,0.0,0.0,0.0,0.0,0.0,0.0,0.0,0.0,0.0,0.0,0.0,0.0,0.0,0.0,0.0,0.0,0.0,0.0,0.0,0.0,0.0,0.0,0.0,0.0,0.0,0.0,0.0,0.0,0.0,0.0,0.0,0.0,0.0,0.0,0.0,0.0,0.0,0.0,0.0,0.0,0.0,0.0,0.0,0.0,0.0,0.0,2.95,3.2012,3.4108,3.5391,3.5098,3.4492,3.364,3.2754,3.1182,2.8633,0.0,0.0,0.0,0.0,0.0,0.0,0.0,0.0,0.0,0.0,0.0,0.0,0.0,0.0,0.0,0.0,0.0,0.0,0.0,0.0,0.0,0.0,0.0,0.0,0.0,0.0,0.0,0.0,0.0,0.0,0.0,0.0,0.0,0.0,0.0,0.0,0.0,0.0,0.0,0.0,0.0,0.0,0.0,0.0,0.0,0.0,0.0,0.0,0.0,0.0,0.0,0.0,0.0,0.0,0.0,0.0,0.0,0.0,0.0,0.0,2.6523,2.5312,0.0,0.0,0.0,0.0,0.0,0.0,0.0,0.0,0.0,0.0,0.0,0.0,0.0,0.0,0.0,0.0,0.0,0.0,0.0,0.0,0.0,0.0,0.0,0.0,0.0,0.0,0.0,0.0,0.0,0.0,0.0,0.0,0.0,0.0,0.0,0.0,0.0,0.0,0.0,0.0,3.0419,3.3457,3.5703,3.6362,3.5996,3.5527,3.5019,3.3555,3.1836,2.9922,2.7773,0.0,0.0,0.0,0.0,0.0,0.0,0.0,0.0,0.0,0.0,0.0,0.0,0.0,0.0,0.0,0.0,0.0,0.0,0.0,0.0,0.0,0.0,0.0,0.0,0.0,0.0,0.0,0.0,0.0,0.0,0.0,0.0,0.0,0.0,0.0,0.0,0.0,0.0,0.0,0.0,0.0,0.0,0.0,0.0,0.0,0.0,0.0,0.0,0.0,0.0,0.0,0.0,0.0,0.0,0.0,0.0,0.0,0.0,0.0,2.8906,2.7461,0.0,0.0,0.0,0.0,0.0,0.0,0.0,0.0,0.0,0.0,0.0,0.0,0.0,0.0,0.0,0.0,0.0,0.0,0.0,0.0,0.0,0.0,0.0,0.0,0.0,0.0,0.0,0.0,0.0,0.0,0.0,0.0,0.0,0.0,0.0,0.0,0.0,0.0,0.0,0.0,3.1279,3.4141,3.6348,3.7187,3.6894,3.6387,3.5742,3.4687,3.3203,3.1269,2.9121,0.0,0.0,0.0,0.0,0.0,0.0,0.0,0.0,0.0,0.0,0.0,0.0,0.0,0.0,0.0,0.0,0.0,0.0,0.0,0.0,0.0,0.0,0.0,0.0,0.0,0.0,0.0,0.0,0.0,0.0,0.0,0.0,0.0,0.0,0.0,0.0,0.0,0.0,0.0,0.0,0.0,0.0,0.0,0.0,0.0,0.0,0.0,0.0,0.0,0.0,0.0,0.0,0.0,3.3,3.3574,3.4121,3.4551,3.4746,3.4622,3.1719,3.0391,3.0185,2.9051,0.0,0.0,0.0,0.0,0.0,0.0,0.0,0.0,0.0,0.0,0.0,0.0,0.0,0.0,0.0,0.0,0.0,0.0,0.0,0.0,0.0,0.0,3.1309,3.123,3.2363,3.2461,2.875,0.0,0.0,0.0,0.0,0.0,0.0,0.0,0.0,0.0,0.0,0.0,3.2257,3.4766,3.6723,3.7777,3.7617,3.709,3.6274,3.5781,3.4668,3.2765,3.0644,2.8528,0.0,0.0,0.0,0.0,0.0,0.0,0.0,0.0,0.0,0.0,0.0,0.0,0.0,0.0,0.0,0.0,0.0,0.0,0.0,0.0,0.0,0.0,0.0,0.0,0.0,0.0,0.0,0.0,0.0,0.0,0.0,0.0,2.2442,2.3928,0.0,0.0,0.0,0.0,0.0,0.0,0.0,0.0,0.0,0.0,0.0,0.0,0.0,3.1836,3.341,3.4629,3.5279,3.5449,3.6992,3.7438,3.6797,3.7226,3.7386,3.7347,3.6899,0.0,3.2871,3.2344,0.0,0.0,0.0,0.0,0.0,0.0,0.0,0.0,0.0,0.0,0.0,0.0,0.0,0.0,0.0,0.0,0.0,0.0,0.0,0.0,0.0,0.0,3.5756,3.5332,3.5723,3.5835,3.4492,3.171,2.8992,2.7467,2.6724,2.5957,0.0,0.0,0.0,0.0,0.0,0.0,3.3586,3.6074,3.7699,3.7874,3.7835,3.7621,3.7168,3.6406,3.5488,3.4434,3.2746,3.0967,2.9168,2.7461,0.0,0.0,0.0,0.0,0.0,0.0,0.0,0.0,0.0,0.0,0.0,0.0,0.0,0.0,0.0,0.0,0.0,0.0,0.0,0.0,0.0,0.0,0.0,0.0,0.0,0.0,0.0,0.0,0.0,2.2132,2.4553,2.6438,2.7571,2.7715,0.0,0.0,0.0,0.0,0.0,0.0,0.0,0.0,0.0,3.3952,3.4512,3.5469,3.6934,3.8008,3.8672,3.8926,3.9922,4.0312,4.0176,4.0333,4.0411,4.0411,4.0411,3.9533,3.7969,3.584,3.3984,3.2433,0.0,0.0,0.0,0.0,3.1699,3.2012,3.3418,3.3594,3.3184,3.3066,0.0,0.0,0.0,0.0,0.0,0.0,0.0,3.2324,3.4251,3.5717,3.691,3.7617,3.8144,3.8301,3.7676,3.5996,3.386,3.1103,3.0254,2.9336,2.7272,2.6914,0.0,0.0,0.0,3.3008,3.4922,3.6992,3.8281,3.8281,3.8281,3.8125,3.7676,3.7269,3.6586,3.5508,3.4277,3.2863,3.1123,2.959,2.7988,0.0,0.0,0.0,0.0,0.0,0.0,0.0,0.0,0.0,0.0,0.0,0.0,0.0,0.0,0.0,0.0,0.0,0.0,0.0,0.0,0.0,0.0,0.0,0.0,0.0,0.0,0.0,0.0,2.4821,2.6814,2.8472,2.9889,3.0126,0.0,0.0,0.0,0.0,0.0,0.0,3.3449,3.4277,3.5586,3.7441,3.8105,3.9062,4.0332,4.0996,4.1504,4.1816,4.2129,4.2441,4.2713,4.2713,4.2713,4.2713,4.2713,4.2578,4.2031,3.8865,3.6777,3.5625,3.5013,3.4531,3.4336,3.5098,3.5312,3.5522,3.7324,3.7539,3.6914,3.6367,3.5527,3.4427,3.2559,0.0,0.0,0.0,0.0,3.4114,3.6695,3.7438,3.7907,3.9355,3.998,4.0137,3.9785,3.9297,3.793,3.459,3.3769,3.2793,3.0215,2.9941,0.0,3.0693,0.0,3.4512,3.6133,3.7656,3.8611,3.8611,3.8611,3.8437,3.8125,3.7952,3.7484,3.6528,3.5684,3.4531,3.3078,3.1866,3.0332,2.8542,0.0,0.0,0.0,0.0,0.0,0.0,0.0,0.0,0.0,0.0,0.0,0.0,0.0,0.0,0.0,0.0,0.0,0.0,0.0,0.0,0.0,0.0,0.0,0.0,0.0,0.0,0.0,0.0,0.0,2.9634,3.215,0.0,0.0,0.0,0.0,3.3094,3.4733,3.6113,3.6992,3.7887,3.9297,4.1445,4.1543,4.2187,4.3457,4.3516,4.3555,4.3574,4.3594,4.3613,4.3633,4.3633,4.3633,4.3633,4.3633,4.3633,4.3398,4.0801,3.9199,3.8298,3.7066,3.6558,3.6597,3.7012,3.7676,3.8513,3.9434,3.9746,3.9766,4.0117,3.8555,3.6616,3.6855,3.5781,0.0,0.0,3.6406,3.7363,3.8711,3.9394,3.9961,4.0898,4.1132,4.1152,4.1113,4.041,3.9277,3.7422,3.6426,3.541,3.4055,0.0,3.334,3.3821,3.4668,3.5762,3.707,3.8008,3.8611,3.8611,3.8611,3.8591,3.8591,3.8164,3.7855,3.7796,3.7031,3.6206,3.5273,3.4388,3.2922,3.0762,2.9453,0.0,0.0,0.0,0.0,0.0,0.0,0.0,0.0,0.0,0.0,0.0,0.0,0.0,0.0,0.0,0.0,0.0,0.0,0.0,0.0,0.0,0.0,0.0,0.0,0.0,0.0,0.0,0.0,3.3581,3.5655,0.0,3.5228,3.5684,3.6269,3.6699,3.8086,3.9377,4.0527,4.1152,4.209,4.3437,4.3476,4.3828,4.4551,4.4551,4.4687,4.498,4.498,4.5117,4.5371,4.5098,4.498,4.4961,4.4687,4.4551,4.4473,4.3281,4.2266,4.1445,4.0664,4.0371,4.0391,4.0547,4.0801,4.1094,4.1406,4.1348,4.1094,4.0976,4.0117,3.918,3.9336,3.875,3.8223,3.9101,3.9355,3.9668,4.0937,4.1191,4.1269,4.1836,4.1973,4.1973,4.1973,4.1738,4.1348,4.0684,3.9004,3.7344,3.6328,3.625,3.6255,3.6172,3.6894,3.7715,3.8437,3.8789,3.8887,3.865,3.8611,3.8457,3.8184,3.8281,3.8105,3.7559,3.7246,3.6699,3.584,3.5234,3.4043,3.2148,3.1387,2.9774,0.0,0.0,0.0,0.0,0.0,0.0,0.0,0.0,0.0,0.0,0.0,0.0,0.0,0.0,0.0,0.0,0.0,0.0,0.0,0.0,0.0,0.0,0.0,0.0,0.0,3.3204,3.5278,3.6712,3.8652,3.9434,3.8337,3.8945,3.9687,4.0273,4.1387,4.248,4.3476,4.3926,4.4492,4.5234,4.5254,4.5449,4.5879,4.5879,4.6035,4.6352,4.6352,4.6465,4.6719,4.6445,4.6352,4.6308,4.6016,4.5879,4.5859,4.543,4.4902,4.4277,4.3262,4.2851,4.2871,4.3027,4.3045,4.3105,4.3221,4.3027,4.2637,4.2363,4.1953,4.1562,4.1426,4.0665,4.0043,4.1269,4.0819,4.0388,4.1988,4.2187,4.207,4.2363,4.2539,4.2598,4.2421,4.2499,4.2598,4.2421,4.0937,3.9434,3.873,3.8711,3.8616,3.8242,3.8652,3.9121,3.9394,3.9434,3.9258,3.8828,3.8789,3.8613,3.8184,3.8144,3.7969,3.7539,3.7109,3.6621,3.6001,3.5469,3.4473,3.3027,3.2012,3.0478,2.8327,0.0,0.0,0.0,0.0,0.0,0.0,0.0,0.0,0.0,0.0,0.0,0.0,0.0,0.0,0.0,0.0,0.0,0.0,0.0,0.0,0.0,0.0,0.0,3.4271,3.7129,3.9121,3.8826,4.0899,4.2068,4.1328,4.1852,4.2647,4.3482,4.4337,4.5016,4.5487,4.5939,4.6391,4.682,4.6884,4.7187,4.7662,4.7617,4.7682,4.7637,4.7637,4.7637,4.7637,4.7682,4.7617,4.7598,4.7623,4.7578,4.7539,4.7129,4.6909,4.6694,4.4609,4.3769,4.3828,4.4277,4.4433,4.4473,4.4902,4.4723,4.4288,4.4288,4.3935,4.3446,4.3038,4.1429,4.0019,4.1771,4.0706,3.9568,4.1796,4.2379,4.2379,4.246,4.2832,4.3027,4.2598,4.2832,4.2988,4.2558,4.2129,4.1699,4.1328,4.0859,4.043,4.0019,3.9941,0.0,3.9922,3.9902,3.9726,3.9277,3.9219,3.9043,3.865,3.7832,3.75,3.7816,3.6684,3.6035,3.5982,3.5176,3.4336,3.3464,3.1367,3.0078,2.9676,0.0,0.0,0.0,0.0,0.0,0.0,0.0,0.0,0.0,0.0,0.0,0.0,0.0,0.0,0.0,0.0,0.0,0.0,0.0,0.0,0.0,3.6426,3.8184,3.7851,3.916,4.082,4.2578,4.2057,4.1647,4.2057,4.0605,3.9843,4.0414,4.0655,4.0976,4.1464,4.3342,4.4598,4.5049,4.6861,4.8066,4.8542,4.8561,4.8672,4.9004,4.9004,4.9004,4.8984,4.8698,4.8385,4.8027,4.7715,4.7578,4.7578,4.7441,4.7402,4.7285,4.6055,4.541,4.5156,4.5316,4.5117,4.4922,4.5351,4.4062,4.2248,4.2248,4.0912,3.9357,3.9192,3.9997,4.0643,3.9357,3.9856,4.0903,4.1519,4.1689,4.2132,4.3878,4.4352,4.4453,4.4294,4.416,4.4004,4.3887,4.3242,4.2598,4.2148,4.1719,4.1406,4.1289,4.0742,4.0351,4.0351,4.0078,3.9844,3.9726,3.9707,3.9394,3.8669,3.8633,3.8203,3.709,3.668,3.6348,3.6001,3.5488,3.5098,3.4844,3.3027,3.1905,0.0,0.0,0.0,0.0,0.0,0.0,0.0,0.0,0.0,0.0,0.0,0.0,0.0,0.0,0.0,0.0,0.0,0.0,0.0,0.0,0.0,0.0,3.8535,3.9796,4.0229,4.0718,4.1605,4.3116,4.1744,4.0853,4.1331,4.0125,3.9492,3.9883,4.0063,4.0309,4.0766,4.3278,4.4818,4.5099,4.7683,4.916,4.9461,4.9461,4.9551,4.9805,4.9805,4.9805,4.9785,4.9531,4.9324,4.9023,4.8769,4.8672,4.8652,4.8476,4.8496,4.86,0.0,0.0,0.0,0.0,4.4712,4.4348,4.3533,4.2192,4.077,4.077,3.9824,3.858,3.8223,3.85,3.8658,3.7914,3.8805,4.0185,4.1163,4.2136,4.3251,4.4679,4.5176,4.5254,4.5016,4.498,4.4883,4.4687,4.4238,0.0,4.332,4.2598,4.207,4.207,4.1641,4.125,4.1074,4.084,4.0566,4.0195,4.0156,3.9883,3.918,3.8848,0.0,0.0,0.0,3.6113,3.5488,3.543,0.0,0.0,0.0,0.0,0.0,3.3476,0.0,0.0,3.2871,3.2695,0.0,0.0,0.0,0.0,0.0,0.0,0.0,0.0,0.0,0.0,0.0,0.0,0.0,0.0,0.0,0.0,3.938,3.9649,4.132,4.1381,4.1389,4.1657,4.0436,3.9602,3.97,3.9642,3.9756,4.0126,4.0414,4.0735,4.1089,4.3722,0.0,0.0,0.0,4.9969,5.0312,5.0312,5.0312,5.0312,5.0312,5.0293,5.0254,5.0254,5.0215,5.0176,5.0176,5.0176,5.0156,4.9766,4.9636,4.9574,4.7986,4.7367,4.703,4.4397,4.3385,4.299,4.0775,0.0,0.0,3.9503,3.9315,3.8967,3.8292,3.6823,3.5634,3.6802,3.7615,3.8641,4.0711,4.3081,4.495,4.5227,4.5605,4.5781,4.5391,4.5547,4.5625,4.5254,4.5098,4.4902,4.4531,4.3418,4.2518,4.25,4.2421,4.2245,4.1914,4.1875,4.1562,4.0723,4.0664,0.0,4.0,3.8887,3.832,3.8591,3.7051,3.5801,3.4961,3.5371,3.5254,3.4544,3.4883,3.5508,3.6352,3.6816,3.7441,3.8108,3.498,3.4375,0.0,0.0,0.0,0.0,0.0,0.0,0.0,0.0,0.0,0.0,0.0,0.0,0.0,0.0,0.0,3.545,3.717,3.8746,3.9911,3.8893,3.8765,4.0848,3.9035,3.79,3.8447,3.6694,3.5466,3.5572,3.5642,3.5698,3.5805,3.8298,4.0901,4.3422,4.6025,4.857,5.1143,5.1191,5.1191,5.1191,5.1191,0.0,5.0683,5.0683,5.0508,5.0176,5.0176,5.0176,5.0176,5.0098,4.8805,4.6832,4.6144,4.5907,4.5557,4.285,4.1486,4.0907,4.0778,3.9021,3.6915,3.6915,3.5606,3.3983,3.3822,3.4857,0.0,3.4058,3.6535,3.9792,4.0255,4.2204,4.4601,4.6625,4.7148,4.7187,4.7109,4.6621,4.6152,4.6074,4.5488,4.5,4.4922,4.4101,4.334,4.3008,4.2656,4.2362,4.2284,4.2265,4.2109,4.1601,4.1543,4.125,4.0469,4.0176,3.9609,3.8669,3.7617,3.6816,3.6343,3.6699,3.7012,3.7168,3.7266,3.7734,3.8594,3.9043,3.9531,3.9943,3.8613,3.834,0.0,0.0,0.0,0.0,0.0,0.0,0.0,0.0,0.0,0.0,0.0,3.2089,3.3331,0.0,3.5054,3.6806,3.7196,3.7554,3.8473,3.6898,3.6549,3.8915,3.7153,3.586,3.6235,3.5338,3.4763,3.4763,3.503,3.5191,3.5191,3.769,3.9847,4.1446,4.5477,4.838,4.9916,5.1361,5.207,5.207,5.1855,5.1641,5.1445,5.1211,5.0996,5.0801,5.0801,5.006,4.8697,4.7296,4.5829,4.4259,4.2923,4.2937,4.3448,4.0799,3.9556,3.9078,3.7978,3.6554,3.5267,3.5267,3.4353,3.3236,3.3026,3.3737,3.429,3.2962,3.527,3.8135,3.8135,4.0954,4.4087,4.5357,4.6638,4.7578,4.7578,4.707,4.6621,4.6621,4.6094,4.5605,4.5391,4.498,4.4473,4.3828,4.3555,4.3242,4.2812,4.2754,4.2598,4.2168,4.2109,4.1933,4.1465,4.1289,4.0801,3.9959,3.9473,3.9043,3.8613,3.9004,3.9238,3.9182,3.9434,3.9766,4.0195,4.0644,4.1074,4.1426,4.1465,4.1348,0.0,0.0,0.0,0.0,0.0,0.0,0.0,0.0,3.1479,3.2854,3.2522,3.2473,3.4086,3.4721,3.577,3.8009,3.7019,3.617,3.6873,3.5494,3.5055,3.6911,3.5581,3.4536,3.4643,3.5084,3.5364,3.5364,3.5805,3.6072,3.6072,3.8155,3.9566,4.0082,4.4495,4.7107,4.7565,5.0353,5.1704,5.1677,5.1863,5.1953,5.1933,5.1026,5.0627,5.0559,5.0051,4.8589,4.642,4.3673,4.2376,4.186,3.9453,3.9432,4.0507,3.8406,3.76,3.7251,3.5109,3.4362,3.4322,3.4322,3.4162,3.3921,3.3668,3.3427,3.3187,3.3009,3.4702,3.6587,3.6513,3.986,4.3377,4.3862,4.5554,4.7205,4.7742,4.748,4.7123,4.7123,4.6777,4.6308,4.5976,4.5859,4.5508,4.4648,4.4512,4.4258,4.3555,4.3379,4.3164,4.2674,4.2557,4.2479,4.2401,4.2109,4.1738,4.1328,4.1328,4.1094,4.0664,4.0976,4.1055,4.0781,4.1191,4.1504,4.1699,4.209,4.2519,4.2909,4.373,4.3633,2.9735,3.0028,3.1133,3.3117,3.2201,3.1722,0.0,0.0,3.3156,3.467,3.4322,3.3769,3.3993,3.3457,3.3119,3.3661,3.4,3.4382,3.5028,3.4891,3.5001,3.5735,3.5389,3.5297,3.5819,3.5939,3.5979,3.5979,3.6032,3.6072,3.6072,3.6383,3.7633,4.0029,4.0703,4.2126,4.4288,4.7006,4.8203,4.8025,5.0362,5.1504,5.1406,4.8971,4.7829,4.773,4.5284,4.4026,4.3571,4.0836,3.9871,3.9718,3.6824,3.5931,3.6266,3.5756,3.5394,3.5112,3.4866,3.4536,3.4322,3.4322,3.4295,3.4269,3.4229,3.4202,3.4162,3.4135,3.6001,3.7914,3.7616,3.968,4.2355,4.4364,4.5093,4.5907,4.8231,4.8379,4.8066,4.8066,4.7402,4.6792,4.6753,4.6484,4.5937,4.5035,4.4918,4.4922,4.4824,4.4492,4.4082,4.3613,4.3223,4.2851,4.2421,4.2343,4.2168,4.1758,4.1738,4.1543,4.1152,4.1191,4.1328,4.1641,4.207,4.2656,4.3418,4.3887,4.4336,4.4704,4.5234,4.5,3.2969,3.2131,3.1695,3.3468,3.3002,3.2591,3.4542,3.3749,3.2957,3.4281,3.3669,3.298,3.3342,3.3369,3.3531,3.3986,3.4376,3.4736,3.4977,3.5164,3.5297,3.5364,3.5418,3.5618,3.6086,3.6219,3.6326,3.6326,3.6473,3.658,3.658,3.658,3.7073,3.8218,3.9734,4.1909,4.4752,4.7142,4.9166,5.0886,4.9878,4.9406,4.9337,4.6358,4.4983,4.4832,4.215,4.099,4.0733,3.8054,3.7005,3.696,3.5705,3.5271,3.5364,3.5244,3.5124,3.5017,3.5017,3.4937,3.483,3.483,3.471,3.4576,3.4576,3.4456,3.4322,3.4322,3.5065,3.5879,3.5753,3.7637,4.0271,4.2792,4.4517,4.632,4.8718,4.8906,4.8516,4.8262,4.7715,4.7305,4.7305,4.6953,4.6543,4.6148,4.5723,4.5312,4.5058,4.4863,4.4687,4.4492,4.4316,4.4141,4.3923,4.3904,4.3826,4.3691,4.3672,4.3594,4.3418,4.3418,4.3496,4.3672,4.3848,4.4079,4.4473,4.4922,4.5351,4.5781,4.6211,4.6348,3.3984,3.2793,3.1825,3.3312,3.3204,3.2924,3.3808,3.2957,3.2269,3.3266,3.2896,3.2505,3.3013,3.3601,3.4202,3.479,3.5124,3.5311,3.5311,3.5431,3.5431,3.5217,3.5311,3.5538,3.5912,3.6286,3.654,3.662,3.6779,3.6885,3.6885,3.6885,3.6845,3.6779,3.8627,4.0657,4.2758,4.5079,4.7345,4.9478,4.7615,4.6726,4.6607,4.3586,4.1808,4.0939,3.9011,3.8158,3.8002,3.6019,3.5244,3.5311,3.5231,3.5244,3.5311,3.5231,3.5191,3.5191,3.5191,3.5191,3.5191,3.5191,3.5057,3.4936,3.4936,3.4736,3.4563,3.4563,3.4563,3.4549,3.4469,3.5842,3.8114,4.142,4.3673,4.5879,4.9039,4.9355,4.8945,4.8633,4.8125,4.7754,4.7754,4.7402,4.7109,4.7109,4.6582,4.5996,4.5449,4.5273,4.5156,4.4996,4.4977,4.4977,4.4977,4.4977,4.4977,4.4977,4.4977,4.4977,4.4977,4.4977,4.5035,4.5195,4.5312,4.5387,4.5504,4.5996,4.6348,4.666,4.709,4.7519,3.0963,3.1055,3.1739,3.3085,3.2649,3.229,3.3695,3.2563,3.1437,3.2026,3.2581,3.3053,3.3324,3.3857,3.4496,3.5084,3.5431,3.5618,3.5618,3.5378,3.5204,3.5191,3.495,3.5017,3.5591,3.6166,3.662,3.6845,3.6885,3.6885,3.6885,3.6885,3.6794,3.654,3.6568,3.6396,3.5939,3.8599,3.9874,3.978,4.2233,4.3436,4.3335,4.0646,3.795,3.5454,3.5349,3.5296,3.5296,3.5243,3.5364,3.5538,3.5311,3.5364,3.5578,3.5297,3.5191,3.5191,3.5191,3.5191,3.5191,3.5191,3.5191,3.5177,3.5177,3.5177,3.5164,3.5164,3.5164,3.511,3.483,3.4854,3.613,4.1036,4.2245,4.3771,4.9024,4.9824,4.9465,4.9445,4.8789,4.8183,4.8183,4.7832,4.7558,4.7558,4.7539,4.7226,4.6367,4.5918,4.5488,4.5035,4.4977,4.4977,4.4977,4.4977,4.4977,4.4977,4.4977,4.4977,4.4977,4.4977,4.5234,4.5688,4.6055,4.6465,4.6831,4.7305,4.7519,4.7558,4.7969,4.8398,3.1691,3.1313,3.1017,3.2719,3.2264,3.1615,3.2329,3.23,3.226,3.2599,3.2741,3.2835,3.308,3.3454,3.3908,3.4523,3.5191,3.5698,3.5899,3.6006,3.5778,3.5004,3.5164,3.5271,3.507,3.5578,3.6126,3.662,3.6647,3.6727,3.6885,3.6885,3.6794,3.6513,3.65,3.7209,3.8677,3.9342,4.0627,4.24,4.1202,3.9668,3.7898,3.6988,3.6058,3.5191,3.5191,3.5191,3.5191,3.5191,3.5257,3.5338,3.5231,3.5257,3.5324,3.5231,3.5191,3.5191,3.5191,3.5191,3.5191,3.5191,3.5191,3.5191,3.5191,3.5191,3.5191,3.5191,3.5191,3.5177,3.5084,3.5057,3.6388,4.1677,4.2905,4.4338,4.9502,5.0469,5.0293,5.0019,4.9492,4.9036,4.9036,4.8476,4.7891,4.7617,4.7578,4.7363,4.6797,4.6601,4.6348,4.5918,4.607,4.6245,4.6245,4.6562,4.6719,4.6719,4.6719,4.6719,4.6719,4.6719,4.6797,4.6978,4.707,4.7226,4.7363,4.7793,4.8144,4.8483,4.8887,4.9316,3.1465,3.113,3.0651,3.2162,3.2125,3.177,3.2064,3.2474,3.2808,3.2933,3.2714,3.2487,3.2639,3.2652,3.2973,3.4002,3.4723,3.5378,3.5992,3.6139,3.5872,3.5017,3.5151,3.5177,3.4855,3.5191,3.5765,3.6473,3.65,3.6592,3.6885,3.6885,3.6794,3.6513,3.65,3.7264,3.8782,3.8412,3.9128,4.08,3.8803,3.6935,3.5191,3.5191,3.5191,3.5191,3.5191,3.5191,3.5191,3.5191,3.5191,3.5191,3.5191,3.5191,3.5191,3.5191,3.5191,3.5191,3.5191,3.5191,3.5191,3.5191,3.5191,3.5191,3.5191,3.5191,3.5191,3.5191,3.5191,3.5454,3.6425,3.6674,3.8054,4.347,4.4782,4.5883,5.0135,5.0918,5.0723,5.0449,4.9922,4.9523,4.9726,4.9297,4.8769,4.834,4.8281,4.8008,4.7266,4.7168,4.7051,4.6797,4.6992,4.7168,4.7168,4.7422,4.7578,4.7578,4.7578,4.7578,4.7578,4.7715,4.7871,4.8073,4.8203,4.8359,4.8516,4.8769,4.9062,4.9382,4.9629,5.0,3.0333,3.0525,3.0694,3.155,3.2193,3.2688,3.2919,3.2973,3.2973,3.2933,3.2438,3.1998,0.0,3.1543,3.177,3.3534,3.4122,3.4776,3.5952,3.5872,3.5578,0.0,0.0,0.0,0.0,0.0,3.5551,3.6393,3.6473,3.662,3.6845,3.6885,3.6794,3.6513,3.6513,3.638,3.6072,3.5792,3.5511,3.5244,3.5244,3.5244,3.5244,3.5244,3.5231,3.5217,3.5217,3.5204,3.5191,3.5191,3.5191,3.5191,3.5191,3.5191,3.5191,3.5191,3.5191,3.5191,3.5191,3.5191,3.5191,3.5191,3.5191,3.5191,3.5191,3.5191,3.5191,3.5191,3.5191,3.5809,3.8611,3.9322,4.0698,4.612,4.7383,4.8126,5.0822,5.1094,5.0801,5.0801,5.0137,4.9687,5.0078,5.0156,5.0039,4.9629,4.9523,4.9082,4.7773,4.7617,4.7598,4.7578,4.7598,4.7617,4.7617,4.7656,4.7676,4.7676,4.7695,4.7715,4.7715,4.8086,4.8496,4.8972,4.9336,4.9766,5.0176,5.0176,5.0195,5.0215,5.0234,5.0469,3.0164,3.1069,3.177,3.226,3.2648,3.2942,3.2959,3.2973,3.2853,3.2412,3.1517,3.0721,3.0234,3.0568,3.1343,3.2714,3.4068,3.5378,3.654,3.6592,3.6285,3.5605,0.0,3.5538,3.4882,3.503,3.5378,3.5819,3.6059,3.6313,3.6607,3.6779,3.6794,3.6513,3.6672,3.658,3.6072,3.6006,3.5925,3.5845,3.5845,3.5845,3.5845,3.5845,3.5725,3.5511,3.5511,3.5391,3.5191,3.5191,3.5191,3.5191,3.5191,3.5191,3.5191,3.5191,3.5191,3.5191,3.5191,3.5191,3.5191,3.5191,3.5191,3.5191,3.5191,3.5191,3.5191,3.5191,3.5191,3.5809,3.8611,3.9322,4.0698,4.612,4.7383,4.8126,5.0822,5.1094,5.0801,5.0801,5.0371,4.9941,4.9726,4.9961,5.0137,5.0039,5.0019,4.9531,4.8223,4.8047,4.793,4.7617,4.7851,4.8047,4.8047,4.8652,4.9023,4.9023,4.9336,4.9558,4.9558,4.9609,4.9726,4.9891,4.9961,5.0058,5.0176,5.0176,5.0332,5.0644,5.0957,5.1348,3.0694,3.1797,3.2692,3.2781,3.3116,3.3213,3.2607,3.2447,3.2091,3.0982,3.002,2.9249,2.866,2.9232,3.0261,3.1617,3.3374,3.507,3.638,3.6632,3.6525,0.0,3.6166,0.0,3.5217,3.5404,3.5538,3.5444,3.5832,3.6206,3.65,3.6739,3.6805,3.6687,3.6805,3.6727,3.6273,3.6259,3.6206,3.6072,3.6072,3.6072,3.6072,3.6072,3.5979,3.5819,3.5819,3.5725,3.5578,3.5444,3.5391,3.5391,3.5391,3.5391,3.5404,3.5538,3.5578,3.5578,3.5578,3.5578,3.5538,3.5284,3.5191,3.5191,3.5191,3.5191,3.5191,3.5191,3.6072,3.7638,4.0338,4.1962,4.3925,4.8126,4.9149,4.9561,5.1085,5.125,5.1035,5.084,5.0762,5.0586,5.0156,5.0293,5.0391,5.0215,5.0019,4.9629,4.8887,4.8945,4.8984,4.875,4.8926,4.9062,4.9062,4.9531,4.9805,4.9805,5.0039,5.0176,5.0176,5.0351,5.0449,5.0449,5.0644,5.0723,5.0723,5.0918,5.1133,5.1367,5.1797,5.2129,3.1724,3.2692,3.339,3.3173,3.344,3.34,3.2032,3.1564,3.0902,2.9161,2.8323,2.7737,2.7229,2.7896,2.9058,3.0648,3.2585,3.4429,3.5965,3.6366,3.65,3.65,3.6473,3.6233,3.5685,3.5859,3.5805,3.5284,3.5792,3.6219,3.6433,3.6754,3.6885,3.6885,3.6885,3.6779,3.658,3.658,3.6433,3.6193,3.6193,3.6193,3.6193,3.6193,3.6166,3.6126,3.6126,3.6086,3.5992,3.5738,3.5551,3.5578,3.5618,3.5578,3.5672,3.5965,3.6072,3.6072,3.6072,3.6072,3.5992,3.5471,3.5311,3.5311,3.5271,3.5508,3.5811,3.577,3.769,4.0441,4.3166,4.5602,4.8095,5.0774,5.1377,5.1377,5.1377,5.1338,5.1182,5.0801,5.1055,5.1162,5.0801,5.0762,5.0664,5.0234,4.9863,4.9562,4.9562,4.9902,5.0117,5.0176,5.0176,5.0176,5.0176,5.0234,5.0273,5.0273,5.0312,5.0351,5.0351,5.0703,5.0898,5.0898,5.125,5.1377,5.1377,5.1875,5.209,5.209,5.2578,5.2793,3.2959,3.3467,3.3801,3.3748,3.3427,3.2879,3.1938,3.0774,0.0,2.8203,2.7122,2.6346,2.6238,2.7336,2.8995,3.1203,3.2853,3.4563,3.65,3.662,3.65,3.65,3.6286,3.6006,3.5658,3.5672,3.5658,3.5565,3.6099,3.6353,3.6166,3.6647,3.6885,3.6885,3.6885,3.6901,3.6805,3.6805,3.6834,3.6739,3.6739,3.6739,3.6739,3.6739,3.6647,3.6433,3.6433,3.6153,3.5698,3.5591,3.5485,3.5297,3.5538,3.5578,3.5672,3.5965,3.6072,3.6072,3.6072,3.6072,3.6059,3.6006,3.5925,3.5872,3.5631,3.7103,3.8897,3.8633,4.0528,4.3217,4.5953,4.7017,4.8095,5.0774,5.1377,5.1377,5.1377,5.1152,5.0781,5.0371,5.0625,5.0781,5.0351,5.0586,5.0664,5.0234,5.0117,5.0058,5.0058,4.9824,4.9785,5.0137,5.0176,5.0176,5.0176,5.0488,5.0703,5.0703,5.1016,5.1162,5.1162,5.1289,5.1328,5.1328,5.1338,5.1377,5.1377,5.1875,5.209,5.2109,5.294,5.3292,3.3307,3.3868,3.4269,3.3961,3.3547,3.2692,3.0742,0.0,0.0,2.6279,2.5438,2.5034,2.4887,2.6185,2.7791,2.9339,3.0982,3.2879,3.5244,3.5458,3.5645,3.6433,3.638,3.6126,3.5672,3.5578,3.5511,3.5418,3.5952,3.6286,3.6299,3.6659,3.6885,3.6885,3.6885,3.6885,3.6885,3.6885,3.6885,3.6885,3.6885,3.6885,3.6885,3.6885,3.6805,3.6727,3.6727,3.6525,3.6245,3.6153,3.6006,3.5885,3.6032,3.6086,3.6126,3.6433,3.6513,3.6513,3.6513,3.6513,3.6513,3.6513,3.6313,3.6356,3.7665,3.8806,3.998,4.1354,4.3518,4.5753,4.7067,4.8441,4.9806,5.1085,5.1377,5.1377,5.1377,5.1269,5.1074,5.0859,5.0996,5.1074,5.0859,5.082,5.0742,5.0527,5.0312,5.0254,5.0469,5.0312,5.0273,5.0488,5.0703,5.082,5.082,5.1016,5.1133,5.1133,5.126,5.1377,5.1377,5.1641,5.1777,5.1777,5.1992,5.209,5.209,5.2539,5.2804,5.2804,5.3418,5.3711,3.3507,3.4175,3.4695,3.4108,3.3601,3.2492,2.9642,2.8377,2.7108,2.4623,2.4008,2.3888,2.383,2.4997,2.64,2.7602,2.9085,3.1076,3.3921,3.4322,3.4857,3.6326,3.6433,3.6206,3.5631,3.5578,3.5538,3.5311,3.5832,3.6286,3.658,3.6779,3.6885,3.6885,3.6885,3.6885,3.6885,3.6885,3.6885,3.6885,3.6885,3.6885,3.6885,3.6885,3.6885,3.6885,3.6885,3.6845,3.6779,3.6607,3.6473,3.6433,3.6473,3.65,3.654,3.6779,3.6885,3.6885,3.6885,3.6885,3.6885,3.6885,3.7017,3.7613,3.9737,4.095,4.2051,4.4239,4.6572,4.8403,4.8262,4.9882,5.1494,5.1397,5.1377,5.1377,5.1377,5.1377,5.1377,5.1377,5.1377,5.1358,5.1308,5.1016,5.0781,5.0683,5.0391,5.0293,5.0625,5.0742,5.0801,5.0801,5.1172,5.1377,5.1377,5.1377,5.1377,5.1377,5.1377,5.1377,5.1377,5.1855,5.209,5.209,5.25,5.2715,5.2715,5.3144,5.341,5.3429,5.3828,5.3972,3.4082,3.4496,3.4683,3.4362,3.344,3.2045,2.9548,0.0,2.6065,2.4231,2.3402,2.3174,2.371,2.4329,2.5518,2.7777,2.8698,3.0322,3.3828,3.4322,3.4857,3.6326,3.6273,3.5992,3.5605,3.5578,3.5565,3.5591,3.6139,3.658,3.6874,3.6885,3.6885,3.6885,3.6885,3.6885,3.6885,3.6885,3.6885,3.6885,3.6885,3.6885,3.6885,3.6885,3.6885,3.6885,3.6885,3.6739,3.654,3.6513,3.6353,3.6139,3.6393,3.65,3.654,3.6779,3.6885,3.6885,3.6885,3.6885,3.6885,3.6885,3.8622,4.0754,4.078,4.4011,4.77,4.7647,4.958,5.157,5.1133,5.1523,5.1914,5.1475,5.1377,5.1377,5.1377,5.1377,5.1377,5.1377,5.1377,5.126,5.0937,5.082,5.0683,5.0293,5.0195,5.0195,5.0234,5.0566,5.0801,5.0801,5.1172,5.1377,5.1377,5.1377,5.1377,5.1377,5.1377,5.1377,5.1377,5.1855,5.209,5.209,5.25,5.2715,5.2715,5.3144,5.341,5.3429,5.3828,5.3972,3.4015,3.467,3.491,3.4442,3.3427,3.1885,2.9138,2.7415,2.5785,2.3696,2.3067,2.2974,2.3215,2.3567,2.4292,2.5798,2.6187,2.7521,3.0942,3.141,3.2291,3.4656,3.4977,3.511,3.5351,3.5364,3.5511,3.5872,3.6112,3.6433,3.6901,3.6885,3.6885,3.6885,3.6885,3.6885,3.6885,3.6885,3.6885,3.6885,3.6885,3.6885,3.6885,3.6885,3.6885,3.6885,3.6885,3.6861,3.6754,3.6754,3.6687,3.6607,3.6727,3.6754,3.6739,3.6845,3.6885,3.6885,3.6885,3.6885,3.6885,3.6885,4.0016,4.374,4.3666,4.6052,4.9187,5.0804,5.182,5.2422,5.2246,5.2148,5.2031,5.1855,5.1621,5.1377,5.1377,5.1377,5.1377,5.1377,5.1377,5.1338,5.1211,5.1172,5.1133,5.0957,5.0937,5.0937,5.0937,5.1074,5.1289,5.1543,5.1484,5.1377,5.1377,5.1377,5.1543,5.1797,5.1816,5.1933,5.2187,5.2617,5.2901,5.2901,5.3281,5.3496,5.3465,5.3672,5.3906,5.4211,5.4062,5.418,3.3761,3.4563,3.4817,3.4322,3.3173,3.1483,2.8671,2.7054,2.5504,2.3348,2.2893,2.2893,2.2893,2.3113,2.3519,2.4262,2.4743,2.6012,2.8831,2.9526,3.0635,3.3066,3.3694,3.4122,3.4616,3.499,3.5444,3.6032,3.6072,3.6326,3.6845,3.6885,3.6885,3.6885,3.6885,3.6885,3.6885,3.6885,3.6885,3.6885,3.6885,3.6885,3.6885,3.6885,3.6885,3.6885,3.6885,3.6885,3.6885,3.6885,3.6885,3.6885,3.6885,3.6885,3.6885,3.6885,3.6885,3.6885,3.6885,3.6885,3.6885,3.6885,4.0793,4.5518,4.5518,4.7757,5.0828,5.2835,5.3047,5.2734,5.2871,5.2578,5.2266,5.2266,5.2031,5.1767,5.1767,5.1767,5.1767,5.1767,5.1767,5.1767,5.1767,5.1767,5.1767,5.1767,5.165,5.166,5.1797,5.1699,5.1797,5.2226,5.1992,5.1767,5.1767,5.1699,5.1816,5.2246,5.2266,5.2402,5.2695,5.3125,5.341,5.341,5.3808,5.4101,5.4219,5.4101,5.4316,5.4863,5.4433,5.4394,3.3414,3.4108,3.4255,3.3961,3.2559,3.0621,2.8243,2.6573,2.501,2.3268,2.2893,2.2893,2.2893,2.3113,2.342,2.3763,2.5034,2.6613,2.8364,2.9619,3.0841,3.1984,3.2639,3.3106,3.34,3.4496,3.5444,3.6032,3.6072,3.6326,3.6845,3.6885,3.6885,3.6885,3.6885,3.6885,3.6885,3.6885,3.6885,3.6885,3.6885,3.6885,3.6885,3.6885,3.6885,3.6885,3.6885,3.6885,3.6885,3.6885,3.6885,3.6885,3.6885,3.6885,3.6885,3.6885,3.6885,3.6885,3.6885,3.6885,3.6885,3.6885,4.0793,4.5518,4.5518,4.918,5.3359,5.341,5.3047,5.2812,5.3292,5.3027,5.2695,5.2695,5.2695,5.2695,5.2695,5.2695,5.2695,5.2695,5.2695,5.2695,5.2695,5.2695,5.2695,5.2695,5.2344,5.2226,5.2637,5.2324,5.2246,5.2656,5.2695,5.2695,5.2695,5.2324,5.2246,5.2676,5.2695,5.2695,5.2715,5.3125,5.341,5.341,5.3808,5.4238,5.4668,5.4238,5.4473,5.5293,5.4863,5.4668,3.1095,3.1837,3.2091,3.1597,3.0755,2.9472,2.7295,2.6132,2.501,2.3268,2.2893,2.2893,2.2893,2.2974,2.3434,2.4756,2.5344,2.6266,2.8085,2.9312,3.0421,3.1383,3.3093,3.436,3.4603,3.4977,3.5444,3.6032,3.6072,3.6233,3.662,3.6647,3.6727,3.6885,3.6885,3.6885,3.6885,3.6885,3.6885,3.6885,3.6885,3.6885,3.6885,3.6885,3.6885,3.6885,3.6885,3.6885,3.6885,3.6885,3.6885,3.6885,3.6885,3.6885,3.6885,3.6885,3.6885,3.6885,3.6885,3.6885,3.6885,3.6885,3.9444,4.2912,4.4879,4.9378,5.3808,5.3808,5.3711,5.3652,5.3789,5.3496,5.3195,5.3195,5.293,5.2715,5.2715,5.2715,5.2715,5.2715,5.2715,5.2715,5.2715,5.2715,5.2715,5.2715,5.2598,5.2558,5.2695,5.2598,5.2676,5.3105,5.2891,5.2715,5.2715,5.2598,5.2695,5.3125,5.3195,5.3301,5.3594,5.4023,5.4309,5.4309,5.4687,5.498,5.5117,5.498,5.5039,5.5312,5.5469,5.539,2.9285,3.0287,3.0648,3.0287,2.9499,2.835,2.6653,2.5598,2.4609,2.3188,2.2893,2.2893,2.2893,2.2987,2.3407,2.4502,2.5251,2.6106,2.7349,2.8791,3.0247,3.157,3.312,3.4336,3.4963,3.5124,3.5391,3.5872,3.5912,3.6032,3.6326,3.634,3.6433,3.6607,3.6727,3.6754,3.6754,3.6874,3.6885,3.6885,3.6885,3.6885,3.6885,3.6885,3.6885,3.6885,3.6885,3.6885,0.0,3.6885,3.6885,3.6885,3.6885,3.6885,3.6885,3.6885,3.6885,3.6885,3.6885,3.6885,3.6885,3.6885,3.9568,4.3342,4.6261,5.0319,5.3972,5.3972,5.3972,5.3972,5.3972,5.3828,5.3613,5.3613,5.3398,5.3203,5.3203,5.3203,5.3203,5.3203,5.3203,5.3203,5.3203,5.3203,5.3203,5.3203,5.3066,5.3008,5.3183,5.3066,5.3125,5.3574,5.3359,5.3203,5.3203,5.3047,5.3223,5.3879,5.3918,5.4062,5.4492,5.4765,5.4922,5.4922,5.5176,5.539,5.5547,5.5703,5.5703,5.5547,5.5976,5.5957,0.0,2.9055,2.9566,2.9539,2.8497,2.7188,2.6091,2.4994,0.0,2.3081,2.2893,2.2907,2.296,2.3126,2.3319,2.3479,2.4903,2.6131,2.6466,2.8297,3.0426,3.25,3.2995,3.3547,3.4618,3.503,3.5311,3.5551,3.5578,3.5752,3.6019,3.6046,3.6086,3.606,3.6286,3.6473,3.6473,3.6754,3.6845,3.6861,3.6845,3.6845,3.6845,3.6885,3.6885,3.6885,3.6885,3.6885,3.6885,3.6885,3.6885,3.6885,3.6885,3.6885,3.6885,3.6885,3.6885,3.6885,3.6885,3.6885,3.6885,3.6885,4.0685,4.573,4.8613,5.1617,5.3972,5.3972,5.3972,5.3972,5.3972,5.3972,5.3972,5.3972,5.3972,5.3972,5.3972,5.3972,5.3972,5.3972,5.3972,5.3972,5.3972,5.3972,5.3972,5.3972,5.3672,5.3555,5.3965,5.3672,5.3574,5.3984,5.4011,5.4031,5.4031,5.3691,5.3859,5.4629,5.4707,5.4902,5.5293,5.5332,5.5351,5.5351,5.539,5.5586,5.5924,5.6387,5.6387,5.5943,5.6406,5.6367,2.4426,0.0,2.6159,2.5893,2.5573,2.517,0.0,2.4111,2.371,2.3041,2.2893,2.3041,2.3509,2.3268,2.3603,2.5371,2.5864,2.6412,2.7603,2.9513,3.1664,3.3961,3.4295,3.4536,3.5044,3.5151,3.5311,3.5551,3.5578,3.5605,3.5725,3.5738,3.5631,3.5404,3.5685,3.5939,3.6179,3.6473,3.65,3.6273,3.65,3.6607,3.662,3.6834,3.6885,3.6885,3.6885,3.6885,3.6885,3.6885,3.6885,3.6885,3.6885,3.6885,3.6885,3.6885,3.6885,3.6885,3.6885,3.6885,3.6885,3.6885,3.9294,4.2751,4.564,5.0007,5.3972,5.3972,5.3972,5.3972,5.3972,5.3972,5.3972,5.3972,5.3972,5.3972,5.3972,5.3972,5.3972,5.3972,5.3972,5.3972,5.3972,5.3972,5.3972,5.3972,5.3945,5.3906,5.3972,5.3945,5.3906,5.3972,5.4336,5.4531,5.4531,5.4433,5.4453,5.4668,5.498,5.5195,5.5312,5.5625,5.5728,5.5728,5.6113,5.6328,5.6426,5.6543,5.6523,5.6445,5.6543,5.6523,2.2712,2.3875,2.5077,2.505,2.4943,2.4716,2.4275,2.3861,2.3434,2.3,0.0,2.3,2.3335,2.3348,2.3777,2.5157,2.5864,2.6988,2.9276,3.0755,3.2452,3.4696,3.4843,3.4923,3.5351,3.5271,3.5257,3.5418,3.5431,3.5431,3.5431,3.5431,3.5364,3.5204,3.5471,3.5712,3.5872,3.6166,3.6233,3.6072,3.6366,3.65,3.6513,3.6794,3.6885,3.6885,3.6885,3.6885,3.6885,3.6885,3.6885,3.6885,3.6885,3.6885,3.6885,3.6885,3.6885,3.6885,3.6885,3.6885,3.6885,3.6885,3.887,4.174,4.4628,4.8561,5.2306,5.3646,5.3972,5.3972,5.3972,5.3972,5.3972,5.3972,5.3972,5.3972,5.3972,5.3972,5.4031,5.4297,5.416,5.4101,5.4297,5.416,5.3972,5.3972,5.3972,5.3972,5.3972,5.3972,5.405,5.4316,5.4531,5.4765,5.4961,5.5137,5.5254,5.5254,5.5469,5.5683,5.5879,5.6113,5.623,5.623,5.6465,5.6582,5.6582,5.6582,5.6582,5.6582,5.6582,5.6582,2.2138,2.3541,2.4957,2.5024,2.4957,2.4783,2.4449,0.0,0.0,0.0,0.0,2.2947,2.3134,2.3549,2.4058,2.4583,2.5905,2.7909,3.0929,3.1864,3.2973,3.4963,3.4977,3.5017,3.5511,3.5338,3.5191,3.5191,3.5191,3.5191,3.5191,3.5191,3.5191,3.5191,3.5431,3.5565,3.5565,3.5859,3.6006,3.6006,3.6299,3.6473,3.6513,3.6794,3.6885,3.6885,3.6885,3.6885,3.6885,3.6885,3.6885,3.6885,3.6885,3.6885,3.6885,3.6885,3.6885,3.6885,3.6885,3.6885,3.6885,3.6885,3.8527,4.105,4.3986,4.679,4.9658,5.2563,5.3646,5.3972,5.3972,5.3972,5.3972,5.3972,5.3972,5.3972,5.3972,5.4082,5.4238,5.4609,5.4433,5.4336,5.4707,5.4473,5.4167,5.4167,5.4167,5.4167,5.4167,5.4167,5.4375,5.4746,5.4844,5.5019,5.5371,5.5781,5.6035,5.6035,5.6035,5.6211,5.6562,5.6582,5.6582,5.6582,5.6582,5.6582,5.6582,5.6582,5.6582,5.6582,5.6582,5.6621,2.2846,2.3714,2.4102,2.314,2.3434,2.3857,2.3295,2.3067,2.296,2.2907,2.2893,2.3201,2.4146,2.4235,2.4716,2.6546,2.8043,2.97,3.169,3.2478,3.3427,3.5004,3.5151,3.5164,3.5257,3.5217,3.5191,3.5191,3.5191,3.5191,3.5191,3.5191,3.5191,3.5191,3.5244,3.5257,3.5257,3.5551,3.5698,3.5698,3.5992,3.6273,3.6513,3.6794,3.6885,3.6885,3.6885,3.6885,3.6885,3.6885,3.6885,3.6885,3.6885,3.6885,3.6885,3.6885,3.6885,3.6885,3.6885,3.6885,3.6885,3.6885,3.7217,3.8101,4.0996,4.3879,4.6754,4.9624,5.2152,5.3972,5.3972,5.3972,5.3972,5.3972,5.3972,5.3972,5.3972,5.4316,5.459,5.4668,5.4922,5.5137,5.5195,5.5156,5.5117,5.5117,5.5117,5.5117,5.5117,5.5117,5.5137,5.5195,5.5527,5.5709,5.5787,5.623,5.6484,5.6484,5.6484,5.6504,5.6582,5.6582,5.6582,5.6582,5.6582,5.6582,5.6582,5.6582,5.6582,5.6582,5.6582,5.6777,2.1977,2.2792,2.342,2.3207,2.4098,2.4874,2.4396,2.4048,2.3821,2.3821,2.3821,2.4035,2.4743,2.5277,2.6293,2.8364,2.9539,3.0755,3.2345,3.2946,3.3708,3.5044,3.5191,3.5191,3.5191,3.5191,3.5191,3.5191,3.5191,3.5191,3.5191,3.5191,3.5191,3.5191,3.5191,3.5191,3.5191,3.5324,3.5391,3.5404,3.5859,3.6139,3.6286,3.6727,3.6885,3.6885,3.6885,3.6885,3.6885,3.6885,3.6885,3.6885,3.6885,3.6885,3.6885,3.6885,3.6885,3.6885,3.6885,3.6885,3.6885,3.6885,3.6885,3.7453,4.0303,4.3235,4.6102,4.8927,5.1824,5.3972,5.3972,5.3972,5.4031,5.4336,5.4375,5.4433,5.4668,5.4883,5.5078,5.5312,5.5332,5.539,5.5605,5.5449,5.5312,5.5312,5.5312,5.5312,5.5312,5.5312,5.539,5.5625,5.5767,5.5982,5.6269,5.6465,5.668,5.6914,5.6719,5.6797,5.7265,5.7051,5.7031,5.732,5.7051,5.7031,5.7285,5.7031,5.7051,5.7285,5.7285,5.7383,2.1657,2.2338,2.3188,2.3924,2.486,2.5636,2.5785,2.5226,0.0,0.0,2.4999,2.5064,2.5424,2.6667,2.8177,2.9766,3.0808,3.1824,3.3026,3.344,3.4015,3.507,3.5191,3.5191,3.5191,3.5191,3.5191,3.5191,3.5191,3.5191,3.5191,3.5191,3.5191,3.5191,3.5191,3.5191,3.5191,3.5191,3.5231,3.5311,3.5752,3.6046,3.6193,3.6592,3.6861,3.6885,3.6885,3.6885,3.6885,3.6885,3.6885,3.6885,3.6885,3.6885,3.6885,3.6885,3.6885,3.6885,3.6885,3.6885,3.6885,3.6885,3.6885,3.7314,3.9513,4.2697,4.5783,4.7264,5.0826,5.416,5.4062,5.405,5.4258,5.4609,5.4746,5.4922,5.5234,5.539,5.5547,5.5826,5.5762,5.5703,5.6035,5.582,5.5605,5.5605,5.5605,5.5605,5.5605,5.5605,5.5723,5.6055,5.6041,5.623,5.6562,5.6582,5.6816,5.7324,5.6875,5.6973,5.7867,5.7344,5.7324,5.7906,5.7441,5.7422,5.7926,5.7519,5.7539,5.7926,5.7926,5.7965,2.3308,2.3434,2.3567,2.474,2.4663,0.0,2.632,2.5852,0.0,2.64,0.0,2.6065,2.66,2.8564,3.0199,3.0346,3.1971,3.3337,3.3761,3.4068,3.4482,3.5124,3.5191,3.5191,3.5191,3.5191,3.5191,3.5191,3.5191,3.5191,3.5191,3.5191,3.5191,3.5191,3.5191,3.5191,3.5191,3.5191,3.5324,3.5551,3.5645,3.5952,3.6473,3.6513,3.6687,3.6885,3.6885,3.6885,3.6885,3.6885,3.6885,3.6885,3.6885,3.6885,3.6885,3.6885,3.6885,3.6885,3.6885,3.6885,3.6885,3.6885,3.6885,3.6941,3.7162,4.1105,4.4985,4.2497,4.8033,5.4531,5.4141,5.4336,5.4648,5.4668,5.498,5.5273,5.5293,5.5605,5.5845,5.5865,5.623,5.6504,5.6523,5.6523,5.6484,5.6484,5.6484,5.6484,5.6484,5.6484,5.6504,5.6543,5.6543,5.6543,5.6582,5.6582,5.6933,5.7808,5.7051,5.6973,5.7867,5.707,5.7012,5.7851,5.7441,5.7422,5.7926,5.7867,5.7867,5.7926,5.7926,5.8086,2.2358,2.2846,2.3572,2.4783,2.5222,0.0,0.0,2.7188,2.7509,2.831,2.831,0.0,2.8444,2.9659,3.0742,3.1162,3.2612,3.3828,3.4108,3.4416,3.475,3.5151,3.5191,3.5191,3.5191,3.5191,3.5191,3.5191,3.5191,3.5191,3.5191,3.5191,3.5191,3.5191,3.5191,3.5191,3.5191,3.5191,3.5244,3.5364,3.5538,3.5752,3.5965,3.634,3.658,3.6687,3.6805,3.6885,3.6885,3.6885,3.6885,3.6885,3.6885,3.6885,3.6885,3.6885,3.6885,3.6885,3.6885,3.6885,3.6885,3.6885,3.6885,3.7246,3.902,4.1105,4.339,4.6136,4.9371,5.1988,5.1839,5.3391,5.5137,5.539,5.5586,5.5762,5.6055,5.623,5.6348,5.6348,5.6465,5.6582,5.6582,5.6582,5.6582,5.6582,5.6582,5.6582,5.6582,5.6582,5.6582,5.6582,5.6582,5.6582,5.6582,5.6582,5.6875,5.7558,5.6953,5.709,5.8242,5.7695,5.7656,5.8262,5.807,5.8242,5.8727,5.8418,5.8418,5.8727,5.8727,5.8769,2.2077,2.2599,2.346,2.4649,0.0,0.0,2.7697,2.8444,2.9152,3.0114,3.0087,2.9873,2.9824,3.0474,3.1196,3.1644,3.2986,3.4095,3.4295,3.4576,3.4922,3.5164,3.5191,3.5191,3.5191,3.5191,3.5191,3.5191,3.5191,3.5191,3.5191,3.5191,3.5191,3.5191,3.5191,3.5191,3.5191,3.5191,3.5191,3.5204,3.5404,3.5538,3.5591,3.6046,3.6273,3.638,3.658,3.6727,3.6794,3.6794,3.6805,3.6885,3.6885,3.6885,3.6885,3.6885,3.6885,3.6885,3.6885,3.6885,3.6885,3.6885,3.6885,3.7246,3.924,4.1105,4.3228,4.6543,4.9637,5.1719,5.0804,5.3003,5.5566,5.5806,5.5982,5.623,5.6523,5.6582,5.6582,5.6582,5.6582,5.6582,5.6582,5.6582,5.6582,5.6582,5.6582,5.6582,5.6582,5.6582,5.6582,5.6582,5.6582,5.6582,5.6582,5.6582,5.6836,5.7348,5.7246,5.7617,5.8711,5.8203,5.8144,5.8711,5.8594,5.8714,5.918,5.8887,5.8887,5.918,5.918,5.918,2.2974,2.2893,2.3188,2.4306,2.5317,2.664,2.9008,2.9499,2.9993,3.1757,3.1423,3.0715,3.048,3.1136,3.1724,3.1724,3.316,3.4322,3.4322,3.4576,3.487,3.5164,3.5191,3.5191,3.5191,3.5191,3.5191,3.5191,3.5191,3.5191,3.5191,3.5191,3.5191,3.5191,3.5191,3.5191,3.5191,3.5191,3.5191,3.5191,3.5191,3.5351,3.5631,3.5578,3.5792,3.6126,3.6072,3.6233,3.65,3.65,3.6687,3.6885,3.6885,3.6885,3.6885,3.6885,3.6885,3.6885,3.6885,3.6885,3.6885,3.6885,3.6885,3.6885,3.6941,4.0942,4.4879,4.2065,4.8044,5.4593,5.1807,5.3488,5.5885,5.5885,5.6269,5.6582,5.6582,5.6582,5.6582,5.6582,5.6582,5.6582,5.6582,5.6582,5.6582,5.6582,5.6582,5.6582,5.6582,5.6582,5.6582,5.6582,5.6582,5.6582,5.6582,5.6601,5.6836,5.7367,5.7969,5.8555,5.9196,5.8375,5.8317,5.918,5.8769,5.8769,5.918,5.918,5.918,5.918,5.918,5.918,2.2224,2.2893,2.4035,2.501,2.6667,2.8631,3.0581,3.1069,0.0,3.304,3.2652,3.1979,3.1637,3.1797,3.1971,3.1971,3.3293,3.4322,3.4322,3.475,3.5097,3.5191,3.5191,3.5191,3.5191,3.5191,3.5191,3.5191,3.5191,3.5191,3.5191,3.5191,3.5191,3.5191,3.5191,3.5191,3.5191,3.5191,3.5191,3.5191,3.5191,3.5244,3.5338,3.5538,3.5672,3.5778,3.5979,3.6233,3.6513,3.6727,3.6805,3.6885,3.6885,3.6885,3.6885,3.6885,3.6885,3.6885,3.6885,3.6885,3.6885,3.6885,3.6885,3.7301,3.9294,4.1105,4.3291,4.7006,5.0099,5.2698,5.4489,5.5684,5.6387,5.6387,5.6484,5.6582,5.6582,5.6582,5.6582,5.6582,5.6582,5.6582,5.6582,5.6582,5.6582,5.6582,5.6582,5.6582,5.6582,5.6582,5.6582,5.6582,5.6582,5.6582,5.6582,5.7129,5.7867,5.8613,5.8262,5.8203,5.8711,5.8476,5.8421,5.8711,5.8887,5.9062,5.918,5.918,5.918,5.918,5.918,5.918,2.3094,2.3937,2.5197,2.644,2.7989,2.9806,3.2038,3.2639,3.3013,3.4028,3.3521,3.2853,3.2666,3.2438,3.2318,3.2425,3.3507,3.4322,3.4322,3.483,3.5191,3.5191,3.5191,3.5191,3.5191,3.5191,3.5191,3.5191,3.5191,3.5191,3.5191,3.5191,3.5191,3.5191,3.5191,3.5191,3.5191,3.5191,3.5191,3.5191,3.5191,3.5191,3.5204,3.5378,3.5458,3.5471,3.5765,3.6059,3.6353,3.6513,3.6727,3.6885,3.6794,3.6834,3.6885,3.6885,3.6885,3.6885,3.6885,3.6885,3.6885,3.6885,3.6885,3.7246,3.8952,4.1105,4.3775,4.7859,5.081,5.3266,5.5708,5.6445,5.6582,5.6582,5.6582,5.6582,5.6582,5.6582,5.6582,5.6582,5.6582,5.6582,5.6582,5.6582,5.6582,5.6582,5.6582,5.6699,5.7051,5.6797,5.6582,5.6582,5.6582,5.6875,5.7558,5.8086,5.8669,5.9196,5.8727,5.8551,5.8769,5.8769,5.8769,5.8769,5.9062,5.918,5.918,5.918,5.918,5.918,5.918,5.918,2.4753,2.5503,2.6493,2.8217,2.9272,3.0595,3.3347,3.4189,3.4482,3.475,3.4122,3.347,3.347,3.3026,3.2755,3.2973,3.3734,3.4295,3.4322,3.4803,3.5164,3.5191,3.5191,3.5191,3.5191,3.5191,3.5191,3.5191,3.5191,3.5191,3.5191,3.5191,3.5191,3.5191,3.5191,3.5191,3.5191,3.5191,3.5191,3.5191,3.5191,3.5191,3.5191,3.5191,3.5191,3.5204,3.5498,3.5778,3.6032,3.6113,3.6393,3.6861,3.662,3.6687,3.6885,3.6885,3.6885,3.6885,3.6885,3.6885,3.6885,3.6885,3.6885,3.6941,3.7217,4.1174,4.5703,4.6352,5.079,5.5469,5.5879,5.6289,5.6582,5.6582,5.6582,5.6582,5.6582,5.6582,5.6582,5.6582,5.6582,5.6582,5.6582,5.6582,5.6582,5.6582,5.6582,5.6914,5.7926,5.7305,5.6758,5.6601,5.6719,5.7461,5.9062,5.918,5.918,5.918,5.918,5.918,5.918,5.918,5.918,5.918,5.918,5.918,5.918,5.918,5.918,5.918,5.918,5.918,2.3781,2.5144,2.7014,2.8521,3.0955,3.3227,3.4322,3.4803,3.503,3.5097,3.4589,3.4135,3.4135,3.3627,3.324,3.3307,3.3694,3.4055,3.4282,3.4629,3.4937,3.5164,3.5191,3.5191,3.5191,3.5191,3.5191,3.5191,3.5191,3.5191,3.5191,3.5191,3.5191,3.5191,3.5191,3.5191,3.5191,3.5191,3.5191,3.5191,3.5191,3.5191,3.5191,3.5191,3.5191,3.5204,3.5498,3.5672,3.5738,3.5979,3.6286,3.658,3.654,3.6687,3.6885,3.6885,3.6885,3.6885,3.6885,3.6885,3.6885,3.6885,3.6885,3.7314,3.9594,4.2952,4.653,4.9174,5.2788,5.5898,5.6328,5.6504,5.6582,5.6582,5.6582,5.6582,5.6582,5.6582,5.6582,5.6582,5.6582,5.6582,5.6582,5.6582,5.6582,5.6582,5.6582,5.7148,5.8711,5.8786,5.8141,5.6738,5.7793,5.8769,5.9196,5.918,5.918,5.918,5.918,5.918,5.918,5.918,5.918,5.918,5.918,5.918,5.918,5.918,5.918,5.918,5.918,5.918,2.4609,2.6199,2.823,3.0555,3.2732,3.4481,3.487,3.5084,3.5191,3.5191,3.4723,3.4322,3.4322,3.3828,3.3414,3.3414,3.3681,3.3988,3.4282,3.4576,3.4922,3.5164,3.5191,3.5191,3.5191,3.5191,3.5191,3.5191,3.5191,3.5191,3.5191,3.5191,3.5191,3.5191,3.5191,3.5191,3.5191,3.5191,3.5191,3.5191,3.5191,3.5191,3.5191,3.5191,3.5191,3.5204,3.5351,3.5498,3.5578,3.5645,3.5992,3.65,3.6353,3.658,3.6885,3.6885,3.6885,3.6885,3.6885,3.6885,3.6885,3.6885,3.7798,3.924,4.0724,4.4457,4.8538,5.0437,5.3363,5.6035,5.6465,5.6582,5.6582,5.6582,5.6582,5.6582,5.6582,5.6582,5.6582,5.6582,5.6582,5.6582,5.6582,5.6933,5.7051,5.664,5.7305,5.8144,5.9062,5.918,5.8828,5.791,5.8652,5.918,5.918,5.918,5.918,5.918,5.918,5.918,5.918,5.918,5.918,5.918,5.918,5.918,5.918,5.918,5.918,5.918,5.918,5.918,2.5464,2.7388,2.9633,3.2666,3.4095,3.4895,3.5137,3.5191,3.5191,3.5191,3.4723,3.4322,3.4322,3.3828,3.3414,3.3414,3.3627,3.3908,3.4202,3.4496,3.479,3.5084,3.5164,3.5191,3.5191,3.5191,3.5191,3.5191,3.5191,3.5191,3.5191,3.5191,3.5191,3.5191,3.5191,3.5191,3.5191,3.5191,3.5191,3.5191,3.5191,3.5191,3.5191,3.5191,3.5191,3.5191,3.5191,3.5338,3.5538,3.5297,3.5685,3.6393,3.6166,3.6433,3.6885,3.6885,3.6885,3.6885,3.6885,3.6885,3.6885,3.6885,3.8527,4.063,4.1707,4.5667,5.0045,5.1469,5.3848,5.6133,5.6484,5.6582,5.6582,5.6582,5.6582,5.6582,5.6582,5.6582,5.6582,5.6582,5.6582,5.6582,5.6582,5.7222,5.7554,5.709,5.8262,5.918,5.918,5.918,5.918,5.918,5.918,5.918,5.918,5.918,5.918,5.918,5.918,5.918,5.918,5.918,5.918,5.918,5.918,5.918,5.918,5.918,5.918,5.918,5.918,5.918,2.3981,2.7108,3.0662,3.283,3.4108,3.4895,3.5137,3.5191,3.5191,3.5191,3.4723,3.4322,3.4322,3.3828,3.3414,3.3414,3.3454,3.3587,3.3895,3.4189,3.4496,3.479,3.5044,3.5191,3.5191,3.5191,3.5191,3.5191,3.5191,3.5191,3.5191,3.5191,3.5191,3.5191,3.5191,3.5191,3.5191,3.5191,3.5191,3.5191,3.5191,3.5191,3.5191,3.5191,3.5191,3.5191,3.5191,3.5217,3.5244,3.5204,3.5565,3.6126,3.6086,3.6433,3.6885,3.6885,3.6885,3.6885,3.6885,3.6885,3.6885,3.6885,3.7162,3.8472,4.3828,4.6278,4.8377,5.3741,5.5834,5.6504,5.6562,5.6582,5.6582,5.6582,5.6582,5.6582,5.6582,5.6582,5.6582,5.6582,5.6582,5.6582,5.6582,5.668,5.7226,5.8669,5.9079,5.918,5.918,5.918,5.918,5.918,5.918,5.918,5.918,5.918,5.918,5.918,5.918,5.918,5.918,5.918,5.918,5.918,5.918,5.918,5.918,5.918,5.918,5.918,5.918,5.918,2.5596,2.8406,3.1142,3.3324,3.4349,3.4895,3.5137,3.5191,3.5191,3.5191,3.4723,3.4322,3.4322,3.3828,3.3414,3.3414,3.3414,3.3521,3.3841,3.4002,3.4189,3.4482,3.4776,3.495,3.495,3.5097,3.5191,3.5191,3.5191,3.5191,3.5191,3.5191,3.5191,3.5191,3.5191,3.5191,3.5191,3.5191,3.5191,3.5191,3.5191,3.5191,3.5191,3.5191,3.5191,3.5191,3.5191,3.5191,3.5191,3.5191,3.5444,3.5845,3.6006,3.6326,3.6672,3.6861,3.6885,3.6885,3.6885,3.6885,3.6885,3.6885,3.9258,4.2548,4.5292,4.8815,5.2459,5.5172,5.625,5.6582,5.6582,5.6582,5.6582,5.6582,5.6582,5.6582,5.6582,5.6582,5.6582,5.6582,5.6836,5.6953,5.664,5.6582,5.7168,5.8962,5.918,5.918,5.918,5.918,5.918,5.918,5.918,5.918,5.918,5.918,5.918,5.918,5.918,5.918,5.918,5.918,5.918,5.918,5.918,5.918,5.918,5.918,5.918,5.918,5.918,5.918,2.6399,2.8551,3.0368,3.2812,3.3921,3.4523,3.4897,3.5084,3.5191,3.5191,3.4723,3.4322,3.4322,3.3828,3.3414,3.3414,3.3414,3.3494,3.3734,3.3895,3.4082,3.4295,3.4643,3.4922,3.4922,3.507,3.5191,3.5191,3.5191,3.5191,3.5191,3.5191,3.5191,3.5191,3.5191,3.5191,3.5191,3.5191,3.5191,3.5191,3.5191,3.5191,3.5191,3.5191,3.5191,3.5191,3.5191,3.5191,3.5191,3.5191,3.5404,3.5765,3.5992,3.6299,3.6647,3.6805,3.6885,3.6885,3.6885,3.6885,3.6885,3.6885,4.0563,4.5195,4.6033,5.0259,5.5017,5.5843,5.6328,5.6582,5.6582,5.6582,5.6582,5.6582,5.6582,5.6582,5.6582,5.668,5.6758,5.6797,5.7207,5.748,5.7285,5.7246,5.7695,5.9004,5.918,5.918,5.918,5.918,5.918,5.918,5.918,5.918,5.918,5.918,5.918,5.918,5.918,5.918,5.918,5.918,5.918,5.918,5.918,5.918,5.918,5.918,5.918,5.918,5.918,5.918,2.4606,2.6119,2.7669,3.0314,3.2238,3.3641,3.4229,3.479,3.5191,3.5191,3.4723,3.4322,3.4322,3.3828,3.3414,3.3414,3.3414,3.3414,3.3427,3.3935,3.4295,3.4322,3.483,3.5177,3.5177,3.5191,3.5191,3.5191,3.5191,3.5191,3.5191,3.5191,3.5191,3.5191,3.5191,3.5191,3.5191,3.5191,3.5191,3.5191,3.5191,3.5191,3.5191,3.5191,3.5191,3.5191,3.5191,3.5191,3.5191,3.5191,3.5538,3.61,3.6059,3.6433,3.6901,3.6885,3.6885,3.6885,3.6885,3.6885,3.6885,3.6885,3.9273,4.2684,4.5802,4.9177,5.2539,5.5712,5.6562,5.6582,5.6582,5.6582,5.6582,5.6582,5.6582,5.6582,5.6582,5.6894,5.7226,5.7309,5.7637,5.8141,5.8962,5.9062,5.9062,5.918,5.918,5.918,5.918,5.918,5.918,5.918,5.918,5.918,5.918,5.918,5.918,5.918,5.918,5.918,5.918,5.918,5.918,5.918,5.918,5.918,5.918,5.918,5.918,5.918,5.918,5.918,2.4075,2.5504,2.7094,2.9379,3.0982,3.2265,3.324,3.4068,3.4683,3.4883,3.475,3.4549,3.4362,3.3828,3.3414,3.3414,3.3414,3.3414,3.3414,3.3774,3.3961,3.3761,3.4429,3.4763,3.4389,3.4696,3.4843,3.4643,3.4629,3.4629,3.4629,3.4817,3.4923,3.4923,3.5097,3.5191,3.5191,3.5191,3.5191,3.5191,3.5191,3.5191,3.5191,3.5191,3.5191,3.5191,3.5191,3.5191,3.5191,3.5191,3.5431,3.5805,3.6006,3.6313,3.6687,3.6861,3.6885,3.6885,3.6885,3.6885,3.7217,3.9398,4.234,4.5638,4.8943,5.2252,5.51,5.6256,5.6582,5.6582,5.6582,5.6582,5.666,5.6914,5.707,5.7187,5.7363,5.7519,5.7637,5.7695,5.8262,5.8828,5.9121,5.918,5.918,5.918,5.918,5.918,5.918,5.918,5.918,5.918,5.918,5.918,5.918,5.918,5.918,5.918,5.918,5.918,5.918,5.918,5.918,5.918,5.918,5.918,5.918,5.9531,5.9531,5.918,5.957,5.9531,2.322,2.4462,2.6065,2.8203,2.9472,3.0675,3.2559,3.344,3.4042,3.4695,3.4815,3.471,3.4509,3.3975,3.3534,3.3427,3.3414,3.3414,3.3414,3.3681,3.3814,3.3601,3.4189,3.4456,3.4068,3.4389,3.4536,3.4336,3.4322,3.4362,3.4469,3.4656,3.4855,3.491,3.5097,3.5191,3.5191,3.5191,3.5191,3.5191,3.5191,3.5191,3.5191,3.5191,3.5191,3.5191,3.5191,3.5191,3.5204,3.5297,3.5511,3.5805,3.6099,3.6393,3.6687,3.6805,3.6885,3.6885,3.6885,3.6885,3.7466,4.0793,4.4098,4.7416,5.0686,5.3963,5.6582,5.6582,5.6582,5.6582,5.6582,5.668,5.6855,5.7148,5.7324,5.7539,5.791,5.8027,5.8023,5.7926,5.861,5.918,5.918,5.918,5.918,5.918,5.8727,5.8535,5.9121,5.918,5.918,5.918,5.918,5.918,5.918,5.918,5.9414,5.998,6.0039,6.0039,6.0039,6.0039,5.9765,5.918,5.918,5.918,5.918,5.957,5.957,5.918,5.957,5.9531,0.0,0.0,0.0,2.6613,2.7643,2.8928,3.2126,3.2839,3.3213,3.4494,3.4762,3.4775,3.4802,3.4295,3.3801,3.348,3.3414,3.3414,3.3414,3.3681,3.3881,3.3868,3.4135,3.4322,3.4309,3.4309,3.4309,3.4309,3.4309,3.4429,3.4762,3.4788,3.4883,3.5191,3.5191,3.5177,3.5177,3.5191,3.5191,3.5177,3.5191,3.5191,3.5191,3.5191,3.5191,3.5191,3.5191,3.5191,3.5217,3.5511,3.5805,3.6153,3.6393,3.6687,3.6885,3.6885,3.6885,3.6885,3.6885,3.6885,3.7466,4.0918,4.4223,4.7416,5.0812,5.409,5.6582,5.6582,5.6582,5.6582,5.6601,5.6914,5.7226,5.7246,5.7344,5.7563,5.8203,5.832,5.8262,5.7969,5.8613,5.918,5.918,5.918,5.918,5.918,5.7734,5.7265,5.8965,5.918,5.918,5.918,5.918,5.9235,5.9238,5.9238,5.998,6.1601,6.1719,6.1719,6.1719,6.1719,6.0957,5.9297,5.9255,5.918,5.918,5.9235,5.9235,5.918,5.918,5.9255,2.1689,0.0,0.0,0.0,0.0,0.0,2.8446,2.9513,3.0702,3.2795,3.337,3.3734,3.4655,3.4681,3.4349,3.3841,3.3561,3.3414,3.3414,3.3681,3.3801,3.3574,3.4002,3.4242,3.4028,3.4002,3.4002,3.4002,3.4002,3.3935,3.3801,3.4002,3.4456,3.5177,3.499,3.4883,3.4818,3.5084,3.5097,3.4883,3.5097,3.5191,3.5191,3.5191,3.5191,3.5191,3.5191,3.5191,3.5217,3.5511,3.5805,3.6153,3.6393,3.6687,3.6885,3.6885,3.6885,3.6885,3.6885,3.6885,3.7811,4.3613,4.6069,4.7847,5.3512,5.5877,5.6582,5.6582,5.6582,5.666,5.6953,5.7129,5.7344,5.7836,5.8027,5.8242,5.8828,5.8945,5.8962,5.8828,5.9023,5.918,5.918,5.918,5.918,5.918,5.8769,5.8652,5.9121,5.918,5.918,5.918,5.918,5.9687,6.0918,6.1015,6.1211,6.166,6.1719,6.1719,6.1719,6.1719,6.1484,6.1015,5.9824,5.918,5.918,5.959,5.959,5.918,5.918,5.9824,0.0,0.0,0.0,0.0,0.0,0.0,2.7468,2.8494,2.9673,3.1904,3.2799,3.3427,3.4242,3.4282,3.4175,3.4082,3.3694,3.3414,3.3414,3.3574,3.3614,3.3427,3.3721,3.3935,3.3895,3.3881,3.3935,3.4055,3.3961,3.3801,3.3614,3.3895,3.4362,3.499,3.4909,3.4817,3.4884,3.511,3.511,3.495,3.5124,3.5191,3.5191,3.5191,3.5191,3.5191,3.5191,3.5191,3.5231,3.5645,3.5912,3.6112,3.654,3.6739,3.6885,3.6885,3.6885,3.6885,3.6885,3.7008,3.8182,4.4716,4.6888,4.8176,5.4651,5.6582,5.6582,5.6582,5.6582,5.668,5.7109,5.7265,5.748,5.8144,5.8496,5.8769,5.9121,5.918,5.918,5.918,5.918,5.918,5.918,5.918,5.918,5.918,5.918,5.8962,5.8203,5.873,5.918,5.918,5.9824,6.0625,6.1602,6.1719,6.1719,6.1719,6.1719,6.1719,6.1719,6.1719,6.1719,6.1719,6.0039,5.918,5.918,5.9512,5.9512,5.918,5.918,6.0098,0.0,0.0,0.0,0.0,2.4405,0.0,2.7681,2.8508,2.9215,3.1209,3.2305,3.3003,3.3507,3.336,3.3334,3.3841,3.3614,3.3387,3.3454,3.3427,3.3414,3.3414,3.3414,3.3534,3.3855,3.3881,3.4002,3.4295,3.4055,3.3895,3.3935,3.4108,3.4389,3.4802,3.4788,3.4909,3.5151,3.5177,3.5177,3.5151,3.5177,3.5191,3.5191,3.5191,3.5191,3.5191,3.5191,3.5191,3.5244,3.5832,3.6072,3.6126,3.6672,3.6885,3.6885,3.6885,3.6885,3.6885,3.6885,3.7128,3.8416,4.4764,4.6966,4.8392,5.4674,5.6582,5.6582,5.6582,5.6582,5.668,5.7109,5.7324,5.7543,5.8242,5.8789,5.918,5.918,5.918,5.918,5.918,5.918,5.918,5.918,5.918,5.918,5.918,5.918,5.8669,5.707,5.8258,5.918,5.918,6.0683,6.1719,6.1719,6.1719,6.1719,6.1719,6.1719,6.1719,6.1719,6.1719,6.1719,6.1719,6.0039,5.918,5.918,5.918,5.918,5.918,5.918,6.0098,2.2813,2.3174,2.3576,2.3375,0.0,0.0,2.4466,2.5545,2.6934,2.8283,2.9085,3.0007,3.1476,3.1643,3.161,3.1503,3.2372,3.324,3.3721,3.3574,3.3414,3.3414,3.3414,3.3534,3.3855,3.3881,3.4002,3.4295,3.4055,3.3988,3.4229,3.3828,3.3948,3.4788,3.4536,3.4549,3.4843,3.5084,3.5084,3.4909,3.5084,3.5191,3.5191,3.5191,3.5191,3.5191,3.5191,3.5191,3.5244,3.5832,3.6072,3.6126,3.6672,3.6885,3.6885,3.6885,3.6885,3.6885,3.6885,3.7128,3.8416,4.4764,4.6966,4.8392,5.4674,5.6582,5.6582,5.6582,5.6582,5.668,5.7109,5.7324,5.7641,5.8769,5.9121,5.918,5.918,5.918,5.918,5.918,5.918,5.918,5.918,5.918,5.918,5.918,5.918,5.9062,5.873,5.902,5.918,5.918,6.0683,6.1719,6.1719,6.1719,6.1719,6.1719,6.1719,6.1719,6.1719,6.1719,6.1719,6.1719,6.0039,5.918,5.918,5.918,5.918,5.918,5.918,6.0098,2.322,2.3313,2.3621,2.3937,0.0,0.0,0.0,2.4983,2.5931,2.7215,2.7722,2.8337,2.9673,2.9793,2.9887,3.0488,3.1436,3.2318,3.2919,3.3494,3.3868,3.3868,3.3734,3.3774,3.4068,3.3975,3.3948,3.4095,3.4108,3.4028,3.3881,3.3574,3.3694,3.4309,3.4322,3.4469,3.4815,3.5057,3.5124,3.4977,3.5124,3.5191,3.5191,3.5191,3.5191,3.5191,3.5191,3.5284,3.5444,3.5885,3.6166,3.6326,3.6754,3.6885,3.6885,3.6885,3.6885,3.6885,3.6885,3.8045,4.0361,4.5202,4.7982,5.0267,5.5122,5.6582,5.6582,5.6582,5.6582,5.668,5.7109,5.7109,5.7383,5.8828,5.918,5.918,5.918,5.918,5.918,5.918,5.918,5.918,5.918,5.918,5.918,5.918,5.918,5.918,5.918,5.918,5.918,5.918,5.9941,6.0801,6.166,6.1719,6.1719,6.1719,6.1719,6.1719,6.1719,6.1719,6.1719,6.1719,6.0039,5.918,5.918,5.918,5.918,5.918,5.918,6.0098,0.0,0.0,0.0,0.0,0.0,2.4315,0.0,0.0,0.0,2.6426,2.672,2.7001,2.7776,2.7764,2.8005,2.9262,3.0154,3.0889,3.1356,3.2746,3.3761,3.3881,3.3828,3.3881,3.4122,3.3881,3.3788,3.3961,3.3975,3.3814,3.3427,3.3414,3.3561,3.3881,3.4108,3.4402,3.4815,3.499,3.5137,3.5191,3.5191,3.5191,3.5191,3.5191,3.5191,3.5191,3.5191,3.5364,3.5658,3.5952,3.6246,3.654,3.6779,3.6885,3.6885,3.6885,3.6885,3.6996,3.7522,3.9522,4.2461,4.6379,4.9825,5.2973,5.5751,5.6582,5.6582,5.6582,5.6582,5.666,5.6992,5.6836,5.6933,5.8359,5.8945,5.918,5.918,5.918,5.918,5.918,5.918,5.918,5.918,5.918,5.918,5.918,5.918,5.918,5.918,5.918,5.918,5.918,5.918,5.9746,6.1075,6.1543,6.1719,6.1719,6.1719,6.1719,6.1719,6.1719,6.1719,6.1719,6.039,5.9531,5.918,5.918,5.918,5.918,5.9531,6.039,0.0,0.0,0.0,0.0,2.5959,0.0,0.0,0.0,2.4941,2.4325,0.0,2.505,2.5411,0.0,0.0,2.5999,2.7655,2.8925,2.8991,3.0488,3.177,3.2291,3.3013,3.348,3.3507,3.3253,3.3414,3.4215,3.337,3.2995,3.3387,3.3414,3.3561,3.3881,3.3921,3.4202,3.4815,3.479,3.4937,3.5191,3.5191,3.5191,3.5191,3.5191,3.5191,3.5191,3.5191,3.5364,3.5658,3.5952,3.6246,3.654,3.6779,3.6885,3.6885,3.6885,3.6885,3.7246,3.9813,4.1357,4.3167,4.8738,5.3035,5.6076,5.6455,5.6582,5.6582,5.6582,5.6582,5.6601,5.664,5.6621,5.664,5.6836,5.8086,5.918,5.918,5.918,5.918,5.918,5.918,5.918,5.918,5.918,5.918,5.918,5.918,5.918,5.918,5.918,5.918,5.918,5.918,5.9294,5.9473,6.0859,6.1719,6.1719,6.1719,6.1719,6.1719,6.1719,6.1719,6.1719,6.1543,6.0683,5.918,5.918,5.918,5.9238,6.0742,6.1543,0.0,0.0,0.0,0.0,0.0,0.0,2.4062,0.0,2.383,2.3803,0.0,0.0,0.0,0.0,0.0,0.0,2.6306,2.7375,2.7549,2.8804,3.0181,3.1436,3.1476,3.1517,3.1864,3.2238,3.2772,3.348,3.2969,3.2848,3.3374,3.3414,3.3467,3.3601,3.3948,3.4255,3.4509,3.4843,3.507,3.5191,3.5191,3.5191,3.5191,3.5191,3.5191,3.5191,3.5191,3.5458,3.5899,3.6019,3.634,3.6754,3.6845,3.6885,3.6885,3.6885,3.7949,3.9637,4.111,4.3954,4.7744,5.2328,5.5079,5.6582,5.6582,5.6582,5.6582,5.6582,5.6582,5.6582,5.6582,5.6582,5.6582,5.6582,5.7519,5.8555,5.9062,5.918,5.918,5.918,5.918,5.918,5.918,5.918,5.918,5.918,5.918,5.918,5.918,5.918,5.918,5.918,5.918,5.918,5.918,6.0742,6.1719,6.1719,6.1719,6.1719,6.1719,6.1719,6.1719,6.1719,6.0742,5.9883,5.918,6.0156,6.0156,5.9238,6.0918,6.1719,2.7001,0.0,0.0,0.0,0.0,0.0,0.0,0.0,0.0,0.0,2.3897,0.0,0.0,0.0,0.0,0.0,0.0,2.6199,2.6319,2.7094,2.8323,3.0167,3.0181,3.0274,3.0849,3.1276,3.1877,3.2835,3.242,3.2514,3.336,3.3414,3.3454,3.3534,3.3975,3.4282,3.4442,3.487,3.5124,3.5191,3.5191,3.5191,3.5191,3.5191,3.5191,3.5204,3.5284,3.5605,3.618,3.7045,3.7169,3.6996,3.7798,3.8073,3.7949,3.7217,3.8816,4.1541,4.264,4.6912,5.2348,5.5153,5.6328,5.6582,5.6582,5.6582,5.6582,5.6582,5.6582,5.6582,5.6582,5.6582,5.6582,5.6582,5.7187,5.8027,5.902,5.918,5.918,5.918,5.918,5.918,5.918,5.918,5.918,5.918,5.918,5.918,5.918,5.918,5.918,5.918,5.918,5.918,5.918,6.0742,6.1719,6.1719,6.1719,6.1719,6.1719,6.1719,6.1719,6.1719,6.0508,5.9648,5.918,6.039,6.0625,5.9922,6.1133,6.1601,2.9215,2.9579,2.9597,2.672,2.6198,2.5758,2.3469,2.4031,2.485,0.0,0.0,0.0,0.0,0.0,0.0,0.0,0.0,0.0,0.0,2.5208,2.5984,2.8045,2.953,3.0614,3.1109,3.0474,3.0702,3.2474,3.1503,3.1597,3.332,3.3414,3.3547,3.3855,3.3895,3.4175,3.4802,3.4815,3.4923,3.5191,3.5191,3.5191,3.5191,3.5191,3.5191,3.5204,3.5498,3.5792,3.6356,3.9382,3.9158,3.7162,3.9991,4.105,4.0724,3.7949,3.8998,4.2295,4.5,5.0242,5.5798,5.6406,5.6582,5.6582,5.6582,5.6582,5.6582,5.6582,5.6582,5.6582,5.6582,5.6582,5.6582,5.6582,5.7031,5.7719,5.8945,5.918,5.918,5.918,5.918,5.918,5.918,5.918,5.918,5.918,5.918,5.918,5.918,5.918,5.918,5.918,5.918,5.918,5.918,6.0742,6.1719,6.1719,6.1719,6.1719,6.1719,6.1719,6.1719,6.1719,6.166,6.084,5.918,5.9238,6.0098,6.1602,6.1641,6.125,3.0541,3.0849,3.0707,2.8297,2.7482,2.664,2.4289,2.4472,2.4917,2.4329,0.0,0.0,0.0,0.0,0.0,0.0,0.0,0.0,0.0,2.4502,2.4903,2.6024,2.7456,2.8433,2.8591,2.9045,2.99,3.1276,3.0881,3.1323,3.3026,3.3133,3.336,3.3868,3.4068,3.4362,3.4815,3.495,3.5097,3.5191,3.5191,3.5191,3.5191,3.5191,3.5297,3.5485,3.5591,3.6945,3.926,4.0368,4.1506,4.2712,4.3664,4.404,4.3718,4.0779,4.3038,4.7987,5.1434,5.4231,5.6387,5.6543,5.6582,5.6582,5.6582,5.6582,5.6582,5.6582,5.6582,5.6582,5.6582,5.6582,5.6582,5.6582,5.7168,5.7906,5.8476,5.8906,5.918,5.918,5.918,5.918,5.918,5.918,5.918,5.918,5.918,5.918,5.918,5.918,5.918,5.918,5.918,5.918,5.918,6.0742,6.1719,6.1719,6.1719,6.1719,6.1719,6.1719,6.1719,6.1719,6.1719,6.1426,6.0859,6.0859,6.0566,6.0039,6.0039,5.9883,3.173,3.1917,3.169,2.9847,2.9018,2.8056,2.5798,2.5999,2.6493,2.5784,2.6533,0.0,0.0,0.0,0.0,0.0,0.0,0.0,0.0,2.4075,2.4382,2.4863,2.6078,2.7041,2.7563,2.7896,2.8764,3.0368,3.002,3.0541,3.246,3.2755,3.3196,3.3868,3.4162,3.4509,3.491,3.5097,3.5191,3.5191,3.5191,3.5191,3.5204,3.5311,3.5458,3.5591,3.5845,3.7785,4.0896,4.2019,4.3672,4.5571,4.6648,4.7018,4.6631,4.3772,4.6062,5.1143,5.4643,5.6211,5.6582,5.6582,5.6582,5.6582,5.6582,5.6582,5.6582,5.6582,5.6582,5.6582,5.6582,5.6582,5.6582,5.6582,5.7129,5.7734,5.8086,5.8711,5.918,5.918,5.918,5.918,5.918,5.918,5.918,5.918,5.918,5.918,5.918,5.918,5.918,5.918,5.918,5.918,5.918,6.0742,6.1719,6.1719,6.1719,6.1426,6.084,6.1367,6.1426,6.084,6.0801,6.0801,6.0801,6.1426,6.1133,6.0098,6.0098,5.9765]},{"header":{"parameterUnit":"m.s-1","parameterCategory":1,"la1":30.6,"la2":29.2853,"lo1":-89.7004,"lo2":-87.6739,"dy":0.0162,"dx":0.0183,"nx":112,"ny":82,"refTime":"2026-04-20T12:00:00:Z","depth":0,"parameterNumber":3,"parameterNumberName":"V-component_of_WINDS"},"data":[0.0,0.0,0.0,0.0,0.0,0.0,0.0,0.0,0.0,0.0,0.0,0.0,0.0,0.0,0.0,0.0,0.0,0.0,0.0,0.0,0.0,0.0,0.0,0.0,0.0,0.0,0.0,0.0,0.0,0.0,0.0,0.0,0.0,0.0,0.0,0.0,0.0,0.0,0.0,0.0,0.0,0.0,0.0,0.0,0.0,0.0,0.0,0.0,0.0,0.0,0.0,0.0,0.0,0.0,0.0,0.0,0.0,0.0,0.0,0.0,0.0,0.0,0.0,0.0,0.0,0.0,0.0,0.0,0.0,0.0,0.0,0.0,0.0,0.0,0.0,0.0,0.0,0.0,0.0,0.0,0.0,0.0,0.0,0.0,0.0,0.0,0.0,0.0,0.0,0.0,0.0,4.8063,5.0829,5.2435,5.23,5.0371,4.8173,4.5838,0.0,0.0,0.0,0.0,0.0,0.0,0.0,0.0,0.0,0.0,0.0,0.0,0.0,0.0,0.0,0.0,0.0,0.0,0.0,0.0,0.0,0.0,0.0,0.0,0.0,0.0,0.0,0.0,0.0,0.0,0.0,0.0,0.0,0.0,0.0,0.0,0.0,0.0,0.0,0.0,0.0,0.0,0.0,0.0,0.0,0.0,0.0,0.0,0.0,0.0,0.0,0.0,0.0,0.0,0.0,0.0,0.0,0.0,0.0,0.0,0.0,0.0,0.0,0.0,0.0,0.0,0.0,0.0,0.0,0.0,0.0,0.0,0.0,0.0,0.0,0.0,0.0,0.0,0.0,0.0,0.0,0.0,0.0,0.0,0.0,0.0,0.0,0.0,0.0,0.0,0.0,0.0,0.0,0.0,0.0,0.0,0.0,0.0,0.0,0.0,0.0,0.0,0.0,0.0,4.5284,5.0171,5.2249,5.3044,5.2367,5.0845,4.8714,4.5872,0.0,0.0,0.0,0.0,0.0,0.0,0.0,0.0,0.0,0.0,0.0,0.0,0.0,0.0,0.0,0.0,0.0,0.0,0.0,0.0,0.0,0.0,0.0,0.0,0.0,0.0,0.0,0.0,0.0,0.0,0.0,0.0,0.0,0.0,0.0,0.0,0.0,0.0,0.0,0.0,0.0,0.0,0.0,0.0,0.0,0.0,0.0,0.0,0.0,0.0,0.0,0.0,0.0,0.0,0.0,0.0,0.0,0.0,0.0,0.0,0.0,0.0,0.0,0.0,0.0,0.0,0.0,0.0,0.0,0.0,0.0,0.0,0.0,0.0,0.0,0.0,0.0,0.0,0.0,0.0,0.0,0.0,0.0,0.0,0.0,0.0,0.0,0.0,0.0,0.0,0.0,0.0,0.0,0.0,0.0,0.0,0.0,0.0,0.0,0.0,0.0,0.0,0.0,4.5215,4.738,5.137,5.2841,5.3348,5.2976,5.1183,4.9018,4.6447,4.3098,0.0,0.0,0.0,0.0,0.0,0.0,0.0,0.0,0.0,0.0,0.0,0.0,0.0,0.0,0.0,0.0,0.0,0.0,0.0,0.0,0.0,0.0,0.0,0.0,0.0,0.0,0.0,0.0,0.0,0.0,0.0,0.0,0.0,0.0,0.0,0.0,0.0,0.0,0.0,0.0,0.0,0.0,0.0,0.0,0.0,0.0,0.0,0.0,0.0,0.0,0.0,0.0,0.0,0.0,0.0,0.0,0.0,0.0,0.0,0.0,0.0,0.0,0.0,0.0,0.0,0.0,0.0,0.0,0.0,0.0,0.0,0.0,0.0,0.0,0.0,0.0,0.0,0.0,0.0,0.0,0.0,0.0,0.0,0.0,0.0,0.0,0.0,0.0,0.0,0.0,0.0,0.0,0.0,0.0,0.0,0.0,0.0,0.0,0.0,0.0,0.0,0.0,4.8394,4.9882,5.2334,5.3145,5.3518,5.3518,5.1251,4.8951,4.6936,4.3098,0.0,0.0,0.0,0.0,0.0,0.0,0.0,0.0,0.0,0.0,0.0,0.0,0.0,0.0,0.0,0.0,0.0,0.0,0.0,0.0,0.0,0.0,0.0,0.0,0.0,0.0,0.0,0.0,0.0,0.0,0.0,0.0,0.0,0.0,0.0,0.0,0.0,0.0,0.0,0.0,0.0,0.0,0.0,0.0,0.0,0.0,0.0,0.0,0.0,0.0,0.0,0.0,0.0,0.0,0.0,0.0,0.0,0.0,0.0,0.0,0.0,0.0,0.0,0.0,0.0,0.0,0.0,0.0,0.0,0.0,0.0,0.0,0.0,0.0,0.0,0.0,0.0,0.0,0.0,0.0,0.0,0.0,0.0,0.0,0.0,0.0,0.0,0.0,0.0,0.0,0.0,0.0,0.0,0.0,0.0,0.0,0.0,0.0,0.0,0.0,0.0,0.0,4.9864,5.2367,5.3315,5.3484,5.3518,5.3518,5.0777,4.8443,4.6902,4.2645,0.0,0.0,0.0,0.0,0.0,0.0,0.0,0.0,0.0,0.0,0.0,0.0,0.0,0.0,0.0,0.0,0.0,0.0,0.0,0.0,0.0,0.0,0.0,0.0,0.0,0.0,0.0,0.0,0.0,0.0,0.0,0.0,0.0,0.0,0.0,0.0,0.0,0.0,0.0,0.0,0.0,0.0,0.0,0.0,0.0,0.0,0.0,0.0,0.0,0.0,0.0,0.0,0.0,0.0,0.0,0.0,0.0,0.0,0.0,0.0,0.0,0.0,0.0,0.0,0.0,0.0,0.0,0.0,0.0,0.0,0.0,0.0,0.0,0.0,0.0,0.0,0.0,0.0,0.0,0.0,0.0,0.0,0.0,0.0,0.0,0.0,0.0,0.0,0.0,0.0,0.0,0.0,0.0,0.0,0.0,0.0,0.0,0.0,0.0,0.0,0.0,0.0,4.9221,5.1589,0.0,5.3518,5.3518,5.3518,5.1573,4.9357,4.6955,0.0,0.0,0.0,0.0,0.0,0.0,0.0,0.0,0.0,0.0,0.0,0.0,0.0,0.0,0.0,0.0,0.0,0.0,0.0,0.0,0.0,0.0,0.0,0.0,0.0,0.0,0.0,0.0,0.0,0.0,0.0,0.0,0.0,0.0,0.0,0.0,0.0,0.0,0.0,0.0,0.0,0.0,0.0,0.0,0.0,0.0,0.0,0.0,0.0,0.0,0.0,0.0,0.0,0.0,0.0,0.0,0.0,0.0,0.0,0.0,0.0,0.0,0.0,0.0,0.0,0.0,0.0,0.0,0.0,0.0,0.0,0.0,0.0,0.0,0.0,0.0,0.0,0.0,0.0,0.0,0.0,0.0,0.0,0.0,0.0,0.0,0.0,0.0,0.0,0.0,0.0,0.0,0.0,0.0,0.0,0.0,0.0,0.0,0.0,0.0,0.0,0.0,4.6733,4.971,5.2198,0.0,5.4194,5.4093,5.3856,5.2029,4.9695,4.6969,0.0,0.0,0.0,0.0,0.0,0.0,0.0,0.0,0.0,0.0,0.0,0.0,0.0,0.0,0.0,0.0,0.0,0.0,0.0,0.0,0.0,0.0,0.0,0.0,0.0,0.0,0.0,0.0,0.0,0.0,0.0,0.0,0.0,0.0,0.0,0.0,0.0,0.0,0.0,0.0,0.0,0.0,0.0,0.0,0.0,0.0,0.0,0.0,0.0,0.0,0.0,0.0,0.0,0.0,0.0,0.0,0.0,0.0,0.0,0.0,0.0,0.0,0.0,0.0,0.0,0.0,0.0,0.0,0.0,0.0,0.0,0.0,0.0,0.0,0.0,0.0,0.0,0.0,0.0,0.0,0.0,0.0,0.0,0.0,0.0,0.0,0.0,0.0,0.0,0.0,0.0,0.0,0.0,0.0,0.0,0.0,0.0,0.0,0.0,0.0,0.0,0.0,4.7627,5.1842,5.4905,5.5631,5.5733,5.5428,5.4685,5.1876,4.9169,0.0,0.0,0.0,0.0,0.0,0.0,0.0,0.0,0.0,0.0,0.0,0.0,0.0,0.0,0.0,0.0,0.0,0.0,0.0,0.0,0.0,0.0,0.0,0.0,0.0,0.0,0.0,0.0,0.0,0.0,0.0,0.0,0.0,0.0,0.0,0.0,0.0,0.0,0.0,0.0,0.0,0.0,0.0,0.0,0.0,0.0,0.0,0.0,0.0,0.0,0.0,0.0,0.0,0.0,0.0,0.0,0.0,0.0,0.0,0.0,0.0,0.0,0.0,0.0,0.0,0.0,0.0,0.0,0.0,0.0,0.0,0.0,0.0,0.0,0.0,0.0,0.0,0.0,0.0,0.0,0.0,0.0,0.0,0.0,0.0,0.0,0.0,0.0,0.0,0.0,0.0,0.0,0.0,0.0,0.0,0.0,0.0,0.0,0.0,0.0,0.0,0.0,0.0,4.8376,5.3044,5.6427,5.7171,5.6799,5.6393,5.6156,5.3382,5.0473,4.7752,0.0,0.0,0.0,0.0,0.0,0.0,0.0,0.0,0.0,0.0,0.0,0.0,0.0,0.0,0.0,0.0,0.0,0.0,0.0,0.0,0.0,0.0,0.0,0.0,0.0,0.0,0.0,0.0,0.0,0.0,0.0,0.0,0.0,0.0,0.0,0.0,0.0,0.0,0.0,0.0,0.0,0.0,0.0,0.0,0.0,0.0,0.0,0.0,0.0,0.0,0.0,0.0,0.0,0.0,0.0,0.0,0.0,0.0,0.0,0.0,0.0,0.0,0.0,0.0,0.0,0.0,0.0,0.0,0.0,0.0,0.0,0.0,0.0,0.0,0.0,0.0,0.0,0.0,0.0,0.0,0.0,0.0,0.0,0.0,0.0,0.0,0.0,0.0,0.0,0.0,0.0,0.0,0.0,0.0,0.0,0.0,0.0,0.0,0.0,0.0,0.0,0.0,4.956,5.4194,5.7746,5.9099,5.8558,5.7881,5.7273,5.504,5.2131,4.8563,0.0,0.0,0.0,0.0,0.0,0.0,0.0,0.0,0.0,0.0,0.0,0.0,0.0,0.0,0.0,0.0,0.0,0.0,0.0,0.0,0.0,0.0,0.0,0.0,0.0,0.0,0.0,0.0,0.0,0.0,0.0,0.0,0.0,0.0,0.0,0.0,0.0,0.0,0.0,0.0,0.0,0.0,0.0,0.0,0.0,0.0,0.0,0.0,0.0,0.0,0.0,0.0,0.0,0.0,0.0,0.0,0.0,0.0,0.0,0.0,0.0,0.0,0.0,0.0,0.0,0.0,0.0,0.0,0.0,0.0,0.0,0.0,0.0,0.0,0.0,0.0,0.0,0.0,0.0,0.0,0.0,0.0,0.0,0.0,0.0,0.0,0.0,0.0,0.0,0.0,0.0,0.0,0.0,0.0,0.0,0.0,0.0,0.0,0.0,0.0,0.0,0.0,5.1032,5.5446,5.9152,6.1298,6.0791,5.9742,5.834,5.6731,5.394,4.9593,0.0,0.0,0.0,0.0,0.0,0.0,0.0,0.0,0.0,0.0,0.0,0.0,0.0,0.0,0.0,0.0,0.0,0.0,0.0,0.0,0.0,0.0,0.0,0.0,0.0,0.0,0.0,0.0,0.0,0.0,0.0,0.0,0.0,0.0,0.0,0.0,0.0,0.0,0.0,0.0,0.0,0.0,0.0,0.0,0.0,0.0,0.0,0.0,0.0,0.0,0.0,0.0,0.0,0.0,0.0,0.0,0.0,0.0,0.0,0.0,4.594,4.3842,0.0,0.0,0.0,0.0,0.0,0.0,0.0,0.0,0.0,0.0,0.0,0.0,0.0,0.0,0.0,0.0,0.0,0.0,0.0,0.0,0.0,0.0,0.0,0.0,0.0,0.0,0.0,0.0,0.0,0.0,0.0,0.0,0.0,0.0,0.0,0.0,0.0,0.0,0.0,0.0,5.2621,5.7949,6.1839,6.2902,6.2347,6.1535,6.0655,5.8118,5.5141,5.1826,4.8105,0.0,0.0,0.0,0.0,0.0,0.0,0.0,0.0,0.0,0.0,0.0,0.0,0.0,0.0,0.0,0.0,0.0,0.0,0.0,0.0,0.0,0.0,0.0,0.0,0.0,0.0,0.0,0.0,0.0,0.0,0.0,0.0,0.0,0.0,0.0,0.0,0.0,0.0,0.0,0.0,0.0,0.0,0.0,0.0,0.0,0.0,0.0,0.0,0.0,0.0,0.0,0.0,0.0,0.0,0.0,0.0,0.0,0.0,0.0,5.0067,4.7564,0.0,0.0,0.0,0.0,0.0,0.0,0.0,0.0,0.0,0.0,0.0,0.0,0.0,0.0,0.0,0.0,0.0,0.0,0.0,0.0,0.0,0.0,0.0,0.0,0.0,0.0,0.0,0.0,0.0,0.0,0.0,0.0,0.0,0.0,0.0,0.0,0.0,0.0,0.0,0.0,5.4109,5.9133,6.2956,6.441,6.3903,6.3024,6.1907,6.008,5.7509,5.416,5.0439,0.0,0.0,0.0,0.0,0.0,0.0,0.0,0.0,0.0,0.0,0.0,0.0,0.0,0.0,0.0,0.0,0.0,0.0,0.0,0.0,0.0,0.0,0.0,0.0,0.0,0.0,0.0,0.0,0.0,0.0,0.0,0.0,0.0,0.0,0.0,0.0,0.0,0.0,0.0,0.0,0.0,0.0,0.0,0.0,0.0,0.0,0.0,0.0,0.0,0.0,0.0,0.0,0.0,5.7085,5.8152,5.9099,5.9844,6.0182,5.9892,5.4938,5.2638,5.2216,5.0254,0.0,0.0,0.0,0.0,0.0,0.0,0.0,0.0,0.0,0.0,0.0,0.0,0.0,0.0,0.0,0.0,0.0,0.0,0.0,0.0,0.0,0.0,5.4228,5.4093,5.6055,5.6224,4.9796,0.0,0.0,0.0,0.0,0.0,0.0,0.0,0.0,0.0,0.0,0.0,5.58,6.0216,6.3686,6.5514,6.5155,6.4241,6.2908,6.1975,6.0047,5.668,5.3078,4.9474,0.0,0.0,0.0,0.0,0.0,0.0,0.0,0.0,0.0,0.0,0.0,0.0,0.0,0.0,0.0,0.0,0.0,0.0,0.0,0.0,0.0,0.0,0.0,0.0,0.0,0.0,0.0,0.0,0.0,0.0,0.0,0.0,4.6986,4.7344,0.0,0.0,0.0,0.0,0.0,0.0,0.0,0.0,0.0,0.0,0.0,0.0,0.0,5.5141,5.7796,5.9979,6.1182,6.14,6.4072,6.4762,6.3734,6.4478,6.4837,6.4769,6.3991,0.0,5.6934,5.6021,0.0,0.0,0.0,0.0,0.0,0.0,0.0,0.0,0.0,0.0,0.0,0.0,0.0,0.0,0.0,0.0,0.0,0.0,0.0,0.0,0.0,0.0,6.1854,6.1197,6.1873,6.1989,5.9742,5.4853,5.0153,4.7515,4.623,4.4959,0.0,0.0,0.0,0.0,0.0,0.0,5.81,6.2482,6.5378,6.5683,6.5615,6.5243,6.4377,6.3057,6.1467,5.9641,5.6646,5.3568,5.0457,4.7564,0.0,0.0,0.0,0.0,0.0,0.0,0.0,0.0,0.0,0.0,0.0,0.0,0.0,0.0,0.0,0.0,0.0,0.0,0.0,0.0,0.0,0.0,0.0,0.0,0.0,0.0,0.0,0.0,0.0,4.8424,4.9651,4.8629,4.867,4.8003,0.0,0.0,0.0,0.0,0.0,0.0,0.0,0.0,0.0,5.8881,5.9776,6.1434,6.3971,6.5831,6.6981,6.7421,6.9147,6.9823,6.9586,6.9947,7.0082,7.0082,7.0082,6.8559,6.5764,6.2076,5.8863,5.6105,0.0,0.0,0.0,0.0,5.4905,5.5446,5.7881,5.8186,5.7476,5.7273,0.0,0.0,0.0,0.0,0.0,0.0,0.0,5.5987,5.925,6.1786,6.3849,6.5155,6.6068,6.6339,6.5256,6.2347,5.8573,5.3805,5.2401,5.0811,4.7177,4.6616,0.0,0.0,0.0,5.7171,6.0486,6.4072,6.6305,6.6305,6.6305,6.6034,6.5256,6.4634,6.3449,6.1501,5.937,5.6849,5.3839,5.1251,4.8477,0.0,0.0,0.0,0.0,0.0,0.0,0.0,0.0,0.0,0.0,0.0,0.0,0.0,0.0,0.0,0.0,0.0,0.0,0.0,0.0,0.0,0.0,0.0,0.0,0.0,0.0,0.0,0.0,5.1173,5.2625,5.1166,5.2295,5.2114,0.0,0.0,0.0,0.0,0.0,0.0,5.7863,5.937,6.1637,6.485,6.6,6.7658,6.9857,7.1007,7.1887,7.2428,7.2969,7.351,7.4075,7.4075,7.4075,7.4075,7.4075,7.3747,7.28,6.7231,6.37,6.1704,6.0569,5.981,5.9471,6.0791,6.1163,6.1448,6.4647,6.5019,6.3937,6.299,6.1535,5.9554,5.6393,0.0,0.0,0.0,0.0,5.9013,6.3477,6.4762,6.5574,6.8166,6.9248,6.9519,6.891,6.8064,6.5696,5.9911,5.849,5.6799,5.2334,5.186,0.0,5.3095,0.0,5.9776,6.2584,6.5222,6.6791,6.6791,6.6791,6.6576,6.6034,6.5818,6.5006,6.3348,6.1806,5.981,5.7221,5.5124,5.2536,4.9375,0.0,0.0,0.0,0.0,0.0,0.0,0.0,0.0,0.0,0.0,0.0,0.0,0.0,0.0,0.0,0.0,0.0,0.0,0.0,0.0,0.0,0.0,0.0,0.0,0.0,0.0,0.0,0.0,0.0,5.6399,5.7703,0.0,0.0,0.0,0.0,5.7392,6.0235,6.255,6.4072,6.554,6.8064,7.1785,7.1954,7.3071,7.527,7.5371,7.5439,7.5473,7.5506,7.554,7.5574,7.5574,7.5574,7.5574,7.5574,7.5574,7.5168,7.0669,6.7895,6.625,6.412,6.324,6.3308,6.4106,6.5256,6.6622,6.8301,6.8842,6.8876,6.9485,6.6779,6.3342,6.3835,6.1975,0.0,0.0,6.3057,6.4715,6.7049,6.8233,6.9214,7.0748,7.1154,7.1188,7.112,6.9992,6.803,6.4816,6.3091,6.1332,5.8912,0.0,5.7746,5.8506,6.0047,6.1941,6.4208,6.5831,6.6791,6.6791,6.6791,6.6757,6.6757,6.6102,6.5649,6.5547,6.414,6.2632,6.1095,5.9487,5.695,5.3281,5.1014,0.0,0.0,0.0,0.0,0.0,0.0,0.0,0.0,0.0,0.0,0.0,0.0,0.0,0.0,0.0,0.0,0.0,0.0,0.0,0.0,0.0,0.0,0.0,0.0,0.0,0.0,0.0,0.0,6.0348,6.2542,0.0,6.0941,6.1806,6.2821,6.3565,6.5967,6.8288,7.0195,7.1278,7.2902,7.5236,7.5303,7.5912,7.7164,7.7164,7.7401,7.7908,7.7908,7.8145,7.8585,7.8111,7.7908,7.7874,7.7401,7.7164,7.7029,7.4965,7.3206,7.1695,7.0432,6.9925,6.9958,7.0229,7.0669,7.1176,7.1718,7.1616,7.1176,7.0973,6.9485,6.7861,6.8132,6.7117,6.6203,6.7726,6.8166,6.8707,7.0906,7.1345,7.1481,7.2462,7.2699,7.2699,7.2699,7.2293,7.1616,7.0556,6.7557,6.4681,6.2922,6.2787,6.2874,6.2651,6.3903,6.5324,6.6576,6.7184,6.7354,6.6859,6.6791,6.6609,6.6136,6.6305,6.6,6.5053,6.4512,6.3565,6.2076,6.1028,5.8964,5.5683,5.4363,5.1505,0.0,0.0,0.0,0.0,0.0,0.0,0.0,0.0,0.0,0.0,0.0,0.0,0.0,0.0,0.0,0.0,0.0,0.0,0.0,0.0,0.0,0.0,0.0,0.0,0.0,6.0601,6.3561,6.3828,6.6948,6.8301,6.6318,6.7455,6.8741,6.9755,7.1684,7.3578,7.5303,7.6082,7.7063,7.8348,7.8382,7.872,7.9464,7.9464,7.9735,8.0183,8.0183,8.0479,8.0919,8.0445,8.0183,8.0209,7.9701,7.9464,7.9431,7.8686,7.7773,7.669,7.4931,7.4221,7.4255,7.4525,7.465,7.4661,7.4955,7.4525,7.3849,7.3375,7.2665,7.1988,7.1751,7.1602,7.1594,7.1932,7.1964,7.2117,7.3186,7.3161,7.2868,7.3375,7.368,7.3781,7.3567,7.3703,7.3781,7.3567,7.0906,6.8301,6.7083,6.7049,6.6969,6.6237,6.6948,6.776,6.8233,6.8301,6.7996,6.7252,6.7184,6.688,6.6136,6.6068,6.5764,6.5019,6.4275,6.3429,6.2434,6.1434,5.9708,5.7205,5.5446,5.2723,4.9003,0.0,0.0,0.0,0.0,0.0,0.0,0.0,0.0,0.0,0.0,0.0,0.0,0.0,0.0,0.0,0.0,0.0,0.0,0.0,0.0,0.0,0.0,0.0,5.9284,6.4309,6.776,6.7163,7.1018,7.314,7.1763,7.2948,7.4429,7.5886,7.7377,7.8563,7.9284,7.9971,8.0657,8.1402,8.141,8.1731,8.2449,8.2475,8.2483,8.2509,8.2509,8.2509,8.2509,8.2483,8.2475,8.2441,8.2382,8.2408,8.234,8.1629,8.1351,8.0978,7.7266,7.5811,7.5912,7.669,7.6961,7.7029,7.7773,7.7561,7.7,7.7,7.6482,7.5727,7.5015,7.5515,7.5962,7.4207,7.4486,7.5008,7.3969,7.3681,7.3681,7.3635,7.4187,7.4525,7.3781,7.4187,7.4458,7.3713,7.2969,7.2225,7.1492,7.077,7.0026,6.9316,6.918,0.0,6.9147,6.9113,6.8808,6.803,6.7929,6.7624,6.6859,6.5527,6.4952,6.5581,6.3619,6.2415,6.24,6.0926,5.9471,5.8035,5.4329,5.2097,5.1336,0.0,0.0,0.0,0.0,0.0,0.0,0.0,0.0,0.0,0.0,0.0,0.0,0.0,0.0,0.0,0.0,0.0,0.0,0.0,0.0,0.0,6.3091,6.6136,6.5561,6.7827,7.0703,7.3747,7.6462,7.8327,7.8994,8.0232,8.1353,8.2291,8.2782,8.3321,8.4082,8.3482,8.3438,8.4171,8.3356,8.3253,8.3971,8.4005,8.4302,8.4877,8.4877,8.4877,8.4843,8.4242,8.37,8.3186,8.2644,8.2408,8.2408,8.2171,8.2103,8.19,7.9769,7.8653,7.8213,7.8391,7.8145,7.7807,7.8551,7.8879,7.8936,7.8936,7.9329,7.9807,7.9584,7.9138,7.8808,7.9154,7.8859,7.8366,7.8085,7.7995,7.7801,7.6965,7.6918,7.6995,7.6816,7.6487,7.6217,7.6014,7.4897,7.3781,7.3003,7.2259,7.1718,7.1515,7.0567,6.9891,6.9891,6.9417,6.9011,6.8808,6.8774,6.8233,6.6893,6.6914,6.617,6.4241,6.3531,6.2956,6.2434,6.1467,6.0791,6.0351,5.7205,5.5192,0.0,0.0,0.0,0.0,0.0,0.0,0.0,0.0,0.0,0.0,0.0,0.0,0.0,0.0,0.0,0.0,0.0,0.0,0.0,0.0,0.0,0.0,6.8722,7.2445,7.3233,7.4123,7.5641,7.8287,8.0834,8.2728,8.3581,8.4599,8.5542,8.6265,8.6655,8.7187,8.7923,8.6801,8.6324,8.6751,8.5581,8.5148,8.5561,8.5561,8.5824,8.6264,8.6264,8.6264,8.623,8.579,8.5324,8.4911,8.4471,8.4302,8.4268,8.3964,8.3998,8.4072,0.0,0.0,0.0,0.0,8.0975,8.073,8.166,8.2141,8.2333,8.2333,8.2795,8.321,8.2557,8.2213,8.1966,8.1538,8.0901,8.0269,7.9815,7.935,7.8837,7.8172,7.8247,7.8382,7.8068,7.7908,7.7739,7.7401,7.6623,0.0,7.5033,7.3781,7.2868,7.2868,7.2124,7.1447,7.1142,7.0737,7.0263,6.962,6.9553,6.9079,6.7861,6.7286,0.0,0.0,0.0,6.255,6.1467,6.1366,0.0,0.0,0.0,0.0,0.0,5.7983,0.0,0.0,5.6934,5.663,0.0,0.0,0.0,0.0,0.0,0.0,0.0,0.0,0.0,0.0,0.0,0.0,0.0,0.0,0.0,0.0,7.4356,7.8132,8.1095,8.1765,8.1893,8.1757,8.4538,8.6524,8.6737,8.7493,8.8256,8.8946,8.9716,9.0428,9.1082,8.9892,0.0,0.0,0.0,8.7206,8.7144,8.7144,8.7144,8.7144,8.7144,8.711,8.7042,8.7042,8.6974,8.6907,8.6907,8.6907,8.6873,8.6196,8.6406,8.6847,8.4065,8.2979,8.3126,8.4385,8.469,8.4716,8.5847,0.0,0.0,8.6182,8.6268,8.6126,8.4759,8.494,8.5107,8.2901,8.2063,8.1585,8.066,7.9552,7.8646,7.8533,7.8991,7.9295,7.8619,7.8889,7.9025,7.8382,7.8111,7.7773,7.713,7.5202,7.3737,7.3612,7.3567,7.3263,7.2597,7.2529,7.1988,7.0623,7.0432,0.0,6.9282,6.7354,6.6373,6.6757,6.4174,6.2009,6.0554,6.1264,6.1061,5.9757,6.0419,6.1501,6.3043,6.3768,6.485,6.6089,6.0588,5.9539,0.0,0.0,0.0,0.0,0.0,0.0,0.0,0.0,0.0,0.0,0.0,0.0,0.0,0.0,0.0,7.4322,7.8478,8.227,8.4744,8.6973,8.797,8.6979,8.8321,8.9832,9.1128,9.2268,9.2998,9.3124,9.3307,9.3453,9.3579,9.246,9.1595,9.1163,8.9965,8.9107,8.8694,8.8666,8.8666,8.8666,8.8666,0.0,8.7786,8.7786,8.7482,8.6907,8.6907,8.6907,8.6907,8.6771,8.7371,8.8311,8.7129,8.668,8.682,8.81,8.7715,8.6736,8.7573,8.7643,8.7364,8.7364,8.799,8.8672,8.8399,8.7786,0.0,8.7722,8.6465,8.4972,8.4754,8.3844,8.2682,8.1783,8.1663,8.1731,8.1596,8.075,7.9938,7.9803,7.8788,7.7942,7.7807,7.6386,7.5067,7.4492,7.3883,7.3466,7.3331,7.3297,7.2935,7.2056,7.1954,7.1447,7.0094,6.9586,6.8605,6.6893,6.5155,6.3768,6.2868,6.3565,6.4106,6.4377,6.4546,6.5358,6.6846,6.7624,6.847,6.927,6.688,6.6406,0.0,0.0,0.0,0.0,0.0,0.0,0.0,0.0,0.0,0.0,0.0,6.7183,6.949,0.0,7.692,8.0414,8.3667,8.6496,8.8482,9.0755,9.1611,9.0036,9.1241,9.2512,9.333,9.4674,9.5511,9.5511,9.6245,9.6685,9.6685,9.5529,9.4734,9.4472,9.2599,9.147,9.122,9.0549,9.0188,9.0188,8.9816,8.9444,8.9106,8.87,8.8328,8.7989,8.7989,8.8368,8.8993,8.9657,9.0065,9.0369,9.1011,9.0399,8.933,9.0571,9.0567,9.0008,9.0985,9.1188,9.0982,9.0982,9.1122,9.1161,9.0739,8.9935,8.9182,8.9348,8.8126,8.6796,8.6796,8.5502,8.4018,8.3428,8.2854,8.2408,8.2408,8.1528,8.075,8.075,7.9837,7.8991,7.8619,7.7908,7.7029,7.5912,7.5439,7.4897,7.4153,7.4052,7.3781,7.3037,7.2935,7.2631,7.1909,7.1515,7.0669,6.9125,6.8368,6.7624,6.688,6.7557,6.7963,6.795,6.8301,6.8876,6.962,7.0398,7.1142,7.1842,7.1819,7.1616,0.0,0.0,0.0,0.0,0.0,0.0,0.0,0.0,6.357,6.5984,6.9743,7.3583,7.6671,7.891,8.1777,8.6254,8.855,9.0374,9.1986,9.353,9.4071,9.2812,9.3915,9.4887,9.518,9.6392,9.7163,9.7163,9.8374,9.9108,9.9108,9.8115,9.7471,9.7217,9.5149,9.384,9.3477,9.2139,9.1387,9.1223,9.0398,8.9985,8.9951,8.9616,8.9483,8.9477,8.9717,9.0429,9.1474,9.273,9.2986,9.2791,9.4518,9.3891,9.2197,9.3007,9.321,9.3223,9.4218,9.441,9.4299,9.4299,9.3859,9.3198,9.2501,9.184,9.1179,9.0537,8.9525,8.8602,8.8422,8.6835,8.5133,8.4708,8.3899,8.3116,8.2899,8.2238,8.1723,8.1723,8.1021,8.0209,7.9634,7.9431,7.8822,7.7333,7.7096,7.6657,7.5439,7.5134,7.4762,7.4007,7.3804,7.3669,7.3534,7.2935,7.2293,7.1582,7.1492,7.1176,7.0432,7.0973,7.1109,7.0635,7.1345,7.1887,7.2135,7.2902,7.3646,7.4413,7.5743,7.5574,5.1438,5.1945,5.3923,5.7288,5.8923,6.1346,0.0,0.0,7.1817,7.4775,7.8701,8.1778,8.2193,8.5482,8.8581,8.988,9.1546,9.3196,9.4789,9.5215,9.584,9.7027,9.6738,9.6979,9.8411,9.8741,9.8851,9.8851,9.8998,9.9108,9.9108,9.8953,9.8359,9.7239,9.6917,9.588,9.4038,9.2753,9.174,9.1039,8.9812,8.9207,8.9263,9.0311,9.0789,9.0841,9.1954,9.2563,9.2778,9.4057,9.4936,9.5592,9.6243,9.6746,9.6997,9.6436,9.5779,9.5175,9.5307,9.4887,9.4299,9.4299,9.4226,9.4153,9.4042,9.3969,9.3859,9.3786,9.2876,9.1816,9.1094,8.9915,8.8426,8.6602,8.6049,8.5662,8.46,8.3795,8.3253,8.3253,8.2103,8.1148,8.108,8.0513,7.9566,7.8102,7.7899,7.7807,7.7638,7.7063,7.6352,7.554,7.4864,7.4221,7.3567,7.3432,7.3037,7.2326,7.2293,7.1954,7.1188,7.1255,7.1582,7.2124,7.2868,7.3883,7.5202,7.6014,7.6792,7.7527,7.8348,7.7942,5.7103,5.7668,5.9064,6.2369,6.5298,6.8328,7.2115,7.481,7.729,7.991,8.3465,8.6337,8.7286,8.9697,9.1969,9.3216,9.4446,9.5437,9.6098,9.6612,9.6979,9.7163,9.7309,9.786,9.8978,9.9512,9.9805,9.9805,10.0209,10.0503,10.0503,10.0503,10.0322,9.9724,9.8499,9.7253,9.6107,9.391,9.2468,9.1801,9.1152,9.0875,9.0868,9.1724,9.2102,9.2175,9.3432,9.399,9.4101,9.5384,9.6089,9.6441,9.6621,9.6906,9.7163,9.6832,9.6502,9.6208,9.6208,9.5988,9.5694,9.5694,9.5364,9.4997,9.4997,9.4666,9.4299,9.4299,9.3942,9.3467,9.3139,9.2141,9.0849,8.9213,8.8321,8.7345,8.5671,8.4708,8.4031,8.3592,8.2644,8.1934,8.1934,8.1325,8.0615,8.0031,7.9194,7.8483,7.8044,7.7705,7.7401,7.7063,7.6758,7.6454,7.6173,7.6139,7.6004,7.5676,7.5642,7.5506,7.5202,7.5202,7.5337,7.5642,7.5946,7.6444,7.7029,7.7807,7.8551,7.9295,8.004,8.0276,6.0839,6.2329,6.4358,6.7457,7.1106,7.4494,7.6495,7.9198,8.192,8.4047,8.6829,8.9307,9.0702,9.2317,9.3969,9.5584,9.6502,9.7016,9.7016,9.7346,9.7346,9.6759,9.7016,9.764,9.8668,9.9695,10.0393,10.0613,10.122,10.1514,10.1514,10.1514,10.1404,10.122,9.965,9.8459,9.7608,9.5177,9.3676,9.3054,9.2574,9.2326,9.2342,9.3073,9.3628,9.4012,9.4912,9.5343,9.5405,9.6338,9.6832,9.7016,9.6795,9.6832,9.7016,9.6795,9.6685,9.6685,9.6685,9.6685,9.6685,9.6685,9.6318,9.5822,9.5822,9.5437,9.496,9.496,9.496,9.4923,9.4703,9.3983,9.2874,9.1019,8.9916,8.8722,8.6567,8.5486,8.4776,8.4234,8.3355,8.2712,8.2712,8.2103,8.1596,8.1596,8.0682,7.9667,7.872,7.8416,7.8213,7.8034,7.8,7.8,7.8,7.8,7.8,7.8,7.8,7.8,7.8,7.8,7.8102,7.828,7.8483,7.8711,7.8914,7.9667,8.0276,8.0818,8.1562,8.2306,6.0769,6.4473,6.9244,7.2494,7.5765,7.905,8.2105,8.4279,8.608,8.7694,8.9363,9.0812,9.1711,9.318,9.4777,9.6392,9.7346,9.786,9.786,9.7199,9.6722,9.6685,9.6025,9.6208,9.7787,9.9365,10.0613,10.1404,10.1514,10.1514,10.1514,10.1514,10.109,10.0393,10.0299,9.9489,9.7909,9.6597,9.5527,9.472,9.3481,9.2884,9.2932,9.4181,9.5426,9.6589,9.6628,9.6647,9.6647,9.6666,9.7163,9.7806,9.7016,9.7163,9.775,9.6979,9.6685,9.6685,9.6685,9.6685,9.6685,9.6685,9.6685,9.6649,9.6649,9.6649,9.6612,9.6612,9.6612,9.6465,9.5694,9.5436,9.4584,9.1363,9.0595,8.9868,8.7427,8.6298,8.5784,8.575,8.4505,8.3456,8.3456,8.2847,8.2374,8.2374,8.234,8.1799,8.031,7.9532,7.8788,7.8102,7.8,7.8,7.8,7.8,7.8,7.8,7.8,7.8,7.8,7.8,7.8348,7.9034,7.9769,8.0479,8.1215,8.1934,8.2306,8.2374,8.3084,8.3828,6.6723,7.0123,7.3742,7.7433,8.0872,8.3722,8.5331,8.6969,8.8482,8.9564,8.9803,9.006,9.0886,9.1913,9.3161,9.485,9.6685,9.808,9.8631,9.8924,9.83,9.6171,9.6612,9.6906,9.6355,9.775,9.9255,10.0613,10.0686,10.0907,10.1514,10.1514,10.109,10.0319,10.0283,9.9355,9.7407,9.6465,9.5422,9.4262,9.4195,9.4597,9.5446,9.5887,9.6282,9.6685,9.6685,9.6685,9.6685,9.6685,9.6869,9.7089,9.6795,9.6869,9.7052,9.6795,9.6685,9.6685,9.6685,9.6685,9.6685,9.6685,9.6685,9.6685,9.6685,9.6685,9.6685,9.6685,9.6685,9.6649,9.6392,9.6318,9.5573,9.2789,9.2141,9.1286,8.8279,8.7414,8.711,8.6636,8.5723,8.5039,8.5039,8.3964,8.2949,8.2475,8.2408,8.2035,8.1054,8.0716,8.0276,7.9532,7.9895,8.02,8.02,8.0648,8.0919,8.0919,8.0919,8.0919,8.0919,8.0919,8.1054,8.1266,8.1528,8.1799,8.2035,8.278,8.3389,8.387,8.4674,8.5418,7.1722,7.5388,7.882,8.2172,8.5074,8.7288,8.8096,8.9069,8.9987,9.0482,8.973,8.9106,8.9674,8.9711,9.0592,9.3418,9.5401,9.7199,9.8888,9.9292,9.8557,9.6208,9.6575,9.6649,9.5602,9.6685,9.8264,10.0209,10.0283,10.0706,10.1514,10.1514,10.109,10.0319,10.0283,9.9501,9.7827,9.7049,9.6089,9.4965,9.5293,9.5907,9.6685,9.6685,9.6685,9.6685,9.6685,9.6685,9.6685,9.6685,9.6685,9.6685,9.6685,9.6685,9.6685,9.6685,9.6685,9.6685,9.6685,9.6685,9.6685,9.6685,9.6685,9.6685,9.6685,9.6685,9.6685,9.6685,9.6685,9.6589,9.6143,9.6007,9.5384,9.2825,9.22,9.1526,8.8953,8.8192,8.7854,8.738,8.6467,8.5885,8.6129,8.5384,8.4471,8.3727,8.3625,8.3152,8.1866,8.1697,8.1494,8.1054,8.1393,8.1697,8.1697,8.2137,8.2408,8.2408,8.2408,8.2408,8.2408,8.2644,8.2915,8.3159,8.349,8.3761,8.4031,8.4471,8.4979,8.5425,8.596,8.6602,7.567,8.0041,8.4188,8.6537,8.8299,8.9657,9.0445,9.0592,9.0592,9.0482,8.9124,8.7912,0.0,8.6664,8.7288,9.2134,9.3749,9.5547,9.8778,9.8557,9.775,0.0,0.0,0.0,0.0,0.0,9.7676,9.9989,10.0209,10.0613,10.1404,10.1514,10.109,10.0319,10.0319,9.9952,9.9108,9.8337,9.7566,9.6832,9.6832,9.6832,9.6832,9.6832,9.6795,9.6759,9.6759,9.6722,9.6685,9.6685,9.6685,9.6685,9.6685,9.6685,9.6685,9.6685,9.6685,9.6685,9.6685,9.6685,9.6685,9.6685,9.6685,9.6685,9.6685,9.6685,9.6685,9.6685,9.6685,9.6416,9.5118,9.4784,9.4159,9.1625,9.1022,9.0632,8.9373,8.8497,8.7989,8.7989,8.6839,8.6061,8.6738,8.6873,8.667,8.596,8.5885,8.5012,8.2746,8.2475,8.2441,8.2408,8.2441,8.2475,8.2475,8.2543,8.2577,8.2577,8.2611,8.2644,8.2644,8.3287,8.3998,8.4715,8.5452,8.6196,8.6907,8.6907,8.6941,8.6974,8.7008,8.7414,8.0678,8.4217,8.7288,8.8482,8.9546,9.0354,9.0555,9.0592,9.0262,8.905,8.6591,8.4262,8.3067,8.3985,8.6114,8.973,9.3602,9.7199,10.0393,10.0706,9.9862,9.7823,0.0,9.7474,9.5675,9.6245,9.7199,9.8411,9.9071,9.9769,10.0576,10.122,10.109,10.0319,10.0927,10.0503,9.9108,9.8924,9.8704,9.8484,9.8484,9.8484,9.8484,9.8484,9.8154,9.7566,9.7566,9.7236,9.6685,9.6685,9.6685,9.6685,9.6685,9.6685,9.6685,9.6685,9.6685,9.6685,9.6685,9.6685,9.6685,9.6685,9.6685,9.6685,9.6685,9.6685,9.6685,9.6685,9.6685,9.6416,9.5118,9.4784,9.4159,9.1625,9.1022,9.0632,8.9373,8.8497,8.7989,8.7989,8.7245,8.6501,8.6129,8.6535,8.6839,8.667,8.6636,8.579,8.3524,8.3219,8.3016,8.2475,8.2881,8.3219,8.3219,8.4268,8.4911,8.4911,8.5452,8.573,8.573,8.5926,8.6129,8.6305,8.6535,8.6704,8.6907,8.6907,8.7177,8.7719,8.826,8.8937,8.4188,8.7362,8.9821,8.9913,9.0831,9.1253,8.9436,8.8996,8.8169,8.5123,8.248,8.0225,7.861,8.0314,8.3141,8.6721,9.1693,9.6355,9.9952,10.0816,10.0523,0.0,9.9365,0.0,9.6759,9.7273,9.764,9.7383,9.8447,9.9475,10.0283,10.111,10.1294,10.0796,10.1294,10.0907,9.9659,9.9622,9.9475,9.9108,9.9108,9.9108,9.9108,9.9108,9.8851,9.8411,9.8411,9.8154,9.775,9.7383,9.7236,9.7236,9.7236,9.7236,9.7273,9.764,9.775,9.775,9.775,9.775,9.764,9.6942,9.6685,9.6685,9.6685,9.6685,9.6685,9.6685,9.6318,9.5549,9.4314,9.356,9.2611,9.0632,9.017,8.9989,8.9268,8.8767,8.8395,8.8057,8.7922,8.7617,8.6873,8.711,8.7279,8.6974,8.6636,8.596,8.4674,8.4776,8.4843,8.4437,8.4742,8.4979,8.4979,8.579,8.6264,8.6264,8.667,8.6907,8.6907,8.7211,8.738,8.738,8.7719,8.7854,8.7854,8.8192,8.8564,8.897,8.9715,9.029,8.7014,8.9821,9.1895,9.1143,9.1877,9.1767,8.7858,8.6574,8.4903,8.0257,7.7818,7.6078,7.4683,7.6644,7.9837,8.4205,8.9528,9.4593,9.8814,9.9916,10.0283,10.0283,10.0209,9.9548,9.8043,9.8521,9.8374,9.6942,9.8337,9.9512,10.0099,10.098,10.1514,10.1514,10.1514,10.122,10.0503,10.0503,10.0099,9.9438,9.9438,9.9438,9.9438,9.9438,9.9365,9.9255,9.9255,9.9145,9.8888,9.819,9.7843,9.775,9.786,9.7916,9.8007,9.8814,9.9108,9.9108,9.9108,9.9108,9.8888,9.7456,9.7016,9.7016,9.6906,9.6736,9.6582,9.6472,9.5529,9.427,9.2967,9.184,9.0692,8.94,8.91,8.91,8.91,8.9032,8.8761,8.7989,8.8429,8.8728,8.7989,8.7922,8.7753,8.7008,8.6366,8.5953,8.5953,8.6433,8.6805,8.6907,8.6907,8.6907,8.6907,8.7008,8.7076,8.7076,8.7144,8.7211,8.7211,8.782,8.8158,8.8158,8.8767,8.91,8.91,8.985,9.0222,9.0222,9.1068,9.144,9.0555,9.195,9.2868,9.2721,9.184,9.0335,8.7601,8.4409,0.0,7.7488,7.439,7.2261,7.1967,7.4977,7.9528,8.5583,9.0262,9.496,10.0283,10.0613,10.0283,10.0283,9.9695,9.8924,9.797,9.8007,9.797,9.7713,9.9181,9.9879,9.9365,10.0686,10.1514,10.1514,10.1514,10.1384,10.1294,10.1294,10.12,10.111,10.111,10.111,10.111,10.111,10.0686,10.0099,10.0099,9.9328,9.808,9.7953,9.7493,9.6979,9.764,9.7916,9.8007,9.8814,9.9108,9.9108,9.9108,9.9108,9.9071,9.8758,9.8704,9.8557,9.7897,9.6972,9.5972,9.532,9.419,9.2944,9.1665,9.1168,9.0692,8.94,8.91,8.91,8.91,8.8598,8.7955,8.7245,8.7685,8.7955,8.7211,8.7617,8.7753,8.7008,8.6805,8.6704,8.6704,8.6298,8.623,8.6839,8.6907,8.6907,8.6907,8.7448,8.782,8.782,8.8361,8.8728,8.8728,8.8835,8.8903,8.8903,8.9032,8.91,8.91,8.985,9.0222,9.0256,9.158,9.2189,9.151,9.3051,9.4153,9.3308,9.217,8.9821,8.4462,0.0,0.0,7.2202,6.9889,6.8665,6.8261,7.1821,7.6225,8.0608,8.5123,9.0335,9.6832,9.7419,9.7933,10.0099,9.9952,9.9255,9.8007,9.7916,9.7733,9.7309,9.8778,9.9695,9.9732,10.089,10.1514,10.1514,10.1514,10.1514,10.1514,10.1514,10.1514,10.1514,10.1514,10.1514,10.1514,10.1514,10.1294,10.0907,10.0907,10.0523,9.9752,9.9328,9.8924,9.8594,9.8998,9.9145,9.9255,10.0099,10.0319,10.0319,10.0319,10.0319,10.0319,10.0319,9.9769,9.8879,9.7802,9.6808,9.578,9.4683,9.3191,9.1766,9.1142,9.0508,8.9853,8.9268,8.91,8.91,8.91,8.8801,8.8463,8.8091,8.8328,8.8463,8.8091,8.8023,8.7888,8.7516,8.7144,8.7042,8.7414,8.7144,8.7076,8.7448,8.782,8.8023,8.8023,8.8361,8.8564,8.8564,8.8897,8.91,8.91,8.9444,8.9681,8.9681,9.0053,9.0222,9.0222,9.1,9.1343,9.1343,9.2522,9.303,9.206,9.3896,9.5161,9.3712,9.2317,8.9271,8.1578,7.7965,7.4353,6.765,6.5962,6.5632,6.5362,6.8678,7.2532,7.5836,7.991,8.538,9.3198,9.4299,9.5768,9.9805,10.0099,9.9475,9.8063,9.7916,9.764,9.7016,9.8447,9.9695,10.0503,10.122,10.1514,10.1514,10.1514,10.1514,10.1514,10.1514,10.1514,10.1514,10.1514,10.1514,10.1514,10.1514,10.1514,10.1514,10.1514,10.1404,10.122,10.0576,10.0209,10.0099,10.0209,10.0283,10.0393,10.122,10.1514,10.1514,10.1514,10.1514,10.1514,10.1514,10.0509,9.8952,9.7738,9.6473,9.5145,9.3932,9.2272,9.0794,9.0648,8.999,8.9303,8.9134,8.91,8.91,8.91,8.91,8.91,8.91,8.91,8.9066,8.8869,8.8361,8.7955,8.7786,8.7279,8.711,8.7685,8.7888,8.7989,8.7989,8.8632,8.91,8.91,8.91,8.91,8.91,8.91,8.91,8.91,8.9816,9.0222,9.0222,9.0932,9.1305,9.1305,9.2049,9.2392,9.2426,9.3233,9.3601,9.3639,9.4777,9.529,9.441,9.1877,8.7895,8.1321,0.0,7.149,6.6463,6.4187,6.3563,6.5031,6.6843,7.011,7.6188,7.8846,8.3451,9.2941,9.4299,9.5768,9.9805,9.9659,9.8888,9.799,9.7916,9.7879,9.7787,9.9292,10.0503,10.131,10.1514,10.1514,10.1514,10.1514,10.1514,10.1514,10.1514,10.1514,10.1514,10.1514,10.1514,10.1514,10.1514,10.1514,10.1514,10.1514,10.111,10.0393,10.0319,9.9879,9.9292,9.9989,10.0283,10.0393,10.122,10.1514,10.1514,10.1514,10.1514,10.1514,10.1514,10.0615,9.9306,9.8451,9.6019,9.3364,9.2513,9.1314,9.0115,8.9465,8.9692,8.9918,8.9269,8.91,8.91,8.91,8.91,8.91,8.91,8.91,8.8897,8.8226,8.8023,8.7786,8.711,8.6941,8.6941,8.7008,8.7583,8.7989,8.7989,8.8632,8.91,8.91,8.91,8.91,8.91,8.91,8.91,8.91,8.9816,9.0222,9.0222,9.0932,9.1305,9.1305,9.2049,9.2392,9.2426,9.3233,9.3601,9.3455,9.5254,9.5914,9.463,9.184,8.7455,8.0057,7.5322,7.0844,6.4995,6.327,6.3013,6.3673,6.4751,6.6856,7.0881,7.2069,7.5741,8.5013,8.6297,8.872,9.5217,9.6098,9.6465,9.7126,9.7163,9.7566,9.8557,9.9218,10.0099,10.1384,10.1514,10.1514,10.1514,10.1514,10.1514,10.1514,10.1514,10.1514,10.1514,10.1514,10.1514,10.1514,10.1514,10.1514,10.1514,10.1514,10.1274,10.098,10.098,10.0796,10.0576,10.0907,10.098,10.111,10.1404,10.1514,10.1514,10.1514,10.1514,10.1514,10.1514,9.9985,9.8242,9.7932,9.6011,9.3738,9.2604,9.1591,9.0797,9.0493,9.0324,9.0121,8.9816,8.941,8.91,8.91,8.91,8.91,8.91,8.91,8.9032,8.87,8.8632,8.8564,8.826,8.8226,8.8226,8.8226,8.8463,8.8835,8.9275,8.9173,8.91,8.91,8.91,8.9275,8.9715,8.9748,8.9951,9.0391,9.1135,9.1513,9.1513,9.2286,9.2658,9.2721,9.2962,9.3368,9.3778,9.3639,9.3842,9.2758,9.496,9.5658,9.4299,9.1143,8.6354,7.8772,7.4331,7.0073,6.404,6.2793,6.2793,6.2793,6.3503,6.4727,6.6659,6.7981,7.1468,7.9213,8.1122,8.4168,9.0849,9.2574,9.3749,9.5107,9.6135,9.7383,9.8998,9.9108,9.9805,10.1404,10.1514,10.1514,10.1514,10.1514,10.1514,10.1514,10.1514,10.1514,10.1514,10.1514,10.1514,10.1514,10.1514,10.1514,10.1514,10.1514,10.1514,10.1514,10.1514,10.1514,10.1514,10.1514,10.1514,10.1514,10.1514,10.1514,10.1514,10.1514,10.1514,10.1514,10.1514,9.9712,9.7474,9.7474,9.5786,9.3614,9.2677,9.188,9.1338,9.1575,9.1068,9.0527,9.0527,9.0121,8.9777,8.9777,8.9777,8.9777,8.9777,8.9777,8.9777,8.9777,8.9777,8.9777,8.9777,8.9574,8.9478,8.9715,8.9545,8.9715,9.0459,9.0053,8.9777,8.9777,8.9545,8.9748,9.0493,9.0527,9.0763,9.1271,9.2015,9.2392,9.2392,9.3199,9.3706,9.3909,9.3706,9.4079,9.5026,9.4282,9.4214,9.1803,9.3712,9.4116,9.3308,8.9454,8.4132,7.7598,7.301,6.8715,6.382,6.2793,6.2793,6.2793,6.3503,6.4347,6.5178,6.8665,7.2995,7.7928,8.1379,8.4592,8.7876,8.9674,9.0959,9.1767,9.4777,9.7383,9.8998,9.9108,9.9805,10.1404,10.1514,10.1514,10.1514,10.1514,10.1514,10.1514,10.1514,10.1514,10.1514,10.1514,10.1514,10.1514,10.1514,10.1514,10.1514,10.1514,10.1514,10.1514,10.1514,10.1514,10.1514,10.1514,10.1514,10.1514,10.1514,10.1514,10.1514,10.1514,10.1514,10.1514,10.1514,9.9712,9.7474,9.7474,9.5107,9.2421,9.2392,9.188,9.1474,9.2189,9.1846,9.1271,9.1271,9.1271,9.1271,9.1271,9.1271,9.1271,9.1271,9.1271,9.1271,9.1271,9.1271,9.1271,9.1271,9.0662,9.0459,9.1169,9.0628,9.0493,9.1203,9.1271,9.1271,9.1271,9.0628,9.0493,9.1237,9.1271,9.1271,9.1305,9.2015,9.2392,9.2392,9.3199,9.3943,9.4687,9.3943,9.4349,9.577,9.5026,9.4687,8.5289,8.7472,8.8169,8.6811,8.4499,8.0975,7.4992,7.1798,6.8715,6.382,6.2793,6.2793,6.2793,6.3013,6.4383,6.8017,6.9633,7.2165,7.7032,8.0534,8.3581,8.6224,9.0922,9.4244,9.507,9.6098,9.7383,9.8998,9.9108,9.9548,10.0613,10.0686,10.0907,10.1514,10.1514,10.1514,10.1514,10.1514,10.1514,10.1514,10.1514,10.1514,10.1514,10.1514,10.1514,10.1514,10.1514,10.1514,10.1514,10.1514,10.1514,10.1514,10.1514,10.1514,10.1514,10.1514,10.1514,10.1514,10.1514,10.1514,10.1514,10.1514,10.0296,9.8691,9.777,9.5488,9.3199,9.3199,9.303,9.2928,9.3165,9.2658,9.202,9.202,9.1677,9.1305,9.1305,9.1305,9.1305,9.1305,9.1305,9.1305,9.1305,9.1305,9.1305,9.1305,9.1102,9.1034,9.1271,9.1102,9.1237,9.1981,9.1609,9.1305,9.1305,9.1102,9.1271,9.2015,9.202,9.2319,9.2827,9.3571,9.3947,9.3947,9.4721,9.5229,9.5466,9.5229,9.533,9.5804,9.6074,9.5939,8.0461,8.3214,8.4205,8.3214,8.1048,7.7892,7.3105,7.033,6.7614,6.36,6.2793,6.2793,6.2793,6.305,6.431,6.732,6.9376,7.1725,7.5014,7.9103,8.3104,8.6738,9.0996,9.4336,9.6061,9.6502,9.7236,9.8557,9.8668,9.8998,9.9805,9.9842,10.0099,10.0576,10.0907,10.098,10.098,10.131,10.1514,10.1514,10.1514,10.1514,10.1514,10.1514,10.1514,10.1514,10.1514,10.1514,0.0,10.1514,10.1514,10.1514,10.1514,10.1514,10.1514,10.1514,10.1514,10.1514,10.1514,10.1514,10.1514,10.1514,10.0289,9.8503,9.7123,9.5261,9.3601,9.3601,9.3601,9.3601,9.3601,9.3233,9.2861,9.2861,9.2489,9.215,9.215,9.215,9.215,9.215,9.215,9.215,9.215,9.215,9.215,9.215,9.1913,9.1812,9.2116,9.1913,9.2015,9.2793,9.2421,9.215,9.215,9.188,9.2184,9.3203,9.3271,9.3639,9.4383,9.4857,9.5127,9.5127,9.5567,9.5939,9.621,9.648,9.648,9.621,9.6954,9.692,0.0,7.9963,8.1232,8.1158,7.8295,7.4698,7.1564,6.8554,0.0,6.3306,6.2793,6.2829,6.2976,6.3539,6.4176,6.4617,6.8421,7.1674,7.2716,7.7745,8.3454,8.9143,9.0501,9.217,9.5273,9.6245,9.7016,9.7843,9.7916,9.8227,9.8961,9.9035,9.8978,9.8905,9.9695,10.0209,10.0209,10.098,10.1404,10.1274,10.1404,10.1404,10.1404,10.1514,10.1514,10.1514,10.1514,10.1514,10.1514,10.1514,10.1514,10.1514,10.1514,10.1514,10.1514,10.1514,10.1514,10.1514,10.1514,10.1514,10.1514,10.1514,9.9757,9.7374,9.6055,9.4697,9.3601,9.3601,9.3601,9.3601,9.3601,9.3601,9.3601,9.3601,9.3601,9.3601,9.3601,9.3601,9.3601,9.3601,9.3601,9.3601,9.3601,9.3601,9.3601,9.3601,9.2962,9.2759,9.347,9.2962,9.2793,9.3503,9.3668,9.3702,9.3702,9.2996,9.317,9.462,9.4755,9.5093,9.577,9.5838,9.5872,9.5872,9.5939,9.6277,9.6985,9.7664,9.7664,9.7018,9.7698,9.7631,6.7223,0.0,7.1872,7.1262,7.0381,6.9155,0.0,6.6132,6.5031,6.3196,6.2793,6.3196,6.4481,6.382,6.4738,6.9706,7.094,7.2445,7.5711,8.1085,8.6995,9.3308,9.4226,9.4887,9.6282,9.6575,9.7016,9.7843,9.7916,9.799,9.8154,9.819,9.7897,9.7273,9.8043,9.8741,9.9402,10.0209,10.0283,9.9659,10.0283,10.0576,10.0613,10.12,10.1514,10.1514,10.1514,10.1514,10.1514,10.1514,10.1514,10.1514,10.1514,10.1514,10.1514,10.1514,10.1514,10.1514,10.1514,10.1514,10.1514,10.1514,10.0396,9.8761,9.746,9.5425,9.3601,9.3601,9.3601,9.3601,9.3601,9.3601,9.3601,9.3601,9.3601,9.3601,9.3601,9.3601,9.3601,9.3601,9.3601,9.3601,9.3601,9.3601,9.3601,9.3601,9.3436,9.3368,9.3601,9.3436,9.3368,9.3601,9.4112,9.4451,9.4451,9.4282,9.4315,9.4687,9.5229,9.5601,9.5804,9.6345,9.6646,9.6646,9.7191,9.7563,9.7732,9.7935,9.7901,9.7766,9.7935,9.7901,6.2401,6.5595,6.8898,6.8825,6.8531,6.7907,6.6696,6.5558,6.4383,6.3086,0.0,6.3086,6.4004,6.404,6.5215,6.9119,7.094,7.4023,8.0298,8.4499,8.916,9.5327,9.5731,9.5951,9.7126,9.6906,9.6869,9.7309,9.7346,9.7346,9.7346,9.7346,9.7163,9.6722,9.7456,9.8117,9.8557,9.9365,9.9548,9.9108,9.9916,10.0283,10.0319,10.109,10.1514,10.1514,10.1514,10.1514,10.1514,10.1514,10.1514,10.1514,10.1514,10.1514,10.1514,10.1514,10.1514,10.1514,10.1514,10.1514,10.1514,10.1514,10.0603,9.9235,9.7927,9.6082,9.4363,9.3743,9.3601,9.3601,9.3601,9.3601,9.3601,9.3601,9.3601,9.3601,9.3601,9.3601,9.3702,9.4045,9.3808,9.3706,9.4045,9.3808,9.3601,9.3601,9.3601,9.3601,9.3601,9.3601,9.3736,9.4079,9.4451,9.4857,9.5195,9.5499,9.5702,9.5702,9.6074,9.6447,9.6785,9.7191,9.7394,9.7394,9.78,9.8003,9.8003,9.8003,9.8003,9.8003,9.8003,9.8003,6.0823,6.4677,6.8568,6.8752,6.8568,6.8091,6.7173,0.0,0.0,0.0,0.0,6.2939,6.3453,6.4591,6.5985,6.754,7.1174,7.668,8.4976,8.7545,9.0592,9.6061,9.6098,9.6208,9.7566,9.7089,9.6685,9.6685,9.6685,9.6685,9.6685,9.6685,9.6685,9.6685,9.7346,9.7713,9.7713,9.8521,9.8924,9.8924,9.9732,10.0209,10.0319,10.109,10.1514,10.1514,10.1514,10.1514,10.1514,10.1514,10.1514,10.1514,10.1514,10.1514,10.1514,10.1514,10.1514,10.1514,10.1514,10.1514,10.1514,10.1514,10.0693,9.9565,9.8217,9.687,9.5519,9.422,9.3743,9.3601,9.3601,9.3601,9.3601,9.3601,9.3601,9.3601,9.3601,9.3673,9.3943,9.4586,9.4282,9.4112,9.4755,9.4349,9.3939,9.3939,9.3939,9.3939,9.3939,9.3939,9.418,9.4823,9.4992,9.5296,9.5905,9.6616,9.7056,9.7056,9.7056,9.736,9.7969,9.8003,9.8003,9.8003,9.8003,9.8003,9.8003,9.8003,9.8003,9.8003,9.8003,9.807,6.2768,6.5154,6.6219,6.3576,6.4383,6.5435,6.3894,6.327,6.2976,6.2829,6.2793,6.3637,6.6452,6.6586,6.7907,7.2812,7.7047,8.1599,8.7068,8.9234,9.184,9.6171,9.6575,9.6612,9.6869,9.6759,9.6685,9.6685,9.6685,9.6685,9.6685,9.6685,9.6685,9.6685,9.6832,9.6869,9.6869,9.7676,9.808,9.808,9.8888,9.9659,10.0319,10.109,10.1514,10.1514,10.1514,10.1514,10.1514,10.1514,10.1514,10.1514,10.1514,10.1514,10.1514,10.1514,10.1514,10.1514,10.1514,10.1514,10.1514,10.1514,10.1393,10.0897,9.9587,9.8265,9.693,9.5581,9.4449,9.3601,9.3601,9.3601,9.3601,9.3601,9.3601,9.3601,9.3601,9.4079,9.4552,9.4687,9.5127,9.5499,9.5601,9.5533,9.5466,9.5466,9.5466,9.5466,9.5466,9.5466,9.5499,9.5601,9.6176,9.6612,9.6748,9.7394,9.7834,9.7834,9.7834,9.7867,9.8003,9.8003,9.8003,9.8003,9.8003,9.8003,9.8003,9.8003,9.8003,9.8003,9.8003,9.8341,6.0382,6.2622,6.4347,6.3759,6.6096,6.8224,6.7026,6.6072,6.5448,6.5448,6.5448,6.6035,6.7981,6.9449,7.2239,7.7928,8.1158,8.4499,8.8867,9.0519,9.2611,9.6282,9.6685,9.6685,9.6685,9.6685,9.6685,9.6685,9.6685,9.6685,9.6685,9.6685,9.6685,9.6685,9.6685,9.6685,9.6685,9.7052,9.7236,9.7273,9.8521,9.9292,9.9695,10.0907,10.1514,10.1514,10.1514,10.1514,10.1514,10.1514,10.1514,10.1514,10.1514,10.1514,10.1514,10.1514,10.1514,10.1514,10.1514,10.1514,10.1514,10.1514,10.1514,10.1181,9.9911,9.855,9.7199,9.5896,9.4584,9.3601,9.3601,9.3601,9.3702,9.4112,9.418,9.4282,9.4687,9.506,9.5398,9.5804,9.5838,9.5939,9.6311,9.6041,9.5804,9.5804,9.5804,9.5804,9.5804,9.5804,9.5939,9.6345,9.6714,9.7086,9.7461,9.78,9.8172,9.8578,9.824,9.8375,9.9187,9.8815,9.8781,9.9155,9.8815,9.8781,9.9221,9.8781,9.8815,9.9221,9.9221,9.939,5.9501,6.1374,6.36,6.5618,6.8187,7.0316,7.0844,6.9426,0.0,0.0,6.8802,6.8862,6.9853,7.3266,7.7414,8.1782,8.4646,8.7435,9.0739,9.1877,9.3455,9.6355,9.6685,9.6685,9.6685,9.6685,9.6685,9.6685,9.6685,9.6685,9.6685,9.6685,9.6685,9.6685,9.6685,9.6685,9.6685,9.6685,9.6795,9.7016,9.8227,9.9035,9.9438,10.0706,10.1274,10.1514,10.1514,10.1514,10.1514,10.1514,10.1514,10.1514,10.1514,10.1514,10.1514,10.1514,10.1514,10.1514,10.1514,10.1514,10.1514,10.1514,10.1514,10.1315,10.031,9.8785,9.7349,9.6639,9.5213,9.3808,9.3639,9.3736,9.3977,9.4586,9.4823,9.5127,9.5669,9.5939,9.621,9.6815,9.6582,9.648,9.7056,9.6683,9.6311,9.6311,9.6311,9.6311,9.6311,9.6311,9.6514,9.7089,9.7188,9.7394,9.7969,9.8003,9.8409,9.9288,9.851,9.8679,10.0102,9.9322,9.9288,10.017,9.9491,9.9457,10.0204,9.9627,9.966,10.0204,10.0204,10.0272,6.393,6.4383,6.4751,6.7857,6.776,0.0,7.2437,7.1027,0.0,7.2657,0.0,7.149,7.3083,7.8479,8.283,8.3234,8.7839,9.1748,9.2758,9.3602,9.474,9.6502,9.6685,9.6685,9.6685,9.6685,9.6685,9.6685,9.6685,9.6685,9.6685,9.6685,9.6685,9.6685,9.6685,9.6685,9.6685,9.6685,9.7052,9.7843,9.7933,9.8778,10.0209,10.0319,10.0796,10.1514,10.1514,10.1514,10.1514,10.1514,10.1514,10.1514,10.1514,10.1514,10.1514,10.1514,10.1514,10.1514,10.1514,10.1514,10.1514,10.1514,10.1514,10.1494,10.1413,9.9542,9.7721,9.8913,9.7001,9.4451,9.3774,9.4112,9.4654,9.4687,9.5229,9.5736,9.577,9.6311,9.6849,9.6883,9.7394,9.7867,9.7901,9.7901,9.7834,9.7834,9.7834,9.7834,9.7834,9.7834,9.7867,9.7935,9.7935,9.7935,9.8003,9.8003,9.8612,10.0001,9.8815,9.8679,10.0102,9.8848,9.8747,10.0202,9.9491,9.9457,10.0204,10.0102,10.0102,10.0204,10.0204,10.0608,6.1325,6.2768,6.4874,6.8091,6.9178,0.0,0.0,7.4698,7.5579,7.7781,7.7781,0.0,7.8148,8.1489,8.4462,8.5473,8.9601,9.2941,9.3712,9.4556,9.5474,9.6575,9.6685,9.6685,9.6685,9.6685,9.6685,9.6685,9.6685,9.6685,9.6685,9.6685,9.6685,9.6685,9.6685,9.6685,9.6685,9.6685,9.6832,9.7163,9.764,9.8227,9.8814,9.9842,10.0503,10.0796,10.1294,10.1514,10.1514,10.1514,10.1514,10.1514,10.1514,10.1514,10.1514,10.1514,10.1514,10.1514,10.1514,10.1514,10.1514,10.1514,10.1514,10.1299,10.0503,9.9542,9.861,9.796,9.6897,9.5874,9.5599,9.5458,9.5499,9.5939,9.6277,9.6582,9.7089,9.7394,9.7597,9.7597,9.78,9.8003,9.8003,9.8003,9.8003,9.8003,9.8003,9.8003,9.8003,9.8003,9.8003,9.8003,9.8003,9.8003,9.8003,9.8003,9.851,9.9694,9.8645,9.8882,10.0878,9.9931,9.9863,10.0912,10.0707,10.0878,10.159,10.1183,10.1183,10.159,10.159,10.1792,6.0554,6.1985,6.4457,6.7724,0.0,0.0,7.5968,7.8148,8.0094,8.2737,8.2663,8.2076,8.1803,8.3728,8.571,8.6794,9.0629,9.3675,9.4226,9.4997,9.5785,9.6612,9.6685,9.6685,9.6685,9.6685,9.6685,9.6685,9.6685,9.6685,9.6685,9.6685,9.6685,9.6685,9.6685,9.6685,9.6685,9.6685,9.6685,9.6722,9.7273,9.764,9.7953,9.9035,9.9659,9.9952,10.0503,10.0907,10.109,10.109,10.1294,10.1514,10.1514,10.1514,10.1514,10.1514,10.1514,10.1514,10.1514,10.1514,10.1514,10.1514,10.1514,10.1299,10.0418,9.9542,9.8681,9.7854,9.7024,9.6507,9.6948,9.6611,9.6244,9.6781,9.7086,9.7394,9.7901,9.8003,9.8003,9.8003,9.8003,9.8003,9.8003,9.8003,9.8003,9.8003,9.8003,9.8003,9.8003,9.8003,9.8003,9.8003,9.8003,9.8003,9.8003,9.8003,9.8442,9.9455,9.9153,9.9796,10.169,10.0811,10.0709,10.169,10.1487,10.1824,10.2502,10.1995,10.1995,10.2502,10.2502,10.2502,6.3013,6.2793,6.36,6.6893,6.9559,7.3068,7.9564,8.1048,8.2406,8.7252,8.6334,8.4389,8.3601,8.5399,8.7014,8.7014,9.1106,9.4299,9.4299,9.4997,9.5804,9.6612,9.6685,9.6685,9.6685,9.6685,9.6685,9.6685,9.6685,9.6685,9.6685,9.6685,9.6685,9.6685,9.6685,9.6685,9.6685,9.6685,9.6685,9.6685,9.6685,9.7126,9.7897,9.7916,9.8337,9.9088,9.9108,9.9548,10.0283,10.0283,10.0796,10.1514,10.1514,10.1514,10.1514,10.1514,10.1514,10.1514,10.1514,10.1514,10.1514,10.1514,10.1514,10.1514,10.1494,9.9609,9.777,9.9098,9.7692,9.6126,9.7434,9.7369,9.6917,9.6917,9.7461,9.8003,9.8003,9.8003,9.8003,9.8003,9.8003,9.8003,9.8003,9.8003,9.8003,9.8003,9.8003,9.8003,9.8003,9.8003,9.8003,9.8003,9.8003,9.8003,9.8003,9.8037,9.8442,9.9489,10.0405,10.1419,10.2402,10.0982,10.088,10.2502,10.1792,10.1792,10.2502,10.2502,10.2502,10.2502,10.2502,10.2502,6.0958,6.2793,6.6035,6.8715,7.3391,7.8662,8.4022,8.5216,0.0,9.0776,8.9711,8.7711,8.6921,8.7362,8.7839,8.7839,9.1473,9.4299,9.4299,9.5474,9.6428,9.6685,9.6685,9.6685,9.6685,9.6685,9.6685,9.6685,9.6685,9.6685,9.6685,9.6685,9.6685,9.6685,9.6685,9.6685,9.6685,9.6685,9.6685,9.6685,9.6685,9.6832,9.7089,9.764,9.8007,9.83,9.8851,9.9548,10.0319,10.0907,10.1294,10.1514,10.1514,10.1514,10.1514,10.1514,10.1514,10.1514,10.1514,10.1514,10.1514,10.1514,10.1514,10.1279,10.0396,9.9542,9.8824,9.8412,9.7797,9.7311,9.7798,9.7797,9.7664,9.7664,9.7834,9.8003,9.8003,9.8003,9.8003,9.8003,9.8003,9.8003,9.8003,9.8003,9.8003,9.8003,9.8003,9.8003,9.8003,9.8003,9.8003,9.8003,9.8003,9.8003,9.8003,9.895,10.0102,10.1521,10.0912,10.0811,10.169,10.1284,10.1316,10.169,10.1995,10.2299,10.2502,10.2502,10.2502,10.2502,10.2502,10.2502,6.3343,6.5655,6.9229,7.2642,7.69,8.1893,8.8023,8.9674,9.0702,9.3492,9.2097,9.0262,8.9748,8.9124,8.8793,8.9087,9.206,9.4299,9.4299,9.5694,9.6685,9.6685,9.6685,9.6685,9.6685,9.6685,9.6685,9.6685,9.6685,9.6685,9.6685,9.6685,9.6685,9.6685,9.6685,9.6685,9.6685,9.6685,9.6685,9.6685,9.6685,9.6685,9.6722,9.7199,9.7419,9.7456,9.8264,9.9071,9.9879,10.0319,10.0907,10.1514,10.109,10.12,10.1514,10.1514,10.1514,10.1514,10.1514,10.1514,10.1514,10.1514,10.1514,10.1299,10.0488,9.9542,9.8611,9.8261,9.7606,9.709,9.7469,9.7766,9.8003,9.8003,9.8003,9.8003,9.8003,9.8003,9.8003,9.8003,9.8003,9.8003,9.8003,9.8003,9.8003,9.8003,9.8003,9.8206,9.8815,9.8375,9.8003,9.8003,9.8003,9.851,9.9694,10.0608,10.1489,10.2402,10.159,10.1286,10.1792,10.1792,10.1792,10.1792,10.2299,10.2502,10.2502,10.2502,10.2502,10.2502,10.2502,10.2502,6.7894,6.9949,7.2665,7.7524,8.0424,8.4058,9.162,9.3932,9.474,9.5474,9.3749,9.2115,9.2115,9.0739,8.984,9.0592,9.2684,9.4226,9.4299,9.5621,9.6612,9.6685,9.6685,9.6685,9.6685,9.6685,9.6685,9.6685,9.6685,9.6685,9.6685,9.6685,9.6685,9.6685,9.6685,9.6685,9.6685,9.6685,9.6685,9.6685,9.6685,9.6685,9.6685,9.6685,9.6685,9.6722,9.753,9.83,9.8998,9.9052,9.9989,10.1274,10.0613,10.0796,10.1514,10.1514,10.1514,10.1514,10.1514,10.1514,10.1514,10.1514,10.1514,10.1494,10.1393,9.9556,9.7732,9.842,9.7308,9.6074,9.6785,9.7495,9.8003,9.8003,9.8003,9.8003,9.8003,9.8003,9.8003,9.8003,9.8003,9.8003,9.8003,9.8003,9.8003,9.8003,9.8003,9.8578,10.0204,9.9254,9.8307,9.8037,9.824,9.9525,10.2299,10.2502,10.2502,10.2502,10.2502,10.2502,10.2502,10.2502,10.2502,10.2502,10.2502,10.2502,10.2502,10.2502,10.2502,10.2502,10.2502,10.2502,6.5338,6.9082,7.4221,7.8494,8.5049,9.1289,9.4299,9.5621,9.6245,9.6428,9.5034,9.3786,9.3786,9.2391,9.1326,9.151,9.2574,9.3565,9.4189,9.5144,9.5988,9.6612,9.6685,9.6685,9.6685,9.6685,9.6685,9.6685,9.6685,9.6685,9.6685,9.6685,9.6685,9.6685,9.6685,9.6685,9.6685,9.6685,9.6685,9.6685,9.6685,9.6685,9.6685,9.6685,9.6685,9.6722,9.753,9.8007,9.819,9.8851,9.9695,10.0503,10.0393,10.0796,10.1514,10.1514,10.1514,10.1514,10.1514,10.1514,10.1514,10.1514,10.1514,10.1315,10.0195,9.9227,9.8379,9.8091,9.7351,9.6819,9.7563,9.7867,9.8003,9.8003,9.8003,9.8003,9.8003,9.8003,9.8003,9.8003,9.8003,9.8003,9.8003,9.8003,9.8003,9.8003,9.8003,9.8984,10.169,10.1692,10.0576,9.8273,10.01,10.1792,10.2402,10.2502,10.2502,10.2502,10.2502,10.2502,10.2502,10.2502,10.2502,10.2502,10.2502,10.2502,10.2502,10.2502,10.2502,10.2502,10.2502,10.2502,6.7614,7.1982,7.7561,8.3948,8.9931,9.4574,9.5804,9.6392,9.6685,9.6685,9.5401,9.4299,9.4299,9.2941,9.1803,9.1803,9.2537,9.3382,9.4189,9.4997,9.5785,9.6612,9.6685,9.6685,9.6685,9.6685,9.6685,9.6685,9.6685,9.6685,9.6685,9.6685,9.6685,9.6685,9.6685,9.6685,9.6685,9.6685,9.6685,9.6685,9.6685,9.6685,9.6685,9.6685,9.6685,9.6722,9.7126,9.753,9.7916,9.7933,9.8888,10.0283,9.9879,10.0503,10.1514,10.1514,10.1514,10.1514,10.1514,10.1514,10.1514,10.1514,10.1095,10.0418,9.9698,9.8691,9.7753,9.7799,9.7394,9.7056,9.78,9.8003,9.8003,9.8003,9.8003,9.8003,9.8003,9.8003,9.8003,9.8003,9.8003,9.8003,9.8003,9.8612,9.8815,9.8104,9.9254,10.0709,10.2299,10.2502,10.1893,10.0303,10.1589,10.2502,10.2502,10.2502,10.2502,10.2502,10.2502,10.2502,10.2502,10.2502,10.2502,10.2502,10.2502,10.2502,10.2502,10.2502,10.2502,10.2502,10.2502,10.2502,6.9963,7.5249,8.1415,8.9748,9.3675,9.5712,9.6539,9.6685,9.6685,9.6685,9.5401,9.4299,9.4299,9.2941,9.1803,9.1803,9.2391,9.3161,9.3969,9.4777,9.5584,9.6392,9.6612,9.6685,9.6685,9.6685,9.6685,9.6685,9.6685,9.6685,9.6685,9.6685,9.6685,9.6685,9.6685,9.6685,9.6685,9.6685,9.6685,9.6685,9.6685,9.6685,9.6685,9.6685,9.6685,9.6685,9.6685,9.7089,9.764,9.6979,9.8043,9.9989,9.9365,10.0099,10.1514,10.1514,10.1514,10.1514,10.1514,10.1514,10.1514,10.1514,10.0693,9.9779,9.9461,9.8352,9.7298,9.7569,9.7394,9.7225,9.7834,9.8003,9.8003,9.8003,9.8003,9.8003,9.8003,9.8003,9.8003,9.8003,9.8003,9.8003,9.8003,9.8986,9.9561,9.8882,10.0912,10.2502,10.2502,10.2502,10.2502,10.2502,10.2502,10.2502,10.2502,10.2502,10.2502,10.2502,10.2502,10.2502,10.2502,10.2502,10.2502,10.2502,10.2502,10.2502,10.2502,10.2502,10.2502,10.2502,10.2502,10.2502,6.5888,7.4353,8.4242,9.0353,9.3712,9.5712,9.6539,9.6685,9.6685,9.6685,9.5401,9.4299,9.4299,9.2941,9.1803,9.1803,9.1913,9.2281,9.3125,9.3932,9.4777,9.5584,9.6282,9.6685,9.6685,9.6685,9.6685,9.6685,9.6685,9.6685,9.6685,9.6685,9.6685,9.6685,9.6685,9.6685,9.6685,9.6685,9.6685,9.6685,9.6685,9.6685,9.6685,9.6685,9.6685,9.6685,9.6685,9.6759,9.6832,9.6722,9.7713,9.9255,9.9145,10.0099,10.1514,10.1514,10.1514,10.1514,10.1514,10.1514,10.1514,10.1514,10.1413,10.0881,9.9313,9.9102,9.9051,9.7453,9.7442,9.7867,9.7969,9.8003,9.8003,9.8003,9.8003,9.8003,9.8003,9.8003,9.8003,9.8003,9.8003,9.8003,9.8003,9.8172,9.9119,10.1489,10.2199,10.2502,10.2502,10.2502,10.2502,10.2502,10.2502,10.2502,10.2502,10.2502,10.2502,10.2502,10.2502,10.2502,10.2502,10.2502,10.2502,10.2502,10.2502,10.2502,10.2502,10.2502,10.2502,10.2502,10.2502,10.2502,7.0206,7.7913,8.5563,9.1711,9.4373,9.5712,9.6539,9.6685,9.6685,9.6685,9.5401,9.4299,9.4299,9.2941,9.1803,9.1803,9.1803,9.2097,9.2978,9.3418,9.3932,9.474,9.5547,9.6025,9.6025,9.6428,9.6685,9.6685,9.6685,9.6685,9.6685,9.6685,9.6685,9.6685,9.6685,9.6685,9.6685,9.6685,9.6685,9.6685,9.6685,9.6685,9.6685,9.6685,9.6685,9.6685,9.6685,9.6685,9.6685,9.6685,9.7383,9.8484,9.8924,9.9805,10.0927,10.1274,10.1514,10.1514,10.1514,10.1514,10.1514,10.1514,10.0788,9.9783,9.8955,9.8444,9.8016,9.7145,9.7428,9.8003,9.8003,9.8003,9.8003,9.8003,9.8003,9.8003,9.8003,9.8003,9.8003,9.8003,9.8442,9.8645,9.8104,9.8003,9.9018,10.1996,10.2502,10.2502,10.2502,10.2502,10.2502,10.2502,10.2502,10.2502,10.2502,10.2502,10.2502,10.2502,10.2502,10.2502,10.2502,10.2502,10.2502,10.2502,10.2502,10.2502,10.2502,10.2502,10.2502,10.2502,10.2502,10.2502,7.2408,7.8442,8.3434,9.0152,9.3198,9.485,9.5878,9.6392,9.6685,9.6685,9.5401,9.4299,9.4299,9.2941,9.1803,9.1803,9.1803,9.2024,9.2684,9.3125,9.3639,9.4226,9.518,9.5785,9.5785,9.6355,9.6685,9.6685,9.6685,9.6685,9.6685,9.6685,9.6685,9.6685,9.6685,9.6685,9.6685,9.6685,9.6685,9.6685,9.6685,9.6685,9.6685,9.6685,9.6685,9.6685,9.6685,9.6685,9.6685,9.6685,9.7273,9.8264,9.8888,9.9732,10.0686,10.1294,10.1514,10.1514,10.1514,10.1514,10.1514,10.1514,10.0396,9.9171,9.9,9.8242,9.7367,9.7211,9.7563,9.8003,9.8003,9.8003,9.8003,9.8003,9.8003,9.8003,9.8003,9.8172,9.8307,9.8375,9.9085,9.9559,9.9221,9.9153,9.9931,10.2198,10.2502,10.2502,10.2502,10.2502,10.2502,10.2502,10.2502,10.2502,10.2502,10.2502,10.2502,10.2502,10.2502,10.2502,10.2502,10.2502,10.2502,10.2502,10.2502,10.2502,10.2502,10.2502,10.2502,10.2502,10.2502,10.2502,6.749,7.1762,7.6019,8.3287,8.8573,9.2427,9.4042,9.5584,9.6685,9.6685,9.5401,9.4299,9.4299,9.2941,9.1803,9.1803,9.1803,9.1803,9.184,9.3235,9.4226,9.4299,9.5694,9.6649,9.6649,9.6685,9.6685,9.6685,9.6685,9.6685,9.6685,9.6685,9.6685,9.6685,9.6685,9.6685,9.6685,9.6685,9.6685,9.6685,9.6685,9.6685,9.6685,9.6685,9.6685,9.6685,9.6685,9.6685,9.6685,9.6685,9.764,9.9015,9.9071,10.0099,10.1384,10.1514,10.1514,10.1514,10.1514,10.1514,10.1514,10.1514,10.0992,10.0405,9.9925,9.9311,9.8682,9.8096,9.7969,9.8003,9.8003,9.8003,9.8003,9.8003,9.8003,9.8003,9.8003,9.8544,9.9119,9.9387,9.9829,10.0576,10.1996,10.2299,10.2299,10.2502,10.2502,10.2502,10.2502,10.2502,10.2502,10.2502,10.2502,10.2502,10.2502,10.2502,10.2502,10.2502,10.2502,10.2502,10.2502,10.2502,10.2502,10.2502,10.2502,10.2502,10.2502,10.2502,10.2502,10.2502,10.2502,10.2502,6.6145,7.0073,7.4441,8.0718,8.5123,8.8647,9.1326,9.3602,9.529,9.5841,9.5474,9.4923,9.441,9.2941,9.1803,9.1803,9.1803,9.1803,9.1803,9.2794,9.3308,9.2758,9.4593,9.5511,9.4483,9.5327,9.5731,9.518,9.5144,9.5144,9.5144,9.5658,9.5951,9.5951,9.6428,9.6685,9.6685,9.6685,9.6685,9.6685,9.6685,9.6685,9.6685,9.6685,9.6685,9.6685,9.6685,9.6685,9.6685,9.6685,9.7346,9.8374,9.8924,9.9769,10.0796,10.1274,10.1514,10.1514,10.1514,10.1514,10.1393,10.0985,10.0508,10.0,9.9383,9.879,9.8262,9.8055,9.8003,9.8003,9.8003,9.8003,9.8138,9.8578,9.8848,9.9051,9.9356,9.9627,9.9829,9.9931,10.0912,10.1893,10.2401,10.2502,10.2502,10.2502,10.2502,10.2502,10.2502,10.2502,10.2502,10.2502,10.2502,10.2502,10.2502,10.2502,10.2502,10.2502,10.2502,10.2502,10.2502,10.2502,10.2502,10.2502,10.2502,10.2502,10.2502,10.3111,10.3111,10.2502,10.3179,10.3111,6.3796,6.721,7.149,7.7488,8.0975,8.4278,8.9454,9.1877,9.3529,9.5161,9.5492,9.5364,9.4813,9.3345,9.2134,9.184,9.1803,9.1803,9.1803,9.2537,9.2905,9.2317,9.3932,9.4666,9.3602,9.4483,9.4887,9.4336,9.4299,9.441,9.4703,9.5217,9.5602,9.5914,9.6428,9.6685,9.6685,9.6685,9.6685,9.6685,9.6685,9.6685,9.6685,9.6685,9.6685,9.6685,9.6685,9.6685,9.6722,9.6979,9.7566,9.8374,9.9181,9.9989,10.0796,10.1294,10.1514,10.1514,10.1514,10.1514,10.1385,10.0809,10.0219,9.9689,9.9076,9.849,9.8003,9.8003,9.8003,9.8003,9.8003,9.8172,9.8476,9.8984,9.9288,9.966,10.0303,10.0506,10.0373,10.0204,10.1388,10.2502,10.2502,10.2502,10.2502,10.2502,10.159,10.1386,10.2401,10.2502,10.2502,10.2502,10.2502,10.2502,10.2502,10.2502,10.2908,10.3889,10.399,10.399,10.399,10.399,10.3517,10.2502,10.2502,10.2502,10.2502,10.3179,10.3179,10.2502,10.3179,10.3111,0.0,0.0,0.0,7.2995,7.5821,7.9344,8.8115,9.0225,9.1253,9.4611,9.5345,9.5382,9.5455,9.4226,9.2868,9.1987,9.1803,9.1803,9.1803,9.2537,9.3088,9.3051,9.3786,9.4299,9.4263,9.4263,9.4263,9.4263,9.4263,9.4593,9.5345,9.5418,9.5841,9.6685,9.6685,9.6649,9.6649,9.6685,9.6685,9.6649,9.6685,9.6685,9.6685,9.6685,9.6685,9.6685,9.6685,9.6685,9.6759,9.7566,9.8374,9.9162,9.9989,10.0796,10.1514,10.1514,10.1514,10.1514,10.1514,10.1514,10.1385,10.08,10.0207,9.9689,9.9056,9.8465,9.8003,9.8003,9.8003,9.8003,9.8037,9.8578,9.9119,9.9153,9.9322,9.9827,10.0811,10.1014,10.0912,10.0405,10.1521,10.2502,10.2502,10.2502,10.2502,10.2502,9.9999,9.9187,10.213,10.2502,10.2502,10.2502,10.2502,10.247,10.2603,10.2603,10.3889,10.6697,10.69,10.69,10.69,10.69,10.558,10.2705,10.2504,10.2502,10.2502,10.247,10.247,10.2502,10.2502,10.2504,5.949,0.0,0.0,0.0,0.0,0.0,7.8023,8.1085,8.4352,8.995,9.1528,9.2684,9.5051,9.5125,9.4373,9.2978,9.2207,9.1803,9.1803,9.2537,9.2868,9.2244,9.3418,9.4079,9.3492,9.3418,9.3418,9.3418,9.3418,9.3235,9.2868,9.3418,9.4666,9.6649,9.6135,9.5841,9.5823,9.6392,9.6428,9.5841,9.6428,9.6685,9.6685,9.6685,9.6685,9.6685,9.6685,9.6685,9.6759,9.7566,9.8374,9.9162,9.9989,10.0796,10.1514,10.1514,10.1514,10.1514,10.1514,10.1514,10.1298,10.0303,9.9931,9.9612,9.8558,9.8137,9.8003,9.8003,9.8003,9.8138,9.8645,9.895,9.9322,10.0301,10.0506,10.0878,10.1893,10.2096,10.1996,10.1893,10.2231,10.2502,10.2502,10.2502,10.2502,10.2502,10.1792,10.1589,10.2401,10.2502,10.2502,10.2502,10.2502,10.3382,10.5513,10.5682,10.602,10.6798,10.69,10.69,10.69,10.69,10.6494,10.5682,10.3618,10.2502,10.2502,10.3212,10.3212,10.2502,10.2502,10.3618,0.0,0.0,0.0,0.0,0.0,0.0,7.5469,7.8421,8.1525,8.7655,9.0115,9.184,9.4079,9.4189,9.3896,9.3639,9.2574,9.1803,9.1803,9.2244,9.2354,9.184,9.2648,9.3235,9.3125,9.3088,9.3235,9.3565,9.3308,9.2868,9.2354,9.3125,9.441,9.6135,9.5749,9.5658,9.6007,9.6465,9.6465,9.6025,9.6502,9.6685,9.6685,9.6685,9.6685,9.6685,9.6685,9.6685,9.6795,9.7933,9.8668,9.9218,10.0393,10.111,10.1514,10.1514,10.1514,10.1514,10.1514,10.1677,10.1785,10.0287,9.9981,10.0018,9.8467,9.8003,9.8003,9.8003,9.8003,9.8172,9.8916,9.9187,9.9559,10.0709,10.1318,10.1792,10.2401,10.2502,10.2502,10.2502,10.2502,10.2502,10.2502,10.2502,10.2502,10.2502,10.2502,10.1996,10.0811,10.1724,10.2502,10.2502,10.3618,10.5005,10.6832,10.69,10.69,10.69,10.69,10.69,10.69,10.69,10.69,10.69,10.399,10.2502,10.2502,10.3077,10.3077,10.2502,10.2502,10.4092,0.0,0.0,0.0,0.0,6.694,0.0,7.6181,7.8458,8.0404,8.5747,8.8757,9.083,9.206,9.1657,9.1583,9.2978,9.2354,9.173,9.1913,9.184,9.1803,9.1803,9.1803,9.2134,9.3015,9.3088,9.3418,9.4226,9.3565,9.3125,9.3235,9.3712,9.4483,9.5455,9.5418,9.5749,9.6575,9.6649,9.6649,9.6575,9.6649,9.6685,9.6685,9.6685,9.6685,9.6685,9.6685,9.6685,9.6832,9.8447,9.9108,9.9255,10.0927,10.1514,10.1514,10.1514,10.1514,10.1514,10.1514,10.2008,10.2406,10.0394,10.029,10.0607,9.8634,9.8003,9.8003,9.8003,9.8003,9.8172,9.8916,9.9288,9.9793,10.0878,10.1825,10.2502,10.2502,10.2502,10.2502,10.2502,10.2502,10.2502,10.2502,10.2502,10.2502,10.2502,10.2502,10.1489,9.8848,10.0779,10.2502,10.2502,10.5107,10.69,10.69,10.69,10.69,10.69,10.69,10.69,10.69,10.69,10.69,10.69,10.399,10.2502,10.2502,10.2502,10.2502,10.2502,10.2502,10.4092,6.2572,6.3563,6.4664,6.4114,0.0,0.0,6.7333,7.0183,7.4001,7.7708,7.991,8.2443,8.6481,8.7085,8.6848,8.6554,8.894,9.1326,9.2648,9.2244,9.1803,9.1803,9.1803,9.2134,9.3015,9.3088,9.3418,9.4226,9.3565,9.3382,9.4042,9.2941,9.3272,9.5418,9.4887,9.4923,9.5731,9.6392,9.6392,9.5749,9.6392,9.6685,9.6685,9.6685,9.6685,9.6685,9.6685,9.6685,9.6832,9.8447,9.9108,9.9255,10.0927,10.1514,10.1514,10.1514,10.1514,10.1514,10.1514,10.2008,10.2406,10.0394,10.029,10.0607,9.8634,9.8003,9.8003,9.8003,9.8003,9.8172,9.8916,9.9288,9.9962,10.1792,10.2401,10.2502,10.2502,10.2502,10.2502,10.2502,10.2502,10.2502,10.2502,10.2502,10.2502,10.2502,10.2502,10.2299,10.1724,10.2098,10.2502,10.2502,10.5107,10.69,10.69,10.69,10.69,10.69,10.69,10.69,10.69,10.69,10.69,10.69,10.399,10.2502,10.2502,10.2502,10.2502,10.2502,10.2502,10.4092,6.3796,6.4053,6.4897,6.5655,0.0,0.0,0.0,6.8641,7.1123,7.4771,7.6166,7.7855,8.1525,8.1856,8.2113,8.3765,8.6371,8.8793,9.0445,9.2024,9.3051,9.3051,9.2684,9.2794,9.3602,9.3345,9.3272,9.3675,9.3712,9.3492,9.3088,9.2244,9.2574,9.4263,9.4299,9.4703,9.5492,9.6318,9.6502,9.6098,9.6502,9.6685,9.6685,9.6685,9.6685,9.6685,9.6685,9.6942,9.7383,9.8594,9.9365,9.9805,10.098,10.1514,10.1514,10.1514,10.1514,10.1514,10.1514,10.1586,10.1487,10.0198,9.9894,9.9727,9.8428,9.8003,9.8003,9.8003,9.8003,9.8172,9.8916,9.8916,9.939,10.1893,10.2502,10.2502,10.2502,10.2502,10.2502,10.2502,10.2502,10.2502,10.2502,10.2502,10.2502,10.2502,10.2502,10.2502,10.2502,10.2502,10.2502,10.2502,10.3821,10.531,10.6798,10.69,10.69,10.69,10.69,10.69,10.69,10.69,10.69,10.69,10.399,10.2502,10.2502,10.2502,10.2502,10.2502,10.2502,10.4092,0.0,0.0,0.0,0.0,0.0,6.6806,0.0,0.0,0.0,7.2481,7.3289,7.4184,7.6313,7.6151,7.6812,8.0262,8.2847,8.4866,8.6151,8.9968,9.2758,9.3088,9.2941,9.3088,9.3749,9.3088,9.2831,9.3308,9.3345,9.2905,9.184,9.1803,9.2207,9.3088,9.3712,9.452,9.5492,9.6135,9.6539,9.6685,9.6685,9.6685,9.6685,9.6685,9.6685,9.6685,9.6685,9.7163,9.797,9.8778,9.9585,10.0393,10.122,10.1514,10.1514,10.1514,10.1514,10.1474,10.1197,10.0978,10.0796,9.9744,9.9119,9.8716,9.8164,9.8003,9.8003,9.8003,9.8003,9.8138,9.8713,9.8442,9.8612,10.1081,10.2096,10.2502,10.2502,10.2502,10.2502,10.2502,10.2502,10.2502,10.2502,10.2502,10.2502,10.2502,10.2502,10.2502,10.2502,10.2502,10.2502,10.2502,10.2502,10.3483,10.5918,10.6595,10.69,10.69,10.69,10.69,10.69,10.69,10.69,10.69,10.4599,10.3111,10.2502,10.2502,10.2502,10.2502,10.3111,10.4599,0.0,0.0,0.0,0.0,7.1321,0.0,0.0,0.0,6.8408,6.6719,0.0,6.8825,6.9816,0.0,0.0,7.1431,7.5983,7.947,7.9653,8.3765,8.7288,8.872,9.0702,9.1987,9.206,9.1363,9.1803,9.4006,9.1528,9.0501,9.173,9.1803,9.2207,9.3088,9.3198,9.3969,9.5492,9.5584,9.5988,9.6685,9.6685,9.6685,9.6685,9.6685,9.6685,9.6685,9.6685,9.7163,9.797,9.8778,9.9585,10.0393,10.122,10.1514,10.1514,10.1514,10.1514,10.1299,10.0108,10.0621,10.1388,9.8831,9.8061,9.8113,9.8031,9.8003,9.8003,9.8003,9.8003,9.8037,9.8104,9.807,9.8104,9.8442,10.0608,10.2502,10.2502,10.2502,10.2502,10.2502,10.2502,10.2502,10.2502,10.2502,10.2502,10.2502,10.2502,10.2502,10.2502,10.2502,10.2502,10.2502,10.2502,10.2571,10.3009,10.5411,10.69,10.69,10.69,10.69,10.69,10.69,10.69,10.69,10.6595,10.5107,10.2502,10.2502,10.2502,10.2603,10.5208,10.6595,0.0,0.0,0.0,0.0,0.0,0.0,6.6109,0.0,6.5362,6.5288,0.0,0.0,0.0,0.0,0.0,0.0,7.2275,7.5212,7.5689,7.914,8.292,8.6371,8.6481,8.6591,8.7545,8.8573,9.0041,9.1987,9.0427,9.0097,9.1693,9.1803,9.195,9.2317,9.3272,9.4116,9.4813,9.5731,9.6355,9.6685,9.6685,9.6685,9.6685,9.6685,9.6685,9.6685,9.6685,9.7419,9.8631,9.8961,9.9842,10.098,10.1404,10.1514,10.1514,10.1514,10.0996,10.0304,10.0174,9.9599,9.8708,9.7643,9.7601,9.8003,9.8003,9.8003,9.8003,9.8003,9.8003,9.8003,9.8003,9.8003,9.8003,9.8003,9.9627,10.1419,10.2299,10.2502,10.2502,10.2502,10.2502,10.2502,10.2502,10.2502,10.2502,10.2502,10.2502,10.2502,10.2502,10.2502,10.2502,10.2502,10.2502,10.2502,10.2502,10.5208,10.69,10.69,10.69,10.69,10.69,10.69,10.69,10.69,10.5208,10.372,10.2502,10.4193,10.4193,10.2603,10.5513,10.69,7.4184,0.0,0.0,0.0,0.0,0.0,0.0,0.0,0.0,0.0,6.5545,0.0,0.0,0.0,0.0,0.0,0.0,7.1982,7.2312,7.4441,7.7818,8.2884,8.292,8.3177,8.4756,8.593,8.7582,9.006,8.8923,8.9179,9.1657,9.1803,9.1913,9.2134,9.3345,9.4189,9.463,9.5804,9.6502,9.6685,9.6685,9.6685,9.6685,9.6685,9.6685,9.6722,9.6942,9.7823,9.9069,9.8916,9.9911,10.1474,10.1095,10.0991,10.0996,10.1393,10.0791,9.9826,9.9999,9.863,9.679,9.7111,9.7563,9.8003,9.8003,9.8003,9.8003,9.8003,9.8003,9.8003,9.8003,9.8003,9.8003,9.8003,9.9051,10.0506,10.2098,10.2502,10.2502,10.2502,10.2502,10.2502,10.2502,10.2502,10.2502,10.2502,10.2502,10.2502,10.2502,10.2502,10.2502,10.2502,10.2502,10.2502,10.2502,10.5208,10.69,10.69,10.69,10.69,10.69,10.69,10.69,10.69,10.4802,10.3314,10.2502,10.4599,10.5005,10.3787,10.5885,10.6697,8.0404,8.1269,8.1179,7.3289,7.1857,7.077,6.4371,6.5912,6.8274,0.0,0.0,0.0,0.0,0.0,0.0,0.0,0.0,0.0,0.0,6.9142,7.127,7.6922,8.0995,8.3968,8.5617,8.3728,8.4352,8.9069,8.6554,8.6811,9.1546,9.1803,9.217,9.3015,9.3125,9.3896,9.5455,9.5492,9.5951,9.6685,9.6685,9.6685,9.6685,9.6685,9.6685,9.6722,9.753,9.8337,9.9046,9.8555,9.9569,10.1413,10.0079,9.9565,9.9698,10.0996,10.1098,10.04,9.9174,9.7943,9.7012,9.7698,9.8003,9.8003,9.8003,9.8003,9.8003,9.8003,9.8003,9.8003,9.8003,9.8003,9.8003,9.8003,9.8781,10.0098,10.2096,10.2502,10.2502,10.2502,10.2502,10.2502,10.2502,10.2502,10.2502,10.2502,10.2502,10.2502,10.2502,10.2502,10.2502,10.2502,10.2502,10.2502,10.2502,10.5208,10.69,10.69,10.69,10.69,10.69,10.69,10.69,10.69,10.6798,10.5377,10.2502,10.2603,10.4092,10.6832,10.69,10.6088,8.3911,8.4756,8.4225,7.7745,7.5506,7.3193,6.6733,6.7123,6.8458,6.6843,0.0,0.0,0.0,0.0,0.0,0.0,0.0,0.0,0.0,6.732,6.8421,7.138,7.5307,7.7986,7.8552,7.98,8.215,8.593,8.4702,8.5913,9.0739,9.1033,9.1657,9.3051,9.3602,9.441,9.5492,9.6025,9.6428,9.6685,9.6685,9.6685,9.6685,9.6685,9.6979,9.7493,9.7787,9.816,9.8562,9.8367,9.8528,9.882,9.8361,9.8193,9.8337,9.9676,9.9276,9.7981,9.7632,9.7584,9.7664,9.7935,9.8003,9.8003,9.8003,9.8003,9.8003,9.8003,9.8003,9.8003,9.8003,9.8003,9.8003,9.8003,9.9018,10.017,10.1284,10.2028,10.2502,10.2502,10.2502,10.2502,10.2502,10.2502,10.2502,10.2502,10.2502,10.2502,10.2502,10.2502,10.2502,10.2502,10.2502,10.2502,10.2502,10.5208,10.69,10.69,10.69,10.69,10.69,10.69,10.69,10.69,10.69,10.6392,10.5411,10.5411,10.4904,10.399,10.399,10.372,8.7178,8.7692,8.7068,8.2003,7.9727,7.7084,7.0881,7.1431,7.2665,7.072,7.2899,0.0,0.0,0.0,0.0,0.0,0.0,0.0,0.0,6.6145,6.699,6.8311,7.1527,7.4169,7.5601,7.6644,7.9029,8.3434,8.248,8.3911,8.9033,8.984,9.1051,9.3051,9.3859,9.4813,9.5914,9.6428,9.6685,9.6685,9.6685,9.6685,9.6722,9.7016,9.7419,9.7953,9.8484,9.8593,9.8276,9.8098,9.7801,9.7449,9.6981,9.6803,9.6946,9.8313,9.8081,9.7079,9.695,9.736,9.8003,9.8003,9.8003,9.8003,9.8003,9.8003,9.8003,9.8003,9.8003,9.8003,9.8003,9.8003,9.8003,9.8003,9.895,9.9999,10.0608,10.169,10.2502,10.2502,10.2502,10.2502,10.2502,10.2502,10.2502,10.2502,10.2502,10.2502,10.2502,10.2502,10.2502,10.2502,10.2502,10.2502,10.2502,10.5208,10.69,10.69,10.69,10.6392,10.5377,10.6291,10.6392,10.5377,10.531,10.531,10.531,10.6392,10.5885,10.4092,10.4092,10.3517]}]]